[[{"header":{"parameterUnit":"m.s-1","parameterCategory":1,"la1":31.0,"la2":29.5877,"lo1":-88.7671,"lo2":-86.6584,"dx":0.0162,"dy":0.0185,"nx":115,"ny":88,"refTime":"2023-02-10T06:00:00:Z","depth":0,"parameterNumber":2,"parameterNumberName":"U-component_of_WINDS"},"data":[0.0,0.0,0.0,0.0,0.0,0.0,0.0,0.0,0.0,0.0,0.0,0.0,0.0,0.0,0.0,0.0,0.0,0.0,0.0,0.0,0.0,0.0,0.0,0.0,0.0,0.0,0.0,0.0,0.0,0.0,0.0,0.0,0.0,0.0,0.0,0.0,0.0,0.0,0.0,0.0,0.0,0.0,0.0,0.0,0.0,0.0,0.0,0.0,0.0,0.0,0.0,0.0,0.0,0.0,0.0,0.0,0.0,0.0,0.0,0.0,0.0,0.0,0.0,0.0,0.0,0.0,0.0,0.0,0.0,0.0,0.0,0.0,0.0,0.0,0.0,0.0,0.0,0.0,0.0,0.0,0.0,0.0,0.0,0.0,0.0,0.0,0.0,0.0,0.0,0.0,0.0,0.0,0.0,0.0,0.0,0.0,0.0,0.0,0.0,0.0,0.0,0.0,0.0,0.0,0.0,0.0,0.0,0.0,0.0,0.0,0.0,0.0,0.0,0.0,0.0,0.0,0.0,0.0,0.0,0.0,0.0,0.0,0.0,0.0,0.0,0.0,0.0,0.0,0.0,0.0,0.0,0.0,0.0,0.0,0.0,0.0,0.0,0.0,0.0,0.0,0.0,0.0,0.0,0.0,0.0,0.0,0.0,0.0,0.0,0.0,0.0,0.0,0.0,0.0,0.0,0.0,0.0,0.0,0.0,0.0,0.0,0.0,0.0,0.0,0.0,0.0,0.0,0.0,0.0,0.0,0.0,0.0,0.0,0.0,0.0,0.0,0.0,0.0,0.0,0.0,0.0,0.0,0.0,0.0,0.0,0.0,0.0,0.0,0.0,0.0,0.0,0.0,0.0,0.0,0.0,0.0,0.0,0.0,0.0,0.0,0.0,0.0,0.0,0.0,0.0,0.0,0.0,0.0,0.0,0.0,0.0,0.0,0.0,0.0,0.0,0.0,0.0,0.0,0.0,0.0,0.0,0.0,0.0,0.0,0.0,0.0,0.0,0.0,0.0,0.0,0.0,0.0,0.0,0.0,0.0,0.0,0.0,0.0,0.0,0.0,0.0,0.0,0.0,0.0,0.0,0.0,0.0,0.0,0.0,0.0,0.0,0.0,0.0,0.0,0.0,0.0,0.0,0.0,0.0,0.0,0.0,0.0,0.0,0.0,0.0,0.0,0.0,0.0,0.0,0.0,0.0,0.0,0.0,0.0,0.0,0.0,0.0,0.0,0.0,0.0,0.0,0.0,0.0,0.0,0.0,0.0,0.0,0.0,0.0,0.0,0.0,0.0,0.0,0.0,0.0,0.0,0.0,0.0,0.0,0.0,0.0,0.0,0.0,0.0,0.0,0.0,0.0,0.0,0.0,0.0,0.0,0.0,0.0,0.0,0.0,0.0,0.0,0.0,0.0,0.0,0.0,0.0,0.0,0.0,0.0,0.0,0.0,0.0,0.0,0.0,0.0,0.0,0.0,0.0,0.0,0.0,0.0,0.0,0.0,0.0,0.0,0.0,0.0,0.0,0.0,0.0,0.0,0.0,0.0,0.0,0.0,0.0,0.0,0.0,0.0,0.0,0.0,0.0,0.0,0.0,0.0,0.0,0.0,0.0,0.0,0.0,0.0,0.0,0.0,0.0,0.0,0.0,0.0,0.0,0.0,0.0,0.0,0.0,0.0,0.0,0.0,0.0,0.0,0.0,0.0,0.0,0.0,0.0,0.0,0.0,0.0,0.0,0.0,0.0,0.0,0.0,0.0,0.0,0.0,0.0,0.0,0.0,0.0,0.0,0.0,0.0,0.0,0.0,0.0,0.0,0.0,0.0,0.0,0.0,0.0,0.0,0.0,0.0,0.0,0.0,0.0,0.0,0.0,0.0,0.0,0.0,0.0,0.0,0.0,0.0,0.0,0.0,0.0,0.0,0.0,0.0,0.0,0.0,0.0,0.0,0.0,0.0,0.0,0.0,0.0,0.0,0.0,0.0,0.0,0.0,0.0,0.0,0.0,0.0,0.0,0.0,0.0,0.0,0.0,0.0,0.0,0.0,0.0,0.0,0.0,0.0,0.0,0.0,0.0,0.0,0.0,0.0,0.0,0.0,0.0,0.0,0.0,0.0,0.0,0.0,0.0,0.0,0.0,0.0,0.0,0.0,0.0,0.0,0.0,0.0,0.0,0.0,0.0,0.0,0.0,0.0,0.0,0.0,0.0,0.0,0.0,0.0,0.0,0.0,0.0,0.0,0.0,0.0,0.0,0.0,0.0,0.0,0.0,0.0,0.0,0.0,0.0,0.0,0.0,0.0,0.0,0.0,0.0,0.0,0.0,0.0,0.0,0.0,0.0,0.0,0.0,0.0,0.0,0.0,0.0,0.0,0.0,0.0,0.0,0.0,0.0,0.0,0.0,0.0,0.0,0.0,0.0,0.0,0.0,0.0,0.0,0.0,0.0,0.0,0.0,0.0,0.0,0.0,0.0,0.0,0.0,0.0,0.0,0.0,0.0,0.0,0.0,0.0,0.0,0.0,0.0,0.0,0.0,0.0,0.0,0.0,0.0,0.0,0.0,0.0,0.0,0.0,0.0,0.0,0.0,0.0,0.0,0.0,0.0,0.0,0.0,0.0,0.0,0.0,0.0,0.0,0.0,0.0,0.0,0.0,0.0,0.0,0.0,0.0,0.0,0.0,0.0,0.0,0.0,0.0,0.0,0.0,0.0,0.0,0.0,0.0,0.0,0.0,0.0,0.0,0.0,0.0,0.0,0.0,0.0,0.0,0.0,0.0,0.0,0.0,0.0,0.0,0.0,0.0,0.0,0.0,0.0,0.0,0.0,0.0,0.0,0.0,0.0,0.0,0.0,0.0,0.0,0.0,0.0,0.0,0.0,0.0,0.0,0.0,0.0,0.0,0.0,0.0,0.0,0.0,0.0,0.0,0.0,0.0,0.0,0.0,0.0,0.0,0.0,0.0,0.0,0.0,0.0,0.0,0.0,0.0,0.0,0.0,0.0,0.0,0.0,0.0,0.0,0.0,0.0,0.0,0.0,0.0,0.0,0.0,0.0,0.0,0.0,0.0,0.0,0.0,0.0,0.0,0.0,0.0,0.0,0.0,0.0,0.0,0.0,0.0,0.0,0.0,0.0,0.0,0.0,0.0,0.0,0.0,0.0,0.0,0.0,0.0,0.0,0.0,0.0,0.0,0.0,0.0,0.0,0.0,0.0,0.0,0.0,0.0,0.0,0.0,0.0,0.0,0.0,0.0,0.0,0.0,0.0,0.0,0.0,0.0,0.0,0.0,0.0,0.0,0.0,0.0,0.0,0.0,0.0,0.0,0.0,0.0,0.0,0.0,0.0,0.0,0.0,0.0,0.0,0.0,0.0,0.0,0.0,0.0,0.0,0.0,0.0,0.0,0.0,0.0,0.0,0.0,0.0,0.0,0.0,0.0,0.0,0.0,0.0,0.0,0.0,0.0,0.0,0.0,0.0,0.0,0.0,0.0,0.0,0.0,0.0,0.0,0.0,0.0,0.0,0.0,0.0,0.0,0.0,0.0,0.0,0.0,0.0,0.0,0.0,0.0,0.0,0.0,0.0,0.0,0.0,0.0,0.0,0.0,0.0,0.0,0.0,0.0,0.0,0.0,0.0,0.0,0.0,0.0,0.0,0.0,0.0,0.0,0.0,0.0,0.0,0.0,0.0,0.0,0.0,0.0,0.0,0.0,0.0,0.0,0.0,0.0,0.0,0.0,0.0,0.0,0.0,0.0,0.0,0.0,0.0,0.0,0.0,0.0,0.0,0.0,0.0,0.0,0.0,0.0,0.0,0.0,0.0,0.0,0.0,0.0,0.0,0.0,0.0,0.0,0.0,0.0,0.0,0.0,0.0,0.0,0.0,0.0,0.0,0.0,0.0,0.0,0.0,0.0,0.0,0.0,0.0,0.0,0.0,0.0,0.0,0.0,0.0,0.0,0.0,0.0,0.0,0.0,0.0,0.0,0.0,0.0,0.0,0.0,0.0,0.0,0.0,0.0,0.0,0.0,0.0,0.0,0.0,0.0,0.0,0.0,0.0,0.0,0.0,0.0,0.0,0.0,0.0,0.0,0.0,0.0,0.0,0.0,0.0,0.0,0.0,0.0,0.0,0.0,0.0,0.0,0.0,0.0,0.0,0.0,0.0,0.0,0.0,0.0,0.0,0.0,0.0,0.0,0.0,0.0,0.0,0.0,0.0,0.0,0.0,0.0,0.0,0.0,0.0,0.0,0.0,0.0,0.0,0.0,4.3509,0.0,0.0,0.0,0.0,0.0,0.0,0.0,0.0,0.0,0.0,0.0,0.0,0.0,0.0,0.0,0.0,0.0,0.0,0.0,0.0,0.0,0.0,0.0,0.0,0.0,0.0,0.0,0.0,0.0,0.0,0.0,0.0,0.0,0.0,0.0,0.0,0.0,0.0,0.0,0.0,0.0,0.0,0.0,0.0,0.0,0.0,0.0,0.0,0.0,0.0,0.0,0.0,0.0,0.0,0.0,0.0,0.0,0.0,0.0,0.0,0.0,0.0,0.0,0.0,0.0,0.0,0.0,0.0,0.0,0.0,0.0,0.0,0.0,0.0,0.0,0.0,0.0,0.0,0.0,0.0,0.0,0.0,0.0,0.0,0.0,0.0,0.0,0.0,0.0,0.0,0.0,0.0,0.0,0.0,0.0,0.0,0.0,0.0,0.0,0.0,0.0,0.0,0.0,0.0,0.0,0.0,0.0,0.0,0.0,0.0,4.4077,4.3778,4.3778,4.3629,4.3359,0.0,0.0,0.0,0.0,0.0,0.0,0.0,0.0,0.0,0.0,0.0,0.0,0.0,0.0,0.0,0.0,0.0,0.0,0.0,0.0,0.0,0.0,0.0,0.0,0.0,0.0,0.0,0.0,0.0,0.0,0.0,0.0,0.0,0.0,0.0,0.0,0.0,0.0,0.0,0.0,0.0,0.0,0.0,0.0,0.0,0.0,0.0,0.0,0.0,0.0,0.0,0.0,0.0,0.0,0.0,0.0,0.0,0.0,0.0,0.0,0.0,0.0,0.0,0.0,0.0,0.0,0.0,0.0,0.0,0.0,0.0,0.0,0.0,0.0,0.0,0.0,0.0,0.0,0.0,0.0,0.0,0.0,0.0,0.0,0.0,0.0,0.0,0.0,0.0,0.0,0.0,0.0,0.0,0.0,0.0,0.0,0.0,0.0,0.0,0.0,0.0,0.0,0.0,0.0,0.0,0.0,0.0,0.0,0.0,0.0,0.0,0.0,4.3569,4.3569,4.3539,0.0,0.0,0.0,0.0,0.0,0.0,0.0,0.0,0.0,0.0,0.0,0.0,0.0,0.0,0.0,0.0,0.0,0.0,0.0,0.0,0.0,0.0,0.0,0.0,0.0,0.0,0.0,0.0,0.0,0.0,0.0,0.0,0.0,0.0,0.0,0.0,0.0,0.0,0.0,0.0,0.0,0.0,0.0,0.0,0.0,0.0,0.0,0.0,0.0,0.0,0.0,0.0,0.0,0.0,0.0,0.0,0.0,0.0,0.0,0.0,0.0,0.0,0.0,0.0,0.0,0.0,0.0,0.0,0.0,0.0,0.0,0.0,0.0,0.0,0.0,0.0,0.0,0.0,0.0,0.0,0.0,0.0,0.0,0.0,0.0,0.0,0.0,0.0,0.0,0.0,0.0,0.0,0.0,0.0,0.0,0.0,0.0,0.0,0.0,0.0,0.0,0.0,0.0,0.0,0.0,0.0,0.0,0.0,0.0,0.0,4.3599,4.4197,4.4227,0.0,4.4197,0.0,0.0,0.0,0.0,0.0,0.0,0.0,0.0,0.0,0.0,0.0,0.0,0.0,0.0,0.0,0.0,0.0,0.0,0.0,0.0,0.0,0.0,0.0,0.0,0.0,0.0,0.0,0.0,0.0,0.0,0.0,0.0,0.0,0.0,0.0,0.0,0.0,0.0,0.0,0.0,0.0,0.0,0.0,0.0,0.0,0.0,0.0,0.0,0.0,0.0,0.0,0.0,0.0,0.0,0.0,0.0,0.0,0.0,0.0,0.0,0.0,0.0,0.0,0.0,0.0,0.0,0.0,0.0,0.0,0.0,0.0,0.0,0.0,0.0,0.0,0.0,0.0,0.0,0.0,0.0,0.0,0.0,0.0,0.0,0.0,0.0,0.0,0.0,0.0,0.0,0.0,0.0,0.0,0.0,0.0,0.0,0.0,0.0,0.0,0.0,0.0,0.0,0.0,0.0,0.0,0.0,0.0,0.0,0.0,0.0,4.3629,4.4287,4.4317,4.4137,0.0,0.0,0.0,0.0,0.0,0.0,0.0,0.0,0.0,0.0,0.0,0.0,0.0,0.0,0.0,0.0,0.0,0.0,0.0,0.0,0.0,0.0,0.0,0.0,0.0,0.0,0.0,0.0,0.0,0.0,0.0,0.0,0.0,0.0,0.0,0.0,0.0,0.0,0.0,0.0,0.0,0.0,0.0,0.0,0.0,0.0,0.0,0.0,0.0,0.0,0.0,0.0,0.0,0.0,0.0,0.0,0.0,0.0,0.0,0.0,0.0,0.0,0.0,0.0,0.0,0.0,0.0,0.0,0.0,0.0,0.0,0.0,0.0,0.0,0.0,0.0,0.0,0.0,0.0,0.0,0.0,0.0,0.0,0.0,0.0,0.0,0.0,0.0,0.0,0.0,0.0,0.0,0.0,0.0,0.0,0.0,0.0,0.0,0.0,0.0,0.0,0.0,0.0,0.0,0.0,0.0,0.0,0.0,0.0,0.0,4.3688,4.3838,4.4287,4.4137,4.3808,4.3359,0.0,0.0,0.0,0.0,0.0,0.0,0.0,0.0,0.0,0.0,0.0,0.0,0.0,0.0,0.0,0.0,0.0,0.0,0.0,0.0,0.0,0.0,0.0,0.0,0.0,0.0,0.0,0.0,0.0,0.0,0.0,0.0,0.0,0.0,0.0,0.0,0.0,0.0,0.0,0.0,0.0,0.0,0.0,0.0,0.0,0.0,0.0,0.0,0.0,0.0,0.0,0.0,0.0,0.0,0.0,0.0,0.0,0.0,0.0,0.0,0.0,0.0,0.0,0.0,0.0,0.0,0.0,0.0,0.0,0.0,0.0,0.0,0.0,0.0,0.0,0.0,0.0,0.0,0.0,0.0,0.0,0.0,0.0,0.0,0.0,0.0,0.0,0.0,0.0,0.0,0.0,0.0,0.0,0.0,0.0,0.0,0.0,0.0,0.0,0.0,0.0,0.0,0.0,0.0,0.0,0.0,0.0,0.0,4.5065,4.4556,4.4257,4.4287,4.3688,4.3359,0.0,0.0,0.0,0.0,0.0,0.0,0.0,0.0,0.0,0.0,0.0,0.0,0.0,0.0,0.0,0.0,0.0,0.0,0.0,0.0,0.0,0.0,0.0,0.0,0.0,0.0,0.0,0.0,0.0,0.0,0.0,0.0,0.0,0.0,0.0,0.0,0.0,0.0,0.0,0.0,0.0,0.0,0.0,0.0,0.0,0.0,0.0,0.0,0.0,0.0,0.0,0.0,0.0,0.0,0.0,0.0,0.0,0.0,0.0,0.0,0.0,0.0,0.0,0.0,0.0,0.0,0.0,0.0,0.0,0.0,0.0,0.0,0.0,0.0,0.0,0.0,0.0,0.0,0.0,0.0,0.0,0.0,0.0,0.0,0.0,0.0,0.0,0.0,0.0,0.0,0.0,0.0,0.0,0.0,0.0,0.0,0.0,0.0,0.0,0.0,0.0,0.0,0.0,0.0,0.0,0.0,0.0,0.0,0.0,4.3389,4.318,4.3269,4.3658,4.3449,4.3329,0.0,0.0,0.0,0.0,0.0,0.0,0.0,0.0,0.0,0.0,0.0,0.0,0.0,0.0,0.0,0.0,0.0,0.0,0.0,0.0,0.0,0.0,0.0,0.0,0.0,0.0,0.0,0.0,0.0,0.0,0.0,0.0,0.0,0.0,0.0,0.0,0.0,0.0,0.0,0.0,0.0,0.0,0.0,0.0,0.0,0.0,0.0,0.0,0.0,0.0,0.0,0.0,0.0,0.0,0.0,0.0,0.0,0.0,0.0,0.0,0.0,0.0,0.0,0.0,0.0,0.0,0.0,0.0,0.0,0.0,0.0,0.0,0.0,0.0,0.0,0.0,0.0,0.0,0.0,0.0,0.0,0.0,0.0,0.0,0.0,0.0,0.0,0.0,0.0,0.0,0.0,0.0,0.0,0.0,0.0,0.0,0.0,0.0,0.0,0.0,0.0,0.0,0.0,0.0,0.0,0.0,0.0,0.0,0.0,4.297,0.0,4.3569,4.3359,4.3329,4.315,0.0,0.0,0.0,0.0,0.0,0.0,0.0,0.0,0.0,0.0,0.0,0.0,0.0,0.0,0.0,0.0,0.0,0.0,0.0,0.0,0.0,0.0,0.0,0.0,0.0,0.0,0.0,0.0,0.0,0.0,0.0,0.0,0.0,0.0,0.0,0.0,0.0,0.0,0.0,0.0,0.0,0.0,0.0,0.0,0.0,0.0,0.0,0.0,0.0,0.0,0.0,0.0,0.0,0.0,0.0,0.0,0.0,0.0,0.0,0.0,0.0,0.0,0.0,0.0,0.0,0.0,0.0,0.0,0.0,0.0,0.0,0.0,0.0,0.0,0.0,0.0,0.0,0.0,0.0,0.0,0.0,0.0,0.0,0.0,0.0,0.0,0.0,0.0,0.0,0.0,0.0,0.0,0.0,0.0,0.0,0.0,0.0,0.0,0.0,0.0,0.0,0.0,0.0,0.0,0.0,0.0,0.0,0.0,4.297,4.4197,4.5424,4.5125,4.3509,4.3359,4.2731,0.0,0.0,0.0,0.0,0.0,0.0,0.0,0.0,0.0,0.0,0.0,0.0,0.0,0.0,0.0,0.0,0.0,0.0,0.0,0.0,0.0,0.0,0.0,0.0,0.0,0.0,0.0,0.0,0.0,0.0,0.0,0.0,0.0,0.0,0.0,0.0,0.0,0.0,0.0,0.0,0.0,0.0,0.0,0.0,0.0,0.0,0.0,0.0,0.0,0.0,0.0,0.0,0.0,0.0,0.0,0.0,0.0,0.0,0.0,0.0,0.0,0.0,0.0,0.0,0.0,0.0,0.0,0.0,0.0,0.0,0.0,0.0,0.0,0.0,0.0,0.0,0.0,0.0,0.0,0.0,0.0,0.0,0.0,0.0,0.0,0.0,0.0,0.0,0.0,0.0,0.0,0.0,0.0,0.0,0.0,0.0,0.0,0.0,0.0,0.0,0.0,0.0,0.0,0.0,0.0,0.0,0.0,0.0,0.0,4.1683,4.2462,4.3509,4.4586,4.3359,4.291,0.0,0.0,0.0,0.0,0.0,0.0,0.0,0.0,0.0,0.0,0.0,0.0,0.0,0.0,0.0,0.0,0.0,0.0,0.0,0.0,0.0,0.0,0.0,0.0,0.0,0.0,0.0,0.0,0.0,0.0,0.0,0.0,0.0,0.0,0.0,0.0,0.0,0.0,0.0,0.0,0.0,0.0,0.0,0.0,0.0,0.0,0.0,0.0,0.0,0.0,0.0,0.0,0.0,0.0,0.0,0.0,0.0,0.0,0.0,0.0,0.0,0.0,0.0,0.0,0.0,0.0,0.0,0.0,0.0,0.0,0.0,0.0,0.0,0.0,0.0,0.0,0.0,0.0,0.0,0.0,0.0,0.0,0.0,0.0,0.0,0.0,0.0,0.0,0.0,0.0,0.0,0.0,0.0,0.0,0.0,0.0,0.0,0.0,0.0,0.0,0.0,0.0,0.0,0.0,0.0,0.0,0.0,0.0,0.0,4.1983,4.2761,4.3748,4.4915,4.3718,4.324,4.3569,0.0,0.0,0.0,0.0,0.0,0.0,0.0,0.0,0.0,0.0,0.0,0.0,0.0,0.0,0.0,0.0,0.0,0.0,0.0,0.0,0.0,0.0,0.0,0.0,0.0,0.0,0.0,0.0,0.0,0.0,0.0,0.0,0.0,0.0,0.0,0.0,0.0,0.0,0.0,0.0,0.0,0.0,0.0,0.0,0.0,0.0,0.0,0.0,0.0,0.0,0.0,0.0,0.0,0.0,0.0,0.0,0.0,0.0,0.0,0.0,0.0,0.0,0.0,0.0,0.0,0.0,0.0,0.0,0.0,0.0,0.0,0.0,0.0,0.0,0.0,0.0,0.0,0.0,0.0,0.0,0.0,0.0,0.0,0.0,0.0,0.0,0.0,0.0,0.0,0.0,0.0,0.0,0.0,0.0,0.0,0.0,0.0,0.0,0.0,0.0,0.0,0.0,0.0,0.0,0.0,0.0,0.0,0.0,4.4466,4.5723,4.5783,4.4616,4.4436,4.3778,0.0,0.0,0.0,0.0,0.0,0.0,0.0,0.0,0.0,0.0,0.0,0.0,0.0,0.0,0.0,0.0,0.0,0.0,0.0,0.0,0.0,0.0,0.0,0.0,0.0,0.0,0.0,0.0,0.0,0.0,0.0,0.0,0.0,0.0,0.0,0.0,0.0,0.0,0.0,0.0,0.0,0.0,0.0,0.0,0.0,0.0,0.0,0.0,0.0,0.0,0.0,0.0,0.0,0.0,0.0,0.0,0.0,0.0,0.0,0.0,0.0,0.0,0.0,0.0,0.0,0.0,0.0,0.0,0.0,0.0,0.0,0.0,0.0,0.0,0.0,0.0,0.0,0.0,0.0,0.0,0.0,0.0,0.0,0.0,0.0,0.0,0.0,0.0,0.0,0.0,0.0,0.0,0.0,0.0,0.0,0.0,0.0,0.0,0.0,0.0,0.0,0.0,0.0,0.0,0.0,0.0,0.0,0.0,0.0,4.6441,4.686,4.71,4.7189,4.5813,4.4885,0.0,0.0,0.0,0.0,0.0,0.0,0.0,0.0,0.0,0.0,0.0,0.0,0.0,0.0,0.0,0.0,0.0,0.0,0.0,0.0,0.0,0.0,0.0,0.0,0.0,0.0,0.0,0.0,0.0,0.0,0.0,0.0,0.0,0.0,0.0,0.0,0.0,0.0,0.0,0.0,0.0,0.0,0.0,0.0,0.0,0.0,0.0,0.0,0.0,0.0,0.0,0.0,0.0,0.0,0.0,0.0,0.0,0.0,0.0,0.0,0.0,0.0,0.0,0.0,0.0,0.0,0.0,0.0,0.0,0.0,0.0,0.0,0.0,0.0,0.0,0.0,0.0,0.0,0.0,0.0,0.0,0.0,0.0,0.0,0.0,0.0,0.0,0.0,0.0,0.0,0.0,0.0,0.0,0.0,0.0,0.0,0.0,0.0,0.0,0.0,0.0,0.0,0.0,0.0,0.0,0.0,0.0,0.0,4.5185,4.7249,4.7848,4.8446,4.9105,4.7459,4.6022,0.0,0.0,0.0,0.0,0.0,0.0,0.0,0.0,0.0,0.0,0.0,0.0,0.0,0.0,0.0,0.0,0.0,0.0,0.0,0.0,0.0,0.0,0.0,0.0,0.0,0.0,0.0,0.0,0.0,0.0,0.0,0.0,0.0,0.0,0.0,0.0,0.0,0.0,0.0,0.0,0.0,0.0,0.0,0.0,0.0,0.0,0.0,0.0,0.0,0.0,0.0,0.0,0.0,0.0,0.0,0.0,0.0,0.0,0.0,0.0,0.0,0.0,0.0,0.0,0.0,0.0,0.0,0.0,0.0,0.0,0.0,0.0,0.0,0.0,0.0,0.0,0.0,0.0,0.0,0.0,0.0,0.0,0.0,0.0,0.0,0.0,0.0,0.0,0.0,0.0,0.0,0.0,0.0,0.0,0.0,0.0,0.0,0.0,0.0,0.0,0.0,0.0,0.0,0.0,0.0,0.0,0.0,0.0,4.5903,4.7279,4.8506,4.9434,4.9972,4.8835,4.704,0.0,0.0,0.0,0.0,0.0,0.0,0.0,0.0,0.0,0.0,0.0,0.0,0.0,0.0,0.0,0.0,0.0,0.0,0.0,0.0,0.0,0.0,0.0,0.0,0.0,0.0,0.0,0.0,0.0,0.0,0.0,0.0,0.0,0.0,0.0,0.0,0.0,0.0,0.0,0.0,0.0,0.0,0.0,0.0,0.0,0.0,0.0,0.0,0.0,0.0,0.0,0.0,0.0,0.0,0.0,0.0,0.0,0.0,0.0,0.0,0.0,0.0,0.0,0.0,0.0,0.0,0.0,0.0,0.0,0.0,0.0,0.0,0.0,0.0,0.0,0.0,0.0,0.0,0.0,0.0,0.0,0.0,0.0,0.0,0.0,0.0,0.0,0.0,0.0,0.0,0.0,0.0,0.0,0.0,0.0,0.0,0.0,0.0,0.0,0.0,0.0,0.0,0.0,0.0,0.0,0.0,0.0,0.0,4.5424,4.7249,4.8087,4.8566,4.8686,4.7938,4.701,0.0,0.0,0.0,0.0,0.0,0.0,0.0,0.0,0.0,0.0,0.0,0.0,0.0,0.0,0.0,0.0,0.0,0.0,0.0,0.0,0.0,0.0,0.0,0.0,0.0,0.0,0.0,0.0,0.0,0.0,0.0,0.0,0.0,0.0,0.0,0.0,0.0,0.0,0.0,0.0,0.0,0.0,0.0,0.0,0.0,0.0,0.0,0.0,5.2336,0.0,0.0,0.0,0.0,0.0,0.0,0.0,0.0,0.0,0.0,0.0,0.0,0.0,0.0,0.0,0.0,0.0,0.0,0.0,0.0,0.0,0.0,0.0,0.0,0.0,0.0,0.0,0.0,0.0,0.0,0.0,0.0,0.0,0.0,0.0,0.0,0.0,0.0,0.0,0.0,0.0,0.0,0.0,0.0,0.0,0.0,0.0,0.0,0.0,0.0,0.0,0.0,0.0,0.0,0.0,0.0,0.0,0.0,0.0,4.5274,4.7249,4.7938,4.8446,4.8686,4.7818,4.683,0.0,0.0,0.0,0.0,0.0,0.0,0.0,0.0,0.0,0.0,0.0,0.0,0.0,0.0,0.0,0.0,0.0,0.0,0.0,0.0,0.0,0.0,0.0,0.0,0.0,0.0,0.0,0.0,0.0,0.0,0.0,0.0,0.0,0.0,0.0,0.0,0.0,0.0,0.0,0.0,0.0,0.0,0.0,0.0,0.0,0.0,0.0,0.0,0.0,0.0,0.0,0.0,0.0,0.0,0.0,0.0,0.0,0.0,0.0,0.0,0.0,0.0,0.0,0.0,0.0,0.0,0.0,0.0,0.0,0.0,0.0,0.0,0.0,0.0,0.0,0.0,0.0,0.0,0.0,0.0,0.0,0.0,0.0,0.0,0.0,0.0,0.0,0.0,0.0,0.0,0.0,0.0,0.0,0.0,0.0,0.0,0.0,0.0,0.0,0.0,0.0,0.0,0.0,0.0,0.0,0.0,0.0,4.3808,4.5334,4.71,4.7788,4.8416,4.8925,4.7878,4.6681,4.5364,0.0,0.0,0.0,0.0,0.0,0.0,0.0,0.0,0.0,0.0,0.0,0.0,0.0,0.0,0.0,0.0,0.0,0.0,0.0,0.0,0.0,0.0,0.0,0.0,0.0,0.0,0.0,0.0,0.0,0.0,0.0,0.0,0.0,0.0,0.0,0.0,0.0,0.0,4.9224,5.0631,0.0,0.0,0.0,0.0,0.0,0.0,0.0,0.0,5.1289,0.0,0.0,0.0,0.0,0.0,0.0,0.0,0.0,0.0,0.0,0.0,0.0,0.0,0.0,0.0,0.0,0.0,0.0,0.0,0.0,0.0,0.0,0.0,0.0,0.0,0.0,0.0,0.0,0.0,0.0,0.0,0.0,0.0,0.0,0.0,0.0,0.0,0.0,0.0,0.0,0.0,0.0,0.0,0.0,0.0,0.0,0.0,0.0,0.0,0.0,0.0,0.0,0.0,0.0,0.0,0.0,4.315,4.4466,4.5574,4.6471,4.713,4.7519,4.7638,4.7399,4.6681,4.5334,0.0,0.0,0.0,0.0,0.0,0.0,0.0,0.0,0.0,0.0,0.0,0.0,0.0,0.0,0.0,0.0,0.0,0.0,0.0,0.0,0.0,0.0,0.0,0.0,0.0,0.0,0.0,0.0,0.0,0.0,0.0,0.0,0.0,0.0,0.0,0.0,0.0,0.0,0.0,5.1678,5.2695,0.0,0.0,0.0,0.0,0.0,0.0,0.0,0.0,5.1468,0.0,0.0,0.0,0.0,0.0,0.0,0.0,0.0,0.0,0.0,0.0,0.0,0.0,0.0,0.0,0.0,0.0,0.0,0.0,0.0,0.0,0.0,0.0,0.0,0.0,0.0,0.0,0.0,0.0,0.0,0.0,0.0,0.0,0.0,0.0,0.0,0.0,0.0,0.0,0.0,0.0,0.0,0.0,0.0,0.0,0.0,0.0,0.0,0.0,0.0,0.0,0.0,0.0,0.0,0.0,4.2742,4.2952,4.4006,4.6207,4.5638,4.5689,4.6255,4.537,4.4733,0.0,0.0,0.0,0.0,0.0,0.0,0.0,0.0,0.0,0.0,0.0,0.0,0.0,0.0,0.0,0.0,0.0,0.0,0.0,0.0,0.0,0.0,0.0,0.0,0.0,0.0,0.0,0.0,0.0,0.0,0.0,0.0,0.0,0.0,0.0,0.0,0.0,0.0,0.0,0.0,5.1648,5.2665,5.2695,0.0,0.0,0.0,0.0,0.0,0.0,5.1708,5.1708,0.0,0.0,0.0,0.0,0.0,0.0,0.0,0.0,0.0,0.0,0.0,0.0,0.0,0.0,0.0,0.0,0.0,0.0,0.0,0.0,0.0,0.0,0.0,0.0,0.0,0.0,0.0,0.0,0.0,0.0,0.0,0.0,0.0,0.0,0.0,0.0,0.0,0.0,0.0,0.0,0.0,0.0,0.0,0.0,0.0,0.0,0.0,0.0,0.0,0.0,0.0,0.0,0.0,0.0,0.0,4.21,4.1256,4.2414,4.5521,4.428,4.3975,4.4932,4.3594,4.2887,0.0,0.0,0.0,0.0,0.0,0.0,0.0,0.0,0.0,0.0,0.0,0.0,0.0,0.0,0.0,0.0,0.0,0.0,0.0,0.0,0.0,0.0,0.0,0.0,0.0,0.0,0.0,0.0,0.0,0.0,0.0,0.0,0.0,0.0,0.0,0.0,0.0,0.0,0.0,0.0,0.0,5.2695,5.2935,5.2665,0.0,0.0,0.0,0.0,5.1618,5.2486,0.0,0.0,0.0,0.0,0.0,0.0,0.0,0.0,0.0,0.0,0.0,0.0,0.0,0.0,0.0,0.0,0.0,0.0,0.0,0.0,0.0,0.0,0.0,0.0,0.0,0.0,0.0,0.0,0.0,0.0,0.0,0.0,0.0,0.0,0.0,0.0,0.0,0.0,0.0,0.0,0.0,0.0,0.0,0.0,0.0,0.0,0.0,0.0,0.0,0.0,0.0,0.0,0.0,0.0,0.0,0.0,4.1443,4.1022,4.1779,4.3686,4.3665,4.3598,4.3693,4.3543,4.2962,0.0,0.0,0.0,0.0,0.0,0.0,0.0,0.0,0.0,0.0,0.0,0.0,0.0,0.0,0.0,0.0,0.0,0.0,0.0,0.0,0.0,0.0,0.0,0.0,0.0,0.0,0.0,0.0,0.0,0.0,0.0,0.0,0.0,0.0,0.0,0.0,0.0,0.0,0.0,0.0,0.0,5.3563,5.2456,5.2755,5.2875,0.0,0.0,5.2965,5.2965,5.497,0.0,0.0,0.0,0.0,0.0,0.0,0.0,0.0,0.0,0.0,0.0,0.0,0.0,0.0,0.0,0.0,0.0,0.0,0.0,0.0,0.0,0.0,0.0,0.0,0.0,0.0,0.0,0.0,0.0,0.0,0.0,0.0,0.0,0.0,0.0,0.0,0.0,0.0,0.0,0.0,0.0,0.0,0.0,0.0,0.0,0.0,0.0,0.0,0.0,0.0,0.0,0.0,0.0,0.0,0.0,3.8705,4.0277,3.9311,3.9947,4.2361,4.1736,4.169,4.235,4.1152,4.0314,0.0,0.0,0.0,0.0,0.0,0.0,0.0,0.0,0.0,0.0,0.0,0.0,0.0,0.0,0.0,0.0,0.0,0.0,0.0,0.0,0.0,0.0,0.0,0.0,0.0,0.0,0.0,0.0,0.0,0.0,0.0,0.0,0.0,0.0,0.0,0.0,0.0,0.0,0.0,0.0,0.0,0.0,5.2336,5.3084,0.0,0.0,0.0,5.3892,5.4251,0.0,0.0,0.0,0.0,0.0,0.0,0.0,0.0,0.0,0.0,0.0,0.0,0.0,0.0,0.0,0.0,0.0,0.0,0.0,0.0,0.0,0.0,0.0,0.0,0.0,0.0,0.0,0.0,0.0,0.0,0.0,0.0,0.0,0.0,0.0,0.0,0.0,0.0,0.0,0.0,0.0,0.0,0.0,0.0,0.0,0.0,0.0,0.0,0.0,0.0,0.0,0.0,0.0,0.0,0.0,0.0,0.0,3.93,3.7913,3.8427,4.0817,4.0127,4.0185,4.1019,3.9219,0.0,0.0,0.0,0.0,0.0,0.0,0.0,0.0,0.0,0.0,0.0,0.0,0.0,0.0,0.0,0.0,0.0,0.0,0.0,0.0,0.0,0.0,0.0,0.0,0.0,0.0,0.0,3.6358,0.0,0.0,0.0,0.0,0.0,0.0,0.0,0.0,0.0,0.0,0.0,0.0,0.0,0.0,5.2935,5.2306,5.3623,5.47,0.0,0.0,5.5059,5.5388,5.6137,5.5708,0.0,0.0,0.0,0.0,0.0,0.0,0.0,0.0,0.0,0.0,0.0,0.0,0.0,0.0,0.0,0.0,0.0,0.0,0.0,0.0,0.0,0.0,0.0,0.0,0.0,0.0,0.0,0.0,0.0,0.0,0.0,0.0,0.0,0.0,0.0,0.0,0.0,0.0,0.0,0.0,0.0,0.0,0.0,0.0,0.0,0.0,0.0,0.0,0.0,0.0,0.0,0.0,0.0,0.0,0.0,3.8721,3.7753,3.7811,3.907,3.9498,3.9697,3.9775,3.9221,3.839,0.0,0.0,0.0,0.0,0.0,0.0,0.0,0.0,0.0,0.0,0.0,0.0,0.0,0.0,0.0,0.0,0.0,0.0,0.0,0.0,0.0,0.0,0.0,0.0,0.0,0.0,0.0,0.0,0.0,0.0,0.0,0.0,0.0,0.0,0.0,0.0,0.0,0.0,0.0,0.0,0.0,5.2935,5.2276,5.4401,5.6017,0.0,0.0,5.6705,5.6196,5.868,5.9009,5.3943,0.0,0.0,0.0,0.0,0.0,0.0,0.0,0.0,0.0,0.0,0.0,0.0,0.0,0.0,0.0,0.0,0.0,0.0,0.0,0.0,0.0,0.0,0.0,0.0,0.0,0.0,0.0,0.0,0.0,0.0,0.0,0.0,0.0,0.0,0.0,0.0,0.0,0.0,0.0,0.0,0.0,0.0,0.0,0.0,0.0,0.0,0.0,0.0,0.0,0.0,0.0,0.0,0.0,3.7758,3.8253,3.7868,3.7914,3.8341,3.922,3.9697,3.9697,3.8818,3.7965,0.0,0.0,0.0,0.0,0.0,0.0,0.0,0.0,0.0,0.0,0.0,0.0,0.0,0.0,0.0,0.0,0.0,0.0,0.0,0.0,0.0,0.0,0.0,0.0,0.0,0.0,0.0,0.0,3.6358,3.6358,3.6358,0.0,0.0,0.0,0.0,0.0,0.0,0.0,0.0,0.0,0.0,5.0743,5.1449,5.2636,0.0,0.0,5.5913,5.5791,5.5859,5.6133,5.4923,5.1061,4.9085,0.0,0.0,0.0,0.0,0.0,0.0,0.0,0.0,0.0,0.0,0.0,0.0,0.0,0.0,0.0,0.0,0.0,0.0,0.0,0.0,0.0,0.0,0.0,0.0,0.0,0.0,0.0,0.0,0.0,0.0,0.0,0.0,0.0,0.0,0.0,0.0,0.0,0.0,0.0,0.0,0.0,0.0,0.0,0.0,0.0,0.0,0.0,0.0,0.0,0.0,0.0,0.0,3.7473,3.7663,3.7861,3.809,3.8266,3.9195,3.9697,3.9672,3.8592,3.7739,0.0,0.0,0.0,0.0,0.0,0.0,0.0,0.0,0.0,0.0,0.0,0.0,0.0,0.0,0.0,0.0,0.0,0.0,0.0,0.0,0.0,0.0,0.0,0.0,0.0,0.0,0.0,0.0,3.6458,3.6358,3.6358,0.0,0.0,0.0,0.0,0.0,0.0,0.0,0.0,0.0,0.0,4.9036,5.0029,5.1023,5.2339,5.4107,5.427,5.411,5.3823,5.3633,5.2266,4.8924,0.0,0.0,0.0,0.0,0.0,0.0,0.0,0.0,0.0,0.0,0.0,0.0,0.0,0.0,0.0,0.0,0.0,0.0,0.0,0.0,0.0,0.0,0.0,0.0,0.0,0.0,0.0,0.0,0.0,0.0,4.0059,0.0,0.0,0.0,0.0,0.0,0.0,0.0,0.0,0.0,0.0,0.0,0.0,0.0,0.0,0.0,0.0,0.0,0.0,0.0,0.0,0.0,0.0,3.6569,3.7148,3.7687,3.8291,3.8843,3.9396,3.9697,3.9672,3.8592,3.7739,3.7186,0.0,0.0,0.0,0.0,0.0,0.0,0.0,0.0,0.0,0.0,0.0,0.0,0.0,0.0,0.0,0.0,0.0,0.0,0.0,0.0,0.0,0.0,0.0,0.0,0.0,0.0,3.7211,3.6684,3.6358,0.0,0.0,0.0,0.0,0.0,0.0,0.0,0.0,0.0,0.0,4.6487,4.8138,4.8166,5.0275,5.1498,5.0561,5.1527,5.167,4.9932,5.1932,5.2288,0.0,0.0,0.0,0.0,0.0,0.0,0.0,0.0,0.0,0.0,0.0,0.0,0.0,0.0,0.0,0.0,0.0,0.0,0.0,0.0,0.0,0.0,0.0,0.0,0.0,0.0,0.0,3.8738,3.8738,0.0,0.0,0.0,0.0,0.0,0.0,0.0,0.0,0.0,0.0,0.0,3.8184,3.9296,0.0,0.0,0.0,0.0,0.0,0.0,0.0,0.0,0.0,0.0,0.0,0.0,3.6595,3.7138,3.7712,3.8291,3.8868,3.9396,3.9697,3.9697,3.8969,3.7965,3.6684,0.0,0.0,0.0,0.0,0.0,0.0,0.0,0.0,0.0,0.0,0.0,0.0,0.0,0.0,0.0,0.0,0.0,0.0,0.0,0.0,0.0,0.0,0.0,0.0,0.0,3.7789,0.0,0.0,0.0,0.0,0.0,0.0,0.0,0.0,0.0,0.0,0.0,4.067,4.1595,4.3516,4.5411,4.7108,4.7814,4.8919,0.0,0.0,0.0,0.0,0.0,0.0,0.0,0.0,0.0,0.0,0.0,0.0,0.0,0.0,4.9565,4.6803,4.615,4.5924,4.5547,0.0,0.0,0.0,0.0,0.0,0.0,0.0,0.0,0.0,0.0,0.0,0.0,0.0,0.0,3.7727,0.0,3.7675,0.0,0.0,0.0,0.0,0.0,0.0,0.0,0.0,3.8168,3.8005,3.7487,3.8666,3.9025,0.0,3.8566,3.8725,0.0,0.0,0.0,0.0,0.0,0.0,0.0,0.0,3.6185,3.7077,3.7724,3.8366,3.912,3.9521,3.9697,3.9672,3.9145,3.8165,3.6684,3.6307,3.5855,0.0,0.0,0.0,0.0,0.0,0.0,0.0,0.0,0.0,0.0,0.0,0.0,0.0,0.0,0.0,0.0,0.0,0.0,0.0,0.0,0.0,0.0,0.0,3.7864,0.0,0.0,0.0,0.0,0.0,0.0,0.0,0.0,0.0,3.9848,3.9973,4.0325,4.1254,4.2308,4.3736,4.5589,0.0,0.0,0.0,0.0,0.0,0.0,0.0,4.7675,4.6465,4.6502,4.6753,4.7104,4.8837,5.0167,5.0142,0.0,0.0,4.8535,4.7883,4.7631,4.728,4.7908,4.8309,4.7807,4.8259,4.856,0.0,0.0,0.0,0.0,0.0,0.0,0.0,0.0,3.6754,3.7107,0.0,3.6956,0.0,0.0,0.0,0.0,0.0,3.7612,0.0,0.0,3.7333,3.7513,3.8015,3.8065,3.8065,3.804,3.804,3.7739,3.7232,3.7169,0.0,0.0,0.0,0.0,0.0,0.0,3.5554,3.7111,3.7739,3.8567,3.9647,3.9697,3.9697,3.9672,3.917,3.8366,3.7312,3.7186,3.6935,3.6408,3.6358,0.0,0.0,0.0,0.0,0.0,0.0,0.0,0.0,0.0,0.0,0.0,0.0,0.0,0.0,0.0,0.0,0.0,0.0,0.0,0.0,3.8366,0.0,0.0,0.0,0.0,0.0,0.0,0.0,0.0,0.0,0.0,4.04,4.0526,4.1103,4.2685,0.0,0.0,0.0,0.0,4.5045,4.3487,4.5681,4.6732,4.4446,4.7313,4.9066,4.6844,0.0,0.0,4.9088,5.0243,5.0996,4.9941,5.0695,5.1674,5.2628,5.1348,5.0368,5.0293,4.9188,4.836,4.8761,4.9088,4.9113,3.804,0.0,0.0,0.0,0.0,3.7111,3.7262,3.7764,3.7613,3.7713,3.7965,3.7262,0.0,0.0,0.0,0.0,0.0,0.0,3.7394,3.7236,3.8015,3.8467,3.8642,3.9019,3.8994,3.8617,3.8617,3.8115,3.7211,3.7146,3.6752,3.6055,0.0,0.0,0.0,0.0,3.6307,3.7186,3.814,3.8969,3.9697,3.9697,3.9697,3.9697,3.9145,3.8718,3.8391,3.7613,3.7111,3.696,3.6584,0.0,0.0,0.0,0.0,0.0,0.0,0.0,0.0,0.0,0.0,0.0,0.0,0.0,0.0,0.0,0.0,0.0,0.0,0.0,3.8818,3.8718,3.8617,0.0,0.0,0.0,0.0,0.0,0.0,0.0,0.0,0.0,4.0902,4.0752,4.0827,0.0,0.0,4.2735,4.3664,4.4459,4.5182,4.5773,4.662,0.0,0.0,4.7749,4.8556,4.8712,5.0318,5.1624,5.1724,5.2126,5.2352,5.2,5.2226,5.2578,5.2779,5.19,5.1096,5.1021,5.0921,5.0946,5.1122,5.1448,5.1699,3.9521,3.8919,3.7939,3.7688,3.7965,3.7663,3.7839,3.8341,3.8115,3.8266,3.8617,3.7839,3.7513,3.7487,3.6935,0.0,0.0,0.0,3.7638,3.7889,3.8567,3.8994,3.922,3.9521,3.9521,3.9195,3.8969,3.8417,3.7513,3.7513,3.7061,3.6207,0.0,0.0,3.5403,3.6031,3.6734,3.7513,3.8417,3.9145,3.9672,3.9697,3.9697,3.9697,3.9371,3.9094,3.8868,3.8216,3.7638,3.7211,3.7086,3.681,0.0,0.0,0.0,0.0,0.0,0.0,0.0,0.0,0.0,0.0,0.0,3.7914,0.0,0.0,0.0,0.0,3.7688,3.8492,3.8843,3.8868,0.0,0.0,0.0,0.0,0.0,0.0,0.0,3.9622,3.9396,3.9747,4.1128,4.1053,4.1279,4.2484,4.2735,4.3212,4.4317,0.0,4.5573,4.6376,4.7205,4.7807,4.7908,4.8485,4.9213,5.0117,5.1272,5.2151,5.2528,5.2754,5.2929,5.2929,5.2929,5.2929,5.2929,5.2377,5.1925,5.195,5.2201,5.2427,5.2427,5.2703,5.2929,4.1028,4.0375,3.8919,3.8241,3.814,3.814,3.8442,3.8894,3.8366,3.8718,3.9597,3.8542,3.804,3.7965,3.7462,0.0,3.8015,3.8065,3.8366,3.8868,3.8919,3.9195,3.9672,3.9697,3.9697,3.9697,3.917,3.8642,3.809,3.8065,3.7789,3.7236,3.6257,3.6006,3.6458,3.6533,3.7061,3.8065,3.8642,3.917,3.9672,3.9697,3.9697,3.9697,3.9697,3.9446,3.8969,3.8894,3.8366,3.7337,3.7739,3.7538,3.6533,0.0,0.0,0.0,0.0,0.0,0.0,0.0,0.0,0.0,0.0,0.0,0.0,0.0,0.0,0.0,3.8241,0.0,3.8944,3.8944,0.0,0.0,0.0,3.8944,3.8944,3.9371,3.9697,3.9697,0.0,0.0,4.1204,4.1379,4.2208,4.4342,4.4141,4.4192,4.5347,4.5874,4.6075,4.5799,4.733,4.8435,4.8134,4.9289,5.0469,5.1071,5.1699,5.2026,5.2151,5.2503,5.2829,5.2929,5.2929,5.2929,5.2929,5.2879,5.2929,5.2879,5.2904,5.2904,5.2904,5.2904,5.2929,4.1028,4.0526,4.0526,4.0074,3.9295,3.9295,3.9371,3.9496,3.9346,3.9446,3.9647,3.8969,3.8417,3.799,3.7864,3.7889,3.8015,3.8467,3.8743,3.8894,3.9295,3.9572,3.9697,3.9697,3.9697,3.9672,3.9572,3.9195,3.8693,3.8668,3.8366,3.7814,3.7538,3.7487,3.7638,3.804,3.8391,3.8668,3.922,3.9572,3.9697,3.9697,3.9697,3.9697,3.9697,3.9622,3.9496,3.9094,3.8542,3.7864,3.7939,3.7688,3.7036,3.7111,0.0,0.0,0.0,0.0,0.0,0.0,0.0,0.0,0.0,3.814,3.8467,0.0,3.7663,0.0,3.8467,3.9044,3.9471,3.9496,0.0,0.0,3.9496,3.9496,3.9496,3.9622,3.9697,3.9697,4.0049,4.0576,4.1254,4.1706,4.261,4.4342,4.4141,4.4217,4.5321,4.5598,4.5949,4.6602,4.7179,4.7782,4.8485,4.959,5.0594,5.1197,5.1398,5.1624,5.2026,5.2201,5.2427,5.2829,5.2929,5.2929,5.2929,5.2929,5.2929,5.2929,5.2929,5.2929,5.2929,5.2929,5.2929,4.153,4.1279,4.158,4.1078,4.0074,4.0049,3.9923,3.9697,3.9697,3.9697,3.9672,3.912,3.8843,3.8743,3.8492,3.8517,3.8768,3.9094,3.9245,3.9245,3.9546,3.9697,3.9697,3.9697,3.9697,3.9697,3.9697,3.9421,3.8919,3.912,3.8944,3.8391,3.8642,3.8768,3.8768,3.8818,3.8868,3.8868,3.9421,3.9697,3.9697,3.9697,3.9697,3.9697,3.9697,3.9572,3.9346,3.9019,3.8592,3.804,3.8266,3.814,3.7588,3.7789,3.7814,0.0,0.0,0.0,0.0,0.0,0.0,0.0,0.0,0.0,0.0,0.0,3.8115,0.0,3.8894,3.9371,3.9672,3.9697,3.9697,3.9697,3.9697,3.9697,3.9697,3.9697,3.9697,3.9697,3.9973,4.045,4.1229,4.1605,4.2409,4.4041,4.4217,4.4568,4.5623,4.605,4.6376,4.6702,4.7179,4.7657,4.8309,4.9113,4.9791,5.0117,5.0569,5.0996,5.1297,5.1574,5.1925,5.2427,5.2553,5.2653,5.2854,5.2929,5.2929,5.2929,5.2929,5.2929,5.2929,5.2929,5.2929,4.2208,4.2158,4.2233,4.163,4.0626,4.0701,4.0325,3.9697,3.9697,3.9697,3.9672,3.9195,3.9245,3.9647,3.9195,3.9245,3.9697,3.9697,3.9697,3.9697,3.9697,3.9697,3.9697,3.9697,3.9697,3.9697,3.9697,3.9446,3.8994,3.9471,3.9446,3.9019,3.9446,3.9747,3.9772,3.932,3.9094,3.9094,3.9697,3.9973,3.9923,3.9973,3.9948,3.9798,3.9722,3.9446,3.8894,3.8868,3.8592,3.8065,3.8617,3.8718,3.8165,3.8592,3.8642,0.0,3.804,0.0,0.0,0.0,0.0,0.0,0.0,0.0,0.0,3.8517,3.8442,3.8944,3.9421,3.9697,3.9697,3.9697,3.9697,3.9697,3.9697,3.9697,3.9697,3.9697,3.9697,3.9697,3.9747,4.0199,4.1178,4.1379,4.2057,4.3564,4.4292,4.4945,4.5974,4.6602,4.6778,4.6376,4.7154,4.7707,4.7883,4.836,4.8837,4.8937,4.9665,5.0318,5.0469,5.0845,5.1373,5.195,5.2151,5.2302,5.2829,5.2929,5.2929,5.2929,5.2929,5.2929,5.2929,5.2929,5.2929,4.2559,4.2208,4.2635,4.2183,4.1229,4.1656,4.1028,3.9697,3.9697,3.9697,3.9672,3.9597,3.9597,3.9672,3.9597,3.9597,3.9697,3.9697,3.9697,3.9697,3.9697,3.9697,3.9697,3.9697,3.9697,3.9697,3.9697,3.9647,3.9546,3.9647,3.9647,3.9546,3.9647,3.9923,4.0325,0.0,0.0,0.0,4.1178,4.148,4.1053,4.148,4.1279,4.0375,3.9923,0.0,3.8919,3.8868,3.8617,3.8065,3.8994,0.0,0.0,0.0,0.0,0.0,0.0,0.0,0.0,0.0,0.0,0.0,3.9546,3.9546,3.9546,3.9446,3.9421,3.9546,3.9647,3.9697,3.9697,3.9697,3.9697,3.9697,3.9697,3.9697,3.9697,3.9697,3.9697,3.9697,4.0074,4.0601,4.1254,4.1706,4.2434,4.3564,4.4267,4.4869,4.5522,4.6125,4.6426,4.6376,4.6878,4.728,4.728,4.8109,4.8711,4.8862,4.9289,4.9891,5.0318,5.0469,5.0971,5.185,5.2101,5.2251,5.2804,5.2929,5.2929,5.2929,5.2929,5.2929,5.2929,5.2929,5.2929,4.2811,0.0,4.2861,4.2484,0.0,4.2032,4.153,4.0475,4.0224,3.9948,3.9697,3.9697,3.9697,3.9697,3.9697,3.9697,3.9697,3.9697,3.9697,3.9697,3.9697,3.9697,3.9697,3.9973,3.9948,3.9697,3.9973,3.9948,3.9697,3.9697,3.9823,4.0099,4.0099,4.0375,4.0902,4.1204,4.1204,4.0927,4.148,4.1605,4.1379,4.1605,4.1354,4.0551,0.0,0.0,0.0,0.0,0.0,0.0,0.0,0.0,0.0,0.0,0.0,3.927,3.8994,3.8969,3.9245,3.927,3.9396,3.9672,3.9697,3.9697,3.9697,3.9697,3.9697,3.9697,3.9697,3.9697,3.9697,3.9697,3.9697,3.9697,3.9697,3.9697,3.9697,3.9697,3.9823,4.0074,4.035,4.0802,4.163,4.1957,4.2484,4.3288,4.4116,4.4719,4.507,4.5799,4.6301,4.6326,4.6527,4.6728,4.6828,4.7631,4.836,4.8435,4.9038,4.964,4.9967,5.0017,5.0293,5.1096,5.1498,5.1875,5.2402,5.2729,5.2929,5.2929,5.2929,5.2929,5.2929,5.2929,5.2929,4.2986,4.2986,4.2986,4.271,4.2308,4.2308,4.1982,4.143,0.0,0.0,0.0,3.9697,3.9697,3.9697,3.9697,3.9697,3.9697,3.9697,3.9697,3.9697,3.9697,3.9697,3.9722,4.0249,4.0275,3.9873,4.04,4.0425,3.9998,3.9973,4.0199,4.0626,4.0676,4.0927,4.148,4.2032,4.2133,4.1806,4.1882,4.1831,4.1656,4.1806,4.1555,4.0827,4.0727,4.0149,3.9044,3.9019,3.8969,3.8868,3.8969,3.922,3.9647,3.9697,3.9697,3.9697,3.9798,3.9798,3.9697,3.9798,3.9798,3.9697,3.9798,3.9798,3.9697,3.9697,3.9697,3.9697,3.9697,3.9697,3.9697,3.9697,3.9697,3.9697,3.9697,3.9722,3.9823,3.9848,4.0074,4.0551,4.0676,4.1028,4.1982,4.2158,4.2359,4.2961,4.384,4.4543,4.4744,4.5598,4.6326,4.6326,4.6376,4.6351,4.6451,4.7104,4.7757,4.7983,4.8786,4.9439,4.9565,4.959,4.9816,5.0393,5.082,5.1297,5.185,5.2377,5.2754,5.2779,5.2879,5.2929,5.2929,5.2929,5.2929,4.2986,4.2986,4.2986,4.2936,4.2861,4.2861,4.2534,4.1957,4.0978,4.0199,3.9697,3.9697,3.9697,3.9697,3.9697,3.9697,3.9697,3.9697,3.9697,0.0,3.9697,3.9697,3.9722,4.0249,4.0475,4.045,4.0953,4.1178,4.1103,4.1103,4.1153,4.1204,4.1229,4.1505,4.2032,4.2585,4.3062,4.3463,4.3915,4.3714,4.2785,4.3664,4.3438,4.1982,4.1455,4.0701,3.9622,3.9572,3.9346,3.8919,3.932,3.9622,3.9697,3.9722,3.9697,3.9722,4.0124,4.0199,3.9747,4.0124,4.0199,3.9772,4.0124,4.0199,3.9747,3.9697,3.9697,3.9697,3.9697,3.9697,3.9697,3.9722,3.9772,3.9722,3.9722,3.9873,4.035,4.04,4.0601,4.1153,4.1204,4.1455,4.2057,4.2183,4.2384,4.2936,4.3589,4.4116,4.4719,4.5598,4.6225,4.6326,4.6326,4.6326,4.6376,4.6803,4.7405,4.7857,4.8435,4.9012,4.9389,4.9464,4.964,5.0243,5.0419,5.0745,5.1272,5.185,5.2151,5.2251,5.2528,5.2854,5.2879,5.2879,5.2929,4.3237,4.2986,4.2986,4.2986,4.2986,4.2986,4.266,4.2133,4.163,4.1103,4.0551,3.9973,3.9848,4.0099,3.9823,3.9697,3.9697,3.9697,3.9848,4.0149,4.0149,4.03,4.0626,4.1128,4.1254,4.1028,4.153,4.163,4.1354,4.1329,4.148,4.1781,4.2082,4.2359,4.261,4.2861,4.3087,4.3338,4.3614,4.3765,4.3865,4.379,4.3363,4.261,4.2057,4.1404,4.0626,4.0576,4.0475,4.0224,4.045,4.0576,4.0576,4.0601,4.0601,4.0601,4.0827,4.0852,4.0601,4.0551,4.0526,4.0576,4.0526,4.0551,4.0601,4.03,4.0023,3.9747,3.9948,3.9998,3.9747,4.0224,4.0475,4.0174,4.0375,4.0676,4.0902,4.0978,4.1178,4.1656,4.1781,4.1982,4.2534,4.261,4.266,4.2986,4.3463,4.4091,4.4895,4.5221,4.5522,4.5799,4.5874,4.6024,4.625,4.6778,4.7205,4.7456,4.7958,4.836,4.8636,4.8686,4.8812,4.9038,4.9515,5.0017,5.0368,5.1096,5.1548,5.1699,5.2101,5.2427,5.2503,5.2703,5.2904,4.3412,4.2687,4.305,4.3087,4.2986,4.2986,4.2735,4.2359,4.2208,4.1982,4.158,4.0551,4.03,4.0626,4.0249,4.0074,4.0049,4.0074,4.03,4.0676,4.0701,4.0927,4.1379,4.1882,4.1932,4.163,4.2082,4.2108,4.1756,4.1706,4.1982,4.2509,4.2961,4.3212,4.3338,4.3338,4.3413,4.3514,4.3413,4.3714,4.4392,4.3815,4.3489,4.3313,4.2936,4.2384,4.1756,4.1706,4.1605,4.1354,4.1329,4.1329,4.1329,4.1329,4.1329,4.1354,4.1455,4.153,4.1505,4.1003,4.0877,4.1279,4.1078,4.1028,4.1254,4.1078,4.0651,4.0224,4.0475,4.0526,4.0275,4.0802,4.1153,4.0777,4.1078,4.1354,4.1505,4.153,4.1731,4.2233,4.2333,4.2509,4.2861,4.2986,4.2961,4.3037,4.3363,4.3966,4.4694,4.4518,4.4518,4.497,4.5296,4.5648,4.61,4.6577,4.6954,4.7079,4.7456,4.7782,4.7908,4.7958,4.7933,4.8134,4.8761,4.9339,4.9515,5.0318,5.0971,5.1122,5.1649,5.2176,5.2377,5.2653,5.2904,4.3357,4.1938,4.3119,4.3438,4.3011,4.3011,4.2961,4.2836,4.2409,4.2409,4.271,4.1681,4.1229,4.1254,4.1178,4.1128,4.1128,4.1178,4.1204,4.1254,4.1254,4.1304,4.143,4.1932,4.2133,4.2158,4.261,4.2811,4.2735,4.2785,4.3112,4.3589,4.3714,4.3966,4.4392,4.4443,4.4694,4.5221,4.4744,4.4267,4.3966,4.4769,4.4995,4.4493,4.4418,4.389,4.2861,4.2836,4.2359,4.1455,4.1379,4.1354,4.1354,4.1354,4.1354,4.1379,4.1806,4.2082,4.2057,4.158,4.1304,4.1354,4.1756,4.1781,4.1455,4.1756,4.1781,4.1329,4.1229,4.1204,4.1178,4.1304,4.1404,4.1304,4.1379,4.1505,4.1982,4.2082,4.2283,4.2836,4.2836,4.2936,4.2961,4.2986,4.2986,4.2986,4.3062,4.3263,4.3489,4.3438,4.3514,4.4066,4.4769,4.5397,4.5648,4.6024,4.6527,4.6979,4.7154,4.733,4.7606,4.7757,4.7883,4.7657,4.8335,4.8786,4.9063,4.9715,5.0444,5.0619,5.1272,5.2201,5.2653,5.2879,5.2929,4.1942,4.1852,4.2563,4.3111,4.3287,4.2732,4.2799,4.335,4.2487,4.2774,4.3726,4.3137,4.2434,4.1806,4.1505,4.1329,4.1329,4.1329,4.1505,4.1806,4.1831,4.1982,4.2308,4.2534,4.2635,4.2635,4.2886,4.2986,4.3037,4.3288,4.3589,4.3815,4.4116,4.4392,4.4593,4.4317,4.4418,4.4945,4.4744,4.4669,4.4794,4.4895,4.5045,4.5095,4.4794,4.4267,4.3589,4.3765,4.3589,4.2861,4.2811,4.2811,4.2785,4.2484,4.2308,4.2308,4.2509,4.2635,4.2635,4.2133,4.1957,4.2283,4.2208,4.2183,4.2308,4.2509,4.2534,4.2333,4.2007,4.1706,4.148,4.1932,4.2183,4.1957,4.2108,4.2409,4.261,4.2635,4.276,4.2961,4.2986,4.2986,4.2986,4.2986,4.2986,4.2986,4.2986,4.3062,4.3363,4.3187,4.3237,4.3714,4.4217,4.4744,4.5296,4.5648,4.6075,4.6476,4.6652,4.6778,4.6928,4.6979,4.6954,4.6979,4.7732,4.8209,4.8259,4.9138,4.9941,5.0167,5.082,5.18,5.2327,5.2703,5.2879,4.108,4.0915,4.0755,4.1445,4.2603,4.2233,4.2304,4.2628,4.2257,4.2448,4.2895,4.2622,4.2291,4.2004,4.1788,4.1563,4.1211,4.1563,4.1982,4.2359,4.2384,4.266,4.3162,4.3212,4.3212,4.3187,4.3212,4.3212,4.3237,4.3589,4.394,4.4267,4.4669,4.492,4.502,4.4669,4.4694,4.5045,4.507,4.5296,4.5598,4.5296,4.5296,4.5623,4.5296,4.4819,4.4292,4.4644,4.4593,4.4066,4.4016,4.3966,4.379,4.3413,4.3137,4.2986,4.2986,4.2986,4.2986,4.261,4.2559,4.2886,4.2585,4.2534,4.2886,4.2986,4.2986,4.2911,4.261,4.2183,4.1982,4.2509,4.276,4.2459,4.276,4.2986,4.2961,4.2986,4.2961,4.2986,4.2986,4.2986,4.2986,4.2986,4.2986,4.2986,4.2986,4.3087,4.3438,4.3237,4.3187,4.3689,4.3689,4.4041,4.502,4.5447,4.5698,4.61,4.6351,4.6351,4.6326,4.6326,4.6326,4.6702,4.728,4.7657,4.7807,4.856,4.959,4.9891,5.0494,5.1272,5.1774,5.2226,5.2477,4.1479,3.8209,3.7529,3.8603,3.9781,4.1317,4.1173,4.015,4.1341,4.1084,3.9651,3.9538,4.0048,4.1516,4.2322,4.2076,4.1118,4.2276,4.2911,4.2986,4.2961,4.3237,4.374,4.3765,4.3765,4.3765,4.3512,4.3626,4.3651,4.384,4.4342,4.5347,4.5422,4.5698,4.605,4.6024,4.6175,4.61,4.6075,4.62,4.625,4.6225,4.6175,4.6225,4.6225,4.5899,4.5447,4.5422,4.5196,4.4593,4.4593,4.4367,4.3915,4.3765,4.3514,4.3062,4.2986,4.2986,4.2986,4.2911,4.2936,4.2961,4.2911,4.2936,4.2961,4.2986,4.2986,4.2986,4.2911,4.2836,4.2811,4.2861,4.2961,4.2911,4.2936,4.2986,4.2986,4.2986,4.2986,4.2986,4.2986,4.2986,4.2986,4.2986,4.2986,4.2986,4.2986,4.3037,4.3087,4.3037,4.3338,4.3564,4.3539,4.3438,4.4468,4.502,4.5598,4.61,4.6326,4.6326,4.6326,4.6326,4.6326,4.6426,4.6928,4.728,4.7405,4.8058,4.9163,4.9766,5.0193,5.082,5.1222,5.1297,5.1674,3.8624,3.8456,3.9325,3.9831,3.9944,4.0002,3.9958,4.007,3.9875,4.0047,4.0478,4.1176,4.126,4.0869,4.1971,4.2696,4.316,4.3437,4.3689,4.394,4.3664,4.379,4.4242,4.3991,4.4016,4.4177,4.3223,4.2753,4.2919,4.4085,4.507,4.5472,4.5849,4.6125,4.6225,4.5949,4.5949,4.625,4.5974,4.5949,4.6301,4.6326,4.6326,4.6326,4.6326,4.605,4.5497,4.5824,4.5748,4.5196,4.5171,4.5095,4.4844,4.4192,4.3564,4.3062,4.2986,4.2986,4.2986,4.2986,4.2986,4.2986,4.2986,4.3011,4.2986,4.2986,4.2986,4.2986,4.2986,4.2986,4.2986,4.2986,4.2986,4.2986,4.2986,4.2986,4.2986,4.2986,4.2986,4.2986,4.2986,4.2986,4.2986,4.2986,4.2986,4.3011,4.3263,4.3338,4.3187,4.3539,4.3966,4.3865,4.3966,4.4292,4.502,4.4945,4.5171,4.5924,4.6326,4.6326,4.6326,4.6326,4.6326,4.6376,4.6753,4.7054,4.7255,4.7933,4.8962,4.9565,5.0017,5.0343,5.067,5.0896,5.1398,3.7059,3.8597,3.9256,3.9325,3.8937,3.8713,3.8671,3.8916,3.8713,3.8908,3.9498,4.0196,4.0189,3.9847,4.0299,4.2013,4.4052,4.3555,4.3407,4.382,4.3986,4.4111,4.4017,4.3653,4.3419,4.319,4.2472,4.2377,4.3311,4.4799,4.5573,4.5773,4.615,4.6326,4.625,4.5949,4.6024,4.6376,4.62,4.6225,4.6552,4.6728,4.6627,4.6426,4.6627,4.6476,4.5799,4.6276,4.6326,4.5849,4.5748,4.5673,4.5422,4.4418,4.3639,4.3288,4.3062,4.3062,4.3212,4.3237,4.3338,4.3514,4.3514,4.3463,4.3288,4.3237,4.3162,4.3037,4.2986,4.2986,4.2986,4.2986,4.2986,4.2986,4.2986,4.2986,4.2986,4.2986,4.2986,4.2986,4.2986,4.2986,4.3011,4.3162,4.3237,4.3237,4.3714,4.3865,4.374,4.4066,4.4618,4.4392,4.4468,4.4895,4.5422,4.5422,4.5397,4.6024,4.6301,4.6326,4.6326,4.6326,4.6326,4.6401,4.6577,4.6878,4.733,4.7983,4.8611,4.9238,4.9665,5.0017,5.0318,5.0619,5.1071,3.6944,3.8242,3.6789,3.6443,3.6714,3.7842,3.7575,3.6674,3.7822,3.7504,3.633,3.5944,3.7225,3.7754,3.7996,3.9677,4.2607,4.2367,4.2207,4.2568,4.3684,4.3811,4.3166,4.307,4.2339,4.1273,4.1841,4.3384,4.5047,4.5529,4.5899,4.6276,4.6376,4.6451,4.6376,4.6351,4.6527,4.6928,4.6979,4.7054,4.7179,4.7531,4.7355,4.6652,4.7355,4.738,4.6426,4.6828,4.6803,4.6326,4.6276,4.605,4.5447,4.4518,4.3865,4.3765,4.3338,4.3338,4.374,4.3815,4.4016,4.4317,4.4518,4.4267,4.389,4.3815,4.3639,4.3288,4.3162,4.3087,4.3062,4.3112,4.3087,4.2986,4.3037,4.3087,4.2986,4.3011,4.3011,4.3087,4.3162,4.3011,4.3137,4.3514,4.379,4.389,4.4267,4.4568,4.4443,4.4669,4.4945,4.5146,4.5171,4.5372,4.5673,4.5924,4.5999,4.615,4.625,4.6326,4.6326,4.6326,4.6326,4.6351,4.6351,4.6652,4.7355,4.7958,4.8385,4.8962,4.9339,4.9741,4.9967,5.0268,5.067,3.6445,3.7208,3.6405,3.6367,3.6777,3.6796,3.6561,3.6406,3.6813,3.6459,3.6091,3.7104,3.7881,3.8319,3.8534,3.9295,4.0585,4.0279,4.1152,4.2715,4.2239,4.248,4.3227,4.3014,4.2891,4.2903,4.4208,4.4793,4.4962,4.5944,4.6878,4.7255,4.7029,4.7079,4.7305,4.6728,4.6577,4.7079,4.7129,4.7129,4.7179,4.7657,4.7732,4.7556,4.8134,4.8134,4.7456,4.723,4.6853,4.6351,4.6326,4.6075,4.5522,4.5146,4.4794,4.4418,4.4217,4.4141,4.4317,4.4367,4.4443,4.4593,4.4644,4.4543,4.4392,4.4367,4.4267,4.4091,4.4091,4.3991,4.3689,4.3915,4.3765,4.3062,4.3313,4.3388,4.3187,4.3338,4.3689,4.4041,4.4116,4.4116,4.4116,4.4317,4.4367,4.4418,4.4844,4.5121,4.4844,4.5296,4.5573,4.5522,4.5598,4.5698,4.5949,4.61,4.615,4.62,4.6276,4.6326,4.6326,4.6326,4.6326,4.6326,4.6326,4.6577,4.728,4.7857,4.8284,4.8862,4.9389,4.9615,4.9665,5.0067,5.0645,3.6269,3.6601,3.6191,3.6309,3.6758,3.623,3.6172,3.6406,3.6328,3.6269,3.6543,3.7481,3.8065,3.8126,3.8371,3.8862,3.9271,3.8883,3.9912,4.204,4.2351,4.2523,4.3171,4.2326,4.2431,4.3194,4.3669,4.4215,4.4777,4.5862,4.6935,4.7633,4.6935,4.691,4.7583,4.6638,4.6142,4.6734,4.7359,4.7084,4.6402,4.7579,4.8058,4.7304,4.8255,4.8636,4.7983,4.7782,4.7405,4.6728,4.6426,4.6125,4.5799,4.5598,4.5321,4.502,4.4769,4.4694,4.4895,4.4945,4.5045,4.5171,4.5246,4.5146,4.502,4.4945,4.4844,4.4392,4.4468,4.4392,4.3991,4.4292,4.4242,4.3714,4.389,4.394,4.3689,4.389,4.4192,4.4493,4.4568,4.4618,4.4618,4.4869,4.492,4.502,4.5422,4.5723,4.5472,4.5849,4.5899,4.5899,4.5999,4.6125,4.625,4.6301,4.6301,4.6301,4.6301,4.6326,4.6326,4.6326,4.6326,4.6326,4.6326,4.6351,4.6928,4.7606,4.8134,4.8786,4.9389,4.9565,4.9741,5.0393,5.0946,3.6309,3.6621,3.625,3.6172,3.6269,3.6152,3.6191,3.6269,3.6543,3.6699,3.6916,3.7151,3.7347,3.7387,3.7547,3.8267,3.9199,3.8267,3.8447,4.0444,4.2102,4.3234,4.2148,4.1595,4.2126,4.2745,4.1727,4.246,4.5066,4.5195,4.6014,4.7455,4.6342,4.6294,4.7431,4.6269,4.5701,4.665,4.772,4.6771,4.4515,4.7433,4.8447,4.6102,4.8194,4.9088,4.8385,4.8435,4.8159,4.723,4.6577,4.6276,4.62,4.5799,4.5573,4.5522,4.502,4.5121,4.5422,4.5522,4.5698,4.6075,4.61,4.61,4.5623,4.5522,4.5221,4.4468,4.4644,4.4618,4.4267,4.4518,4.4769,4.4744,4.4593,4.4543,4.4694,4.4719,4.4769,4.4794,4.4744,4.4744,4.4895,4.5296,4.5472,4.5623,4.5949,4.6075,4.615,4.62,4.6276,4.6301,4.6276,4.6276,4.6326,4.6326,4.6326,4.6376,4.6401,4.6502,4.6401,4.6351,4.6326,4.6326,4.6401,4.6401,4.6728,4.7531,4.8134,4.8686,4.9138,4.9464,4.9992,5.0645,5.1096,3.6738,3.707,3.668,3.6855,3.7285,3.6777,3.6855,3.7344,3.7168,3.7129,3.7168,3.7246,3.7344,3.7344,3.7637,3.8039,3.8303,3.8019,3.8092,3.9109,4.0784,4.1223,4.1342,4.2925,4.3894,4.4179,4.3458,4.4557,4.5586,4.4533,4.5093,4.7051,4.6323,4.6891,4.8476,4.64,4.6384,4.7617,4.7021,4.7199,4.7555,4.854,4.9207,4.8724,4.9207,4.949,4.9113,4.8887,4.8259,4.7205,4.6602,4.6326,4.6351,4.62,4.615,4.61,4.5999,4.5899,4.605,4.61,4.6175,4.6276,4.6326,4.625,4.6125,4.61,4.5924,4.5673,4.5799,4.5598,4.5246,4.5497,4.5773,4.5773,4.5196,4.4995,4.5547,4.5522,4.5397,4.5773,4.5824,4.5773,4.5799,4.5899,4.6075,4.6125,4.6225,4.6426,4.6502,4.6401,4.6451,4.6351,4.6301,4.6301,4.6326,4.6326,4.6351,4.6401,4.6552,4.6778,4.6627,4.6451,4.6376,4.6326,4.6602,4.6677,4.7179,4.7857,4.8309,4.8786,4.9264,4.9741,5.0243,5.082,5.1147,3.707,3.7285,3.7031,3.7109,3.7363,3.707,3.7207,3.7578,3.7598,3.7559,3.7598,3.7773,3.7832,3.7871,3.8086,3.8203,3.8203,3.8203,3.834,3.8602,3.9535,4.0542,4.1878,4.4229,4.4658,4.3691,4.3126,4.3713,4.4867,4.4211,4.5048,4.6452,4.6043,4.6318,4.7417,4.6194,4.5575,4.6968,4.7281,4.7831,4.7305,4.9314,4.9693,4.9587,4.9718,5.0218,4.9916,4.9414,4.8611,4.7657,4.7154,4.6979,4.6979,4.6979,4.6979,4.6979,4.6979,4.6903,4.6677,4.6652,4.6527,4.6376,4.6326,4.6326,4.6301,4.6301,4.6276,4.5924,4.6175,4.5999,4.5698,4.5974,4.6376,4.6476,4.5849,4.5623,4.6276,4.6024,4.5999,4.6225,4.6326,4.6326,4.6326,4.6326,4.6451,4.6577,4.6677,4.6853,4.6979,4.6778,4.6652,4.6652,4.6476,4.6451,4.6552,4.6602,4.6803,4.6853,4.7079,4.7255,4.7179,4.6954,4.6903,4.6928,4.6954,4.7104,4.7657,4.8159,4.8661,4.9138,4.9615,5.0142,5.067,5.1096,5.1398,3.7363,3.7363,3.7363,3.7148,3.6953,3.7207,3.7441,3.7539,3.7851,3.7988,3.8047,3.8398,3.8496,3.8633,3.8516,3.8594,3.8633,3.8535,3.8594,3.8798,3.934,4.0576,4.2646,4.3595,4.3512,4.2343,4.0378,4.1751,4.348,4.3757,4.4658,4.5644,4.5017,4.5242,4.6101,4.5409,4.504,4.6517,4.8439,4.8597,4.7543,4.9572,5.0305,4.9634,5.0489,5.082,5.0393,4.9891,4.9188,4.8134,4.7983,4.7807,4.7832,4.7857,4.7857,4.7782,4.7732,4.7581,4.7305,4.7205,4.7029,4.6702,4.6602,4.6476,4.6602,4.6652,4.6476,4.5999,4.62,4.6351,4.615,4.6301,4.6728,4.7054,4.6728,4.6527,4.6451,4.6426,4.6401,4.6401,4.6426,4.6502,4.6476,4.6502,4.6677,4.7129,4.7205,4.7305,4.7405,4.733,4.723,4.7205,4.6954,4.6602,4.6778,4.6954,4.723,4.7431,4.7757,4.7958,4.8083,4.7933,4.7832,4.7757,4.7506,4.7581,4.8008,4.851,4.8987,4.9515,4.9992,5.0619,5.1197,5.1548,5.1875,3.7793,3.7793,3.7793,3.7734,3.7676,3.7754,3.7988,3.8281,3.8379,3.8398,3.8457,3.8555,3.875,3.9023,3.875,3.875,3.8926,3.875,3.875,3.921,4.0759,4.0711,4.1439,4.2104,4.2538,4.2189,4.2126,4.2272,4.2792,4.2168,4.1917,4.3536,4.4277,4.4607,4.6958,4.6234,4.7121,4.9116,4.9523,4.9523,4.9842,5.0528,5.1239,5.0652,5.108,5.1021,5.0544,5.0293,4.9916,4.9213,4.851,4.8184,4.8058,4.8008,4.8033,4.8033,4.7983,4.7908,4.7757,4.7732,4.7682,4.7506,4.7431,4.7556,4.7556,4.7506,4.728,4.6979,4.7255,4.7355,4.7305,4.7456,4.7581,4.7631,4.7581,4.7481,4.7481,4.7179,4.6979,4.7029,4.7255,4.7556,4.7531,4.7456,4.7556,4.7732,4.7782,4.7807,4.7857,4.7883,4.7807,4.7757,4.7481,4.7179,4.728,4.7506,4.7857,4.8109,4.841,4.8611,4.8711,4.8711,4.8535,4.8234,4.7883,4.8134,4.8661,4.8786,4.9238,4.9816,5.0469,5.1071,5.1649,5.2,5.2251,3.8105,3.7949,3.8144,3.8105,3.7988,3.8144,3.8359,3.8555,3.8574,3.8574,3.8633,3.8769,3.8887,3.8926,3.8867,3.8926,3.8906,3.8926,3.9121,3.9582,4.0552,4.0644,4.0532,4.0843,4.14,4.1583,4.1603,4.203,4.2287,4.2015,4.2522,4.4176,4.4176,4.5489,4.7582,4.7302,4.8216,4.9786,5.0357,5.0789,5.154,5.1925,5.2051,5.2051,5.2026,5.18,5.1297,5.1222,5.0921,5.0393,4.9791,4.9188,4.8786,4.8686,4.8686,4.8686,4.8686,4.8535,4.841,4.8284,4.8184,4.7958,4.7933,4.7908,4.7908,4.7908,4.7807,4.7631,4.7732,4.7983,4.8234,4.7983,4.8008,4.8209,4.8058,4.7933,4.7857,4.7657,4.7506,4.7531,4.7707,4.7807,4.7908,4.8058,4.8184,4.8234,4.8335,4.8385,4.8661,4.8661,4.8385,4.8259,4.7983,4.7832,4.7883,4.8134,4.8535,4.8812,4.9063,4.9188,4.9264,4.9213,4.9138,4.8837,4.8611,4.9038,4.9464,4.954,4.9841,5.077,5.1448,5.1774,5.2076,5.2427,5.2628,3.8359,3.8047,3.8418,3.8398,3.8203,3.8516,3.8691,3.8672,3.8672,3.8672,3.8633,3.8965,3.8887,3.8809,3.8926,3.8867,3.875,3.8906,3.9238,3.9916,3.9955,4.0288,4.0469,4.0739,4.1158,4.0912,4.0912,4.1786,4.2978,4.3173,4.3826,4.5799,4.6279,4.6848,4.7676,4.8542,4.9575,5.0319,5.1495,5.1929,5.2251,5.2603,5.2779,5.2779,5.2754,5.2477,5.2051,5.1925,5.1774,5.1348,5.1272,5.077,5.0142,4.9741,4.9715,4.969,4.954,4.9238,4.8962,4.8862,4.8686,4.8184,4.8209,4.8209,4.8259,4.8309,4.8234,4.8109,4.8159,4.8335,4.8761,4.8611,4.856,4.8711,4.8435,4.8209,4.8159,4.8159,4.8209,4.8083,4.8309,4.8485,4.8435,4.846,4.8611,4.8761,4.8837,4.8987,4.9264,4.9314,4.9012,4.8887,4.8661,4.8586,4.8636,4.8611,4.9038,4.9238,4.9565,4.9715,4.9816,5.0017,4.9967,4.9665,4.9615,4.9992,5.0218,5.0268,5.082,5.185,5.2126,5.2101,5.2427,5.2854,5.2929,3.8535,3.8476,3.8535,3.873,3.8965,3.9062,3.9043,3.9101,3.9023,3.8887,3.8613,3.8652,3.8887,3.8945,3.875,3.8652,3.873,3.8906,3.9258,3.9844,4.0,4.0351,4.0879,4.1266,4.1882,4.2668,4.2342,4.2607,4.3648,4.4058,4.5079,4.6557,4.7018,4.7713,4.9178,4.9866,5.078,5.164,5.2404,5.2703,5.2754,5.2829,5.2929,5.2929,5.2929,5.2678,5.2277,5.2101,5.185,5.1348,5.1297,5.1197,5.0971,5.0594,5.0368,5.0218,4.9967,4.9715,4.959,4.9515,4.9439,4.9339,4.9314,4.9314,4.9314,4.9264,4.9063,4.8812,4.8761,4.8912,4.9389,4.9389,4.9364,4.9414,4.9414,4.9289,4.9264,4.9264,4.9163,4.8962,4.9113,4.9188,4.9012,4.8962,4.9163,4.9264,4.9289,4.949,4.9791,4.9715,4.9464,4.9414,4.9414,4.9389,4.9414,4.9339,4.9464,4.954,4.9816,5.0117,5.0343,5.082,5.082,5.0368,5.0343,5.067,5.0845,5.0971,5.1423,5.2126,5.2251,5.2302,5.2628,5.2929,5.2929,3.8574,3.8574,3.8574,3.8691,3.8848,3.8887,3.8887,3.8867,3.8867,3.8769,3.8691,3.8789,3.8867,3.8965,3.9238,3.9258,3.9219,3.9258,3.9629,4.0156,4.0469,4.0723,4.1443,4.2196,4.3075,4.3945,4.4096,4.4548,4.5574,4.5701,4.6735,4.8049,4.8506,4.9534,5.0998,5.1583,5.1911,5.2792,5.2929,5.2929,5.2929,5.2929,5.2929,5.2929,5.2929,5.2779,5.2628,5.2528,5.2427,5.2201,5.2151,5.2126,5.195,5.1624,5.1147,5.0896,5.0594,5.0444,5.0444,5.0469,5.0469,5.0469,5.0444,5.0469,5.0368,5.0193,4.9891,4.9766,4.9992,5.0167,5.0469,5.0419,5.0343,5.0142,5.0243,5.0268,5.0167,5.0293,5.0142,4.9866,4.969,4.959,4.949,4.954,4.9715,4.9766,4.9766,4.9992,5.0293,5.0017,4.9741,4.9791,4.9766,4.9741,4.9791,4.9841,4.9866,4.9967,5.0193,5.0494,5.0795,5.1272,5.1197,5.0845,5.1021,5.1348,5.1498,5.1649,5.2026,5.2352,5.2503,5.2653,5.2804,5.2929,5.2929,3.8574,3.8574,3.8574,3.8633,3.8691,3.8711,3.873,3.8711,3.873,3.8691,3.8633,3.8867,3.8867,3.8828,3.9219,3.9609,3.9746,3.9687,3.9961,4.0602,4.1337,4.1768,4.233,4.3663,4.5105,4.6146,4.6735,4.7636,4.7613,4.7613,4.8794,4.9985,5.0576,5.1163,5.2466,5.2629,5.2929,5.2929,5.2929,5.2929,5.2929,5.2929,5.2929,5.2929,5.2929,5.2929,5.2854,5.2854,5.2854,5.2829,5.2829,5.2879,5.2854,5.2503,5.2076,5.1674,5.1423,5.1297,5.1247,5.1197,5.1096,5.1071,5.1222,5.1247,5.1147,5.0795,5.0569,5.067,5.0896,5.1122,5.1096,5.1222,5.1021,5.082,5.0921,5.1147,5.0845,5.082,5.0996,5.0695,5.0293,5.0167,5.0218,5.0218,5.0419,5.0469,5.0444,5.0519,5.0695,5.0193,4.9967,5.0042,5.0042,5.0017,5.0067,5.0193,5.0268,5.0393,5.0745,5.1122,5.1373,5.1674,5.1548,5.1574,5.1699,5.1975,5.2151,5.2251,5.2477,5.2678,5.2854,5.2929,5.2929,5.2929,5.2929,3.8574,3.8574,3.8574,3.8789,3.9062,3.9082,3.9101,3.9082,3.9062,3.8906,3.8574,3.8633,3.8652,3.873,3.873,3.9004,3.9277,3.979,4.0164,4.1059,4.2563,4.3544,4.4054,4.5701,4.7321,4.8361,4.9224,4.9677,4.9677,4.9677,5.0551,5.2025,5.2189,5.2629,5.2792,5.2929,5.2929,5.2929,5.2929,5.2929,5.2929,5.2929,5.2929,5.2929,5.2929,5.2929,5.2929,5.2929,5.2929,5.2929,5.2929,5.2929,5.2904,5.2904,5.2829,5.2477,5.195,5.1297,5.1398,5.1473,5.1498,5.1523,5.1448,5.1322,5.1322,5.1373,5.1272,5.1172,5.1348,5.1448,5.1498,5.1373,5.1272,5.1272,5.1373,5.1398,5.1247,5.1498,5.1649,5.1599,5.1222,5.1147,5.1147,5.1122,5.1122,5.1122,5.1147,5.1197,5.1172,5.0795,5.0318,5.0393,5.0519,5.0494,5.0444,5.0569,5.067,5.082,5.1222,5.1649,5.1825,5.2051,5.2503,5.2528,5.2553,5.2402,5.2377,5.2503,5.2779,5.2879,5.2929,5.2929,5.2929,5.2929,5.2929,4.0514,3.8574,3.8574,3.8672,3.8828,3.8848,3.8848,3.8848,3.8848,3.875,3.8594,3.8574,3.8828,3.9141,3.9082,3.9336,4.0105,4.1062,4.1841,4.2549,4.4252,4.5505,4.6249,4.7613,4.9368,5.0103,5.0998,5.1607,5.1607,5.1583,5.2189,5.2629,5.2929,5.2792,5.2929,5.2929,5.2929,5.2929,5.2929,5.2929,5.2929,5.2929,5.2929,5.2929,5.2929,5.2929,5.2929,5.2929,5.2929,5.2929,5.2929,5.2929,5.2929,5.2929,5.2929,5.2879,5.2528,5.2251,5.2251,5.2201,5.2151,5.2176,5.2151,5.2126,5.1925,5.2,5.2,5.1774,5.2051,5.2151,5.2176,5.2201,5.2,5.1925,5.1925,5.185,5.19,5.2151,5.2327,5.2226,5.2151,5.2026,5.185,5.1624,5.1599,5.1674,5.1649,5.1624,5.1774,5.18,5.1272,5.0795,5.0946,5.1071,5.1021,5.1021,5.1071,5.1222,5.1599,5.195,5.2101,5.2402,5.2779,5.2929,5.2804,5.2678,5.2578,5.2678,5.2879,5.2904,5.2929,5.2929,5.2929,5.2929,5.2955,4.2452,3.9962,3.955,3.8991,3.8574,3.8574,3.8594,3.8594,3.8594,3.8594,3.8574,3.8613,3.9062,3.9629,3.9453,3.9889,4.1323,4.2828,4.3785,4.4992,4.6388,4.759,4.8361,4.9677,5.0717,5.0717,5.205,5.2629,5.2792,5.2792,5.2767,5.2929,5.2929,5.2929,5.2929,5.2929,5.2929,5.2929,5.2929,5.2929,5.2929,5.2929,5.2929,5.2929,5.2929,5.2929,5.2929,5.2929,5.2929,5.2929,5.2929,5.2929,5.2929,5.2929,5.2929,5.2929,5.2779,5.2779,5.2779,5.2779,5.2929,5.2929,5.2904,5.2628,5.2427,5.2729,5.2829,5.2327,5.2578,5.2804,5.2904,5.2854,5.2653,5.2528,5.2578,5.2503,5.2452,5.2578,5.2653,5.2603,5.2578,5.2703,5.2452,5.2076,5.2,5.2176,5.2176,5.2101,5.2201,5.2352,5.1925,5.1297,5.1649,5.1724,5.1574,5.1548,5.1548,5.1674,5.2026,5.2277,5.2452,5.2603,5.2854,5.2929,5.2929,5.2879,5.2754,5.2854,5.2929,5.2929,5.2929,5.2929,5.2929,5.2955,5.308,4.3956,4.3565,4.189,4.0228,3.872,3.8574,3.872,3.8846,3.872,3.8594,3.8633,3.8672,3.918,3.9798,4.0077,4.0941,4.3148,4.3425,4.4971,4.6995,4.865,4.9677,5.041,5.1303,5.2491,5.2491,5.2792,5.2792,5.2929,5.2929,5.2929,5.2929,5.2929,5.2929,5.2929,5.2929,5.2929,5.2929,5.2929,5.2929,5.2929,5.2929,5.2929,5.2929,5.2929,5.2929,5.2929,5.2929,5.2929,5.2929,5.2929,5.2929,5.2929,5.2929,5.2929,5.2929,5.2929,5.2929,5.2929,5.2929,5.2929,5.2929,5.2929,5.2904,5.2754,5.2829,5.2854,5.2804,5.2879,5.2904,5.2929,5.2904,5.2829,5.2829,5.2829,5.2779,5.2729,5.2779,5.2854,5.2904,5.2929,5.2929,5.2929,5.2503,5.2377,5.2553,5.2578,5.2503,5.2402,5.2477,5.2176,5.1925,5.2377,5.2427,5.2176,5.2151,5.2251,5.2302,5.2528,5.2678,5.2804,5.2929,5.2929,5.2929,5.2929,5.2929,5.2929,5.2929,5.2929,5.2929,5.2929,5.298,5.3055,5.313,5.3381,4.6822,4.5727,4.5027,4.2966,4.0228,4.0228,4.0228,4.0105,3.9136,3.873,3.8965,3.9277,3.9707,4.0361,4.1623,4.2472,4.4209,4.676,4.7767,4.9154,5.0717,5.1607,5.2189,5.2327,5.2929,5.2929,5.2929,5.2929,5.2929,5.2929,5.2929,5.2929,5.2929,5.2929,5.2929,5.2929,5.2929,5.2929,5.2929,5.2929,5.2929,5.2929,5.2929,5.2929,5.2929,5.2929,5.2929,5.2929,5.2929,5.2929,5.2929,5.2929,5.2929,5.2929,5.2929,5.2929,5.2929,5.2929,5.2929,5.2929,5.2929,5.2929,5.2929,5.2929,5.2929,5.2929,5.2929,5.2929,5.2929,5.2929,5.2929,5.2929,5.2904,5.2929,5.2929,5.2929,5.2929,5.2929,5.2929,5.2929,5.2929,5.2929,5.2929,5.2879,5.2854,5.2879,5.2879,5.2854,5.2754,5.2678,5.2427,5.2302,5.2678,5.2829,5.2578,5.2729,5.2929,5.2929,5.2929,5.2929,5.2929,5.2929,5.2929,5.2929,5.3005,5.3055,5.3055,5.2955,5.298,5.3055,5.308,5.308,5.3181,5.3381,5.3733,4.8763,4.7641,4.7641,4.5457,4.2312,4.2171,4.2171,4.1749,4.0228,3.9645,4.0065,4.0424,4.1312,4.2426,4.3552,4.5075,4.6433,4.846,4.9961,5.1163,5.205,5.2792,5.2929,5.2929,5.2929,5.2929,5.2929,5.2929,5.2929,5.2929,5.2929,5.2929,5.2929,5.2929,5.2929,5.2929,5.2929,5.2929,5.2929,5.2929,5.2929,5.2929,5.2929,5.2929,5.2929,5.2929,5.2929,5.2929,5.2929,5.2929,5.2929,5.2929,5.2929,5.2929,5.2929,5.2929,5.2929,5.2929,5.2929,5.2929,5.2929,5.2929,5.2929,5.2929,5.2929,5.2929,5.2929,5.2929,5.2929,5.2929,5.2929,5.2929,5.2929,5.2929,5.2929,5.2929,5.2929,5.2929,5.2929,5.2929,5.2929,5.2929,5.2929,5.2929,5.2955,5.2955,5.2929,5.2904,5.2879,5.2829,5.2804,5.2754,5.2854,5.2904,5.2904,5.2929,5.2929,5.2929,5.2929,5.2929,5.2929,5.2955,5.3105,5.3256,5.3306,5.3281,5.3432,5.3632,5.3457,5.3231,5.3406,5.3683,5.3758,5.4009,5.4285,4.9565,4.959,4.9436,4.7377,4.4368,4.4116,4.4094,4.3841,4.2355,4.162,4.2018,4.2144,4.3499,4.5288,4.5878,4.7159,4.8844,4.9819,5.0998,5.2327,5.2629,5.2929,5.2929,5.2929,5.2929,5.2929,5.2929,5.2929,5.2929,5.2929,5.2929,5.2929,5.2929,5.2929,5.2929,5.2929,5.2929,5.2929,5.2929,5.3005,5.2929,5.298,5.3055,5.2929,5.2929,5.2929,5.2929,5.2929,5.2929,5.2929,5.2929,5.2929,5.2929,5.2929,5.2929,5.2929,5.2929,5.2929,5.2929,5.2929,5.2929,5.2929,5.2929,5.2929,5.2929,5.2929,5.2929,5.2929,5.2929,5.2929,5.2929,5.2929,5.2929,5.2929,5.2929,5.2929,5.2929,5.2929,5.2929,5.2929,5.2929,5.2929,5.2929,5.2929,5.298,5.2955,5.2929,5.2929,5.2955,5.2929,5.2929,5.2929,5.2929,5.2929,5.2929,5.2929,5.2929,5.2929,5.3005,5.3105,5.3105,5.313,5.3306,5.3557,5.3582,5.3507,5.3984,5.4486,5.4235,5.4059,5.426,5.4486,5.4536,5.4787,5.5214,4.9038,4.9088,4.9439,4.8893,4.7665,4.6422,4.5862,4.5797,4.553,4.4815,4.4035,4.4157,4.4782,4.6276,4.7813,4.8921,5.0055,5.1607,5.2629,5.2767,5.2929,5.2929,5.2929,5.2929,5.2929,5.2929,5.2929,5.2929,5.2929,5.2929,5.2929,5.2929,5.2929,5.2929,5.2929,5.2929,5.2929,5.3005,5.3181,5.3306,5.3005,5.3206,5.3256,5.2955,5.2929,5.2929,5.2929,5.2929,5.2929,5.2929,5.2929,5.2929,5.2929,5.2929,5.2929,5.2929,5.2929,5.2929,5.2929,5.2929,5.2929,5.2929,5.2929,5.2929,5.2929,5.2929,5.2929,5.2929,5.2929,5.2929,5.2929,5.2929,5.2929,5.2929,5.2929,5.2929,5.2929,5.2929,5.2929,5.2929,5.2929,5.303,5.3055,5.3281,5.3331,5.3331,5.3331,5.3105,5.303,5.2955,5.2929,5.2929,5.2929,5.2929,5.2929,5.303,5.3181,5.3306,5.3406,5.3482,5.3457,5.3457,5.3457,5.3632,5.3708,5.3783,5.4436,5.4963,5.5013,5.5013,5.529,5.544,5.5516,5.5942,5.657,4.8786,4.8837,4.9364,4.959,4.9461,4.8347,4.7509,4.7003,4.7068,4.6604,4.6012,4.6332,4.7258,4.8381,4.9695,5.0586,5.1163,5.2189,5.2929,5.2929,5.2929,5.2929,5.2929,5.2929,5.2929,5.2929,5.2929,5.2929,5.2929,5.2929,5.2929,5.2929,5.2929,5.2929,5.2929,5.2929,5.2929,5.3005,5.3155,5.3206,5.308,5.313,5.3231,5.303,5.2929,5.2929,5.2929,5.2929,5.2929,5.2929,5.2929,5.2929,5.2929,5.2929,5.2929,5.2929,5.2929,5.2929,5.2929,5.2929,5.2929,5.2929,5.2929,5.2929,5.2929,5.2929,5.2929,5.2929,5.2955,5.298,5.298,5.298,5.308,5.308,5.308,5.308,5.3206,5.3206,5.303,5.303,5.3206,5.3231,5.3381,5.3582,5.3808,5.3758,5.3733,5.3482,5.3206,5.308,5.3055,5.3105,5.3105,5.3155,5.3181,5.3206,5.3406,5.3658,5.3783,5.3884,5.4009,5.4009,5.3858,5.3833,5.426,5.4662,5.5089,5.544,5.5842,5.6168,5.642,5.652,5.652,5.6972,5.7575,4.8736,4.8837,4.9364,4.959,4.959,4.9461,4.8477,4.6955,4.6955,4.7289,4.779,4.8267,4.9479,5.1532,5.2466,5.2554,5.2629,5.2792,5.2929,5.2929,5.2929,5.2929,5.2929,5.2929,5.2929,5.2929,5.2929,5.2929,5.2929,5.2929,5.2929,5.2929,5.2929,5.2929,5.2929,5.2929,5.2929,5.298,5.313,5.313,5.303,5.3055,5.3105,5.298,5.2929,5.2929,5.2929,5.2929,5.2929,5.2929,5.2929,5.2929,5.2929,5.2929,5.2929,5.2929,5.2929,5.2929,5.2929,5.2929,5.2929,5.2929,5.2929,5.2929,5.2929,5.2929,5.3005,5.3055,5.313,5.3105,5.3105,5.3256,5.3381,5.3356,5.3356,5.3457,5.3607,5.3532,5.3281,5.3331,5.3582,5.3783,5.411,5.431,5.426,5.4361,5.4336,5.4185,5.3858,5.3281,5.3281,5.3406,5.3406,5.3432,5.3482,5.3607,5.3909,5.426,5.4185,5.426,5.4411,5.4587,5.4461,5.4561,5.5114,5.5616,5.6168,5.662,5.7047,5.7298,5.7349,5.7449,5.7424,5.775,5.8227,4.8159,4.8259,4.9188,4.959,4.959,4.959,4.9307,4.8893,4.8763,4.9059,4.9578,4.9727,5.0663,5.2101,5.2277,5.2578,5.2804,5.2929,5.2929,5.2929,5.2929,5.2929,5.2929,5.2929,5.2929,5.2929,5.2929,5.2929,5.2929,5.2929,5.2929,5.2929,5.2929,5.2929,5.2929,5.2929,5.2955,5.3055,5.3256,5.3181,5.313,5.3231,5.3155,5.303,5.298,5.298,5.2929,5.298,5.298,5.2929,5.2929,5.2929,5.2929,5.2929,5.2929,5.2929,5.2929,5.2929,5.2929,5.2929,5.2955,5.298,5.2955,5.2929,5.2929,5.3005,5.313,5.3256,5.3457,5.3557,5.3708,5.3858,5.3984,5.4034,5.4009,5.4009,5.416,5.4059,5.3858,5.4009,5.426,5.4411,5.4737,5.4762,5.4737,5.4888,5.4938,5.4838,5.4511,5.3934,5.3632,5.3758,5.3884,5.3934,5.411,5.426,5.4561,5.4813,5.4712,5.4762,5.5114,5.5214,5.5064,5.534,5.5942,5.6646,5.7374,5.77,5.7801,5.7926,5.7976,5.8177,5.8353,5.8629,5.8805,4.7732,4.8033,4.8887,4.9389,4.959,4.959,4.959,4.959,4.959,4.9891,5.0368,5.0287,5.1046,5.1975,5.2151,5.2402,5.2904,5.2929,5.2929,5.2929,5.2929,5.2929,5.2929,5.2929,5.2929,5.2929,5.2929,5.2929,5.2929,5.2929,5.2929,5.2929,5.2929,5.2929,5.2929,5.2955,5.308,5.3281,5.3432,5.3331,5.3331,5.3406,5.3306,5.308,5.308,5.313,5.3005,5.3055,5.313,5.298,5.2929,5.2929,5.2929,5.2929,5.2929,5.2929,5.2929,5.308,5.3181,5.303,5.308,5.313,5.308,5.308,5.3206,5.3331,5.3457,5.3582,5.3884,5.416,5.4361,5.4587,5.4712,5.4863,5.4762,5.4662,5.4662,5.4637,5.4712,5.4838,5.4938,5.5064,5.5139,5.5164,5.5265,5.5491,5.5616,5.5566,5.5189,5.4587,5.4285,5.4235,5.4386,5.4511,5.4687,5.4838,5.5039,5.5189,5.5139,5.529,5.5742,5.6093,5.6143,5.642,5.6821,5.7499,5.8152,5.8227,5.8303,5.8478,5.8654,5.8805,5.8981,5.9182,5.9357,4.7405,4.7883,4.851,4.9063,4.9515,4.9565,4.959,4.959,4.959,4.9916,5.0343,5.0419,5.1046,5.195,5.2126,5.2427,5.2779,5.2929,5.2929,5.2929,5.2929,5.2929,5.2929,5.2929,5.2929,5.2929,5.2929,5.2929,5.2929,5.2929,5.2929,5.2929,5.2929,5.2929,5.2929,5.308,5.3206,5.3331,5.3607,5.3658,5.3381,5.3406,5.3532,5.313,5.3331,5.3582,5.3281,5.3281,5.3482,5.3155,5.2929,5.2929,5.2929,5.2929,5.2929,5.3005,5.303,5.3281,5.3457,5.3406,5.3507,5.3507,5.3356,5.3482,5.3683,5.3582,5.3632,5.4135,5.4511,5.4787,5.5039,5.5139,5.5265,5.544,5.5465,5.5516,5.5616,5.5591,5.5566,5.5616,5.5541,5.5666,5.5968,5.6018,5.6018,5.6194,5.6244,5.6219,5.5842,5.5265,5.5089,5.4888,5.4838,5.4988,5.5164,5.529,5.5415,5.5516,5.5566,5.5892,5.6369,5.6821,5.7298,5.7499,5.77,5.8227,5.873,5.878,5.893,5.9232,5.9382,5.9458,5.9608,5.9834,5.996,4.7205,4.7405,4.836,4.8862,4.9012,4.9414,4.959,4.959,4.959,4.9891,5.0343,5.0469,5.1021,5.1925,5.2026,5.2352,5.2829,5.2929,5.2929,5.2929,5.2929,5.2929,5.2929,5.2929,5.2929,5.2929,5.2929,5.2929,5.2929,5.2929,5.2929,5.2929,5.2929,5.2929,5.2955,5.3155,5.3356,5.3381,5.3884,5.3984,5.3683,5.3858,5.4009,5.3632,5.3658,5.3984,5.3783,5.3607,5.3658,5.3507,5.3105,5.2955,5.2929,5.2955,5.2955,5.3005,5.3356,5.3632,5.3808,5.3959,5.4135,5.4235,5.421,5.426,5.4185,5.3884,5.4034,5.4662,5.5139,5.5415,5.5666,5.5742,5.5867,5.6043,5.6219,5.6394,5.6595,5.652,5.6445,5.6344,5.6219,5.6394,5.6721,5.6846,5.6846,5.6846,5.6821,5.6746,5.6445,5.5993,5.6043,5.5817,5.534,5.5415,5.5616,5.5842,5.6018,5.6118,5.6194,5.657,5.6997,5.7524,5.8027,5.8303,5.8604,5.9006,5.9257,5.9307,5.9508,5.9885,6.001,6.0035,6.0311,6.0563,6.0638,4.6903,4.7255,4.8309,4.8786,4.8862,4.9364,4.959,4.959,4.959,4.9766,5.0017,5.0142,5.0695,5.1624,5.1724,5.2277,5.2804,5.2929,5.2929,5.2929,5.2929,5.2929,5.2929,5.2929,5.2929,5.2929,5.2929,5.2929,5.2929,5.2929,5.2929,5.2929,5.2929,5.2955,5.298,5.3231,5.3406,5.3356,5.416,5.431,5.4084,5.431,5.4361,5.4034,5.426,5.4511,5.4285,5.4084,5.4084,5.4059,5.3833,5.3507,5.3507,5.3607,5.3683,5.3758,5.3959,5.4185,5.4386,5.4536,5.4737,5.4838,5.4637,5.4511,5.4888,5.4662,5.4662,5.5239,5.5616,5.5892,5.6294,5.6495,5.6771,5.6972,5.7097,5.7248,5.7323,5.7298,5.7248,5.7223,5.7148,5.7173,5.7399,5.7424,5.7424,5.7424,5.7424,5.7374,5.7047,5.6721,5.6796,5.6696,5.6194,5.6093,5.6369,5.657,5.6696,5.6771,5.6821,5.7323,5.7826,5.8303,5.8755,5.8981,5.9257,5.9583,5.9784,5.991,6.0211,6.0613,6.0613,6.0588,6.0939,6.1291,6.1391,4.6602,4.7154,4.8109,4.856,4.8661,4.9238,4.9464,4.949,4.9565,4.959,4.964,4.964,5.0293,5.0971,5.1423,5.2126,5.2653,5.2879,5.2929,5.2929,5.2929,5.2929,5.2929,5.2929,5.2929,5.2929,5.2929,5.2929,5.2929,5.2929,5.2929,5.2929,5.298,5.3005,5.298,5.3155,5.3432,5.3683,5.4185,5.4561,5.4637,5.4712,5.4662,5.4838,5.5089,5.5139,5.4863,5.4662,5.4662,5.4561,5.4486,5.416,5.4034,5.4135,5.4285,5.4386,5.4536,5.4838,5.5089,5.5039,5.5214,5.5239,5.4913,5.4988,5.539,5.5491,5.5491,5.5691,5.6068,5.6319,5.6721,5.7072,5.7374,5.7675,5.7801,5.8052,5.8077,5.8027,5.8001,5.7976,5.7926,5.7901,5.7976,5.8001,5.8001,5.8001,5.7976,5.7926,5.7801,5.7524,5.7399,5.7298,5.6972,5.6997,5.7123,5.7198,5.7298,5.7374,5.7474,5.8077,5.8604,5.9031,5.9382,5.9608,5.991,6.0236,6.0462,6.0638,6.0964,6.124,6.1014,6.0989,6.1642,6.1969,6.2169,4.6376,4.6527,4.7179,4.7456,4.7631,4.851,4.8937,4.9012,4.9439,4.959,4.9615,4.969,5.0218,5.1297,5.1774,5.2352,5.2804,5.2929,5.2929,5.2929,5.2929,5.2929,5.2929,5.2929,5.2929,5.2929,5.2929,5.2929,5.2929,5.2929,5.2929,5.2929,5.3406,5.3381,5.313,5.3457,5.4009,5.4135,5.4361,5.4787,5.529,5.5315,5.5239,5.5365,5.5516,5.5516,5.539,5.5239,5.5214,5.5114,5.4888,5.4637,5.4561,5.4612,5.4762,5.4913,5.5064,5.534,5.5516,5.5717,5.5917,5.5968,5.5767,5.5817,5.6043,5.6068,5.6093,5.6168,5.642,5.6394,5.6721,5.7022,5.7349,5.7725,5.7951,5.8554,5.8905,5.8704,5.8554,5.8403,5.8252,5.8378,5.8554,5.8554,5.8554,5.8554,5.8554,5.8478,5.8227,5.8077,5.8001,5.7876,5.775,5.7675,5.7725,5.7725,5.7801,5.7901,5.8102,5.8629,5.9156,5.9684,6.001,6.0211,6.0563,6.0939,6.114,6.1291,6.1517,6.1692,6.1316,6.1366,6.2069,6.2471,6.2521]},{"header":{"parameterUnit":"m.s-1","parameterCategory":1,"la1":31.0,"la2":29.5877,"lo1":-88.7671,"lo2":-86.6584,"dx":0.0162,"dy":0.0185,"nx":115,"ny":88,"refTime":"2023-02-10T06:00:00:Z","depth":0,"parameterNumber":3,"parameterNumberName":"V-component_of_WINDS"},"data":[0.0,0.0,0.0,0.0,0.0,0.0,0.0,0.0,0.0,0.0,0.0,0.0,0.0,0.0,0.0,0.0,0.0,0.0,0.0,0.0,0.0,0.0,0.0,0.0,0.0,0.0,0.0,0.0,0.0,0.0,0.0,0.0,0.0,0.0,0.0,0.0,0.0,0.0,0.0,0.0,0.0,0.0,0.0,0.0,0.0,0.0,0.0,0.0,0.0,0.0,0.0,0.0,0.0,0.0,0.0,0.0,0.0,0.0,0.0,0.0,0.0,0.0,0.0,0.0,0.0,0.0,0.0,0.0,0.0,0.0,0.0,0.0,0.0,0.0,0.0,0.0,0.0,0.0,0.0,0.0,0.0,0.0,0.0,0.0,0.0,0.0,0.0,0.0,0.0,0.0,0.0,0.0,0.0,0.0,0.0,0.0,0.0,0.0,0.0,0.0,0.0,0.0,0.0,0.0,0.0,0.0,0.0,0.0,0.0,0.0,0.0,0.0,0.0,0.0,0.0,0.0,0.0,0.0,0.0,0.0,0.0,0.0,0.0,0.0,0.0,0.0,0.0,0.0,0.0,0.0,0.0,0.0,0.0,0.0,0.0,0.0,0.0,0.0,0.0,0.0,0.0,0.0,0.0,0.0,0.0,0.0,0.0,0.0,0.0,0.0,0.0,0.0,0.0,0.0,0.0,0.0,0.0,0.0,0.0,0.0,0.0,0.0,0.0,0.0,0.0,0.0,0.0,0.0,0.0,0.0,0.0,0.0,0.0,0.0,0.0,0.0,0.0,0.0,0.0,0.0,0.0,0.0,0.0,0.0,0.0,0.0,0.0,0.0,0.0,0.0,0.0,0.0,0.0,0.0,0.0,0.0,0.0,0.0,0.0,0.0,0.0,0.0,0.0,0.0,0.0,0.0,0.0,0.0,0.0,0.0,0.0,0.0,0.0,0.0,0.0,0.0,0.0,0.0,0.0,0.0,0.0,0.0,0.0,0.0,0.0,0.0,0.0,0.0,0.0,0.0,0.0,0.0,0.0,0.0,0.0,0.0,0.0,0.0,0.0,0.0,0.0,0.0,0.0,0.0,0.0,0.0,0.0,0.0,0.0,0.0,0.0,0.0,0.0,0.0,0.0,0.0,0.0,0.0,0.0,0.0,0.0,0.0,0.0,0.0,0.0,0.0,0.0,0.0,0.0,0.0,0.0,0.0,0.0,0.0,0.0,0.0,0.0,0.0,0.0,0.0,0.0,0.0,0.0,0.0,0.0,0.0,0.0,0.0,0.0,0.0,0.0,0.0,0.0,0.0,0.0,0.0,0.0,0.0,0.0,0.0,0.0,0.0,0.0,0.0,0.0,0.0,0.0,0.0,0.0,0.0,0.0,0.0,0.0,0.0,0.0,0.0,0.0,0.0,0.0,0.0,0.0,0.0,0.0,0.0,0.0,0.0,0.0,0.0,0.0,0.0,0.0,0.0,0.0,0.0,0.0,0.0,0.0,0.0,0.0,0.0,0.0,0.0,0.0,0.0,0.0,0.0,0.0,0.0,0.0,0.0,0.0,0.0,0.0,0.0,0.0,0.0,0.0,0.0,0.0,0.0,0.0,0.0,0.0,0.0,0.0,0.0,0.0,0.0,0.0,0.0,0.0,0.0,0.0,0.0,0.0,0.0,0.0,0.0,0.0,0.0,0.0,0.0,0.0,0.0,0.0,0.0,0.0,0.0,0.0,0.0,0.0,0.0,0.0,0.0,0.0,0.0,0.0,0.0,0.0,0.0,0.0,0.0,0.0,0.0,0.0,0.0,0.0,0.0,0.0,0.0,0.0,0.0,0.0,0.0,0.0,0.0,0.0,0.0,0.0,0.0,0.0,0.0,0.0,0.0,0.0,0.0,0.0,0.0,0.0,0.0,0.0,0.0,0.0,0.0,0.0,0.0,0.0,0.0,0.0,0.0,0.0,0.0,0.0,0.0,0.0,0.0,0.0,0.0,0.0,0.0,0.0,0.0,0.0,0.0,0.0,0.0,0.0,0.0,0.0,0.0,0.0,0.0,0.0,0.0,0.0,0.0,0.0,0.0,0.0,0.0,0.0,0.0,0.0,0.0,0.0,0.0,0.0,0.0,0.0,0.0,0.0,0.0,0.0,0.0,0.0,0.0,0.0,0.0,0.0,0.0,0.0,0.0,0.0,0.0,0.0,0.0,0.0,0.0,0.0,0.0,0.0,0.0,0.0,0.0,0.0,0.0,0.0,0.0,0.0,0.0,0.0,0.0,0.0,0.0,0.0,0.0,0.0,0.0,0.0,0.0,0.0,0.0,0.0,0.0,0.0,0.0,0.0,0.0,0.0,0.0,0.0,0.0,0.0,0.0,0.0,0.0,0.0,0.0,0.0,0.0,0.0,0.0,0.0,0.0,0.0,0.0,0.0,0.0,0.0,0.0,0.0,0.0,0.0,0.0,0.0,0.0,0.0,0.0,0.0,0.0,0.0,0.0,0.0,0.0,0.0,0.0,0.0,0.0,0.0,0.0,0.0,0.0,0.0,0.0,0.0,0.0,0.0,0.0,0.0,0.0,0.0,0.0,0.0,0.0,0.0,0.0,0.0,0.0,0.0,0.0,0.0,0.0,0.0,0.0,0.0,0.0,0.0,0.0,0.0,0.0,0.0,0.0,0.0,0.0,0.0,0.0,0.0,0.0,0.0,0.0,0.0,0.0,0.0,0.0,0.0,0.0,0.0,0.0,0.0,0.0,0.0,0.0,0.0,0.0,0.0,0.0,0.0,0.0,0.0,0.0,0.0,0.0,0.0,0.0,0.0,0.0,0.0,0.0,0.0,0.0,0.0,0.0,0.0,0.0,0.0,0.0,0.0,0.0,0.0,0.0,0.0,0.0,0.0,0.0,0.0,0.0,0.0,0.0,0.0,0.0,0.0,0.0,0.0,0.0,0.0,0.0,0.0,0.0,0.0,0.0,0.0,0.0,0.0,0.0,0.0,0.0,0.0,0.0,0.0,0.0,0.0,0.0,0.0,0.0,0.0,0.0,0.0,0.0,0.0,0.0,0.0,0.0,0.0,0.0,0.0,0.0,0.0,0.0,0.0,0.0,0.0,0.0,0.0,0.0,0.0,0.0,0.0,0.0,0.0,0.0,0.0,0.0,0.0,0.0,0.0,0.0,0.0,0.0,0.0,0.0,0.0,0.0,0.0,0.0,0.0,0.0,0.0,0.0,0.0,0.0,0.0,0.0,0.0,0.0,0.0,0.0,0.0,0.0,0.0,0.0,0.0,0.0,0.0,0.0,0.0,0.0,0.0,0.0,0.0,0.0,0.0,0.0,0.0,0.0,0.0,0.0,0.0,0.0,0.0,0.0,0.0,0.0,0.0,0.0,0.0,0.0,0.0,0.0,0.0,0.0,0.0,0.0,0.0,0.0,0.0,0.0,0.0,0.0,0.0,0.0,0.0,0.0,0.0,0.0,0.0,0.0,0.0,0.0,0.0,0.0,0.0,0.0,0.0,0.0,0.0,0.0,0.0,0.0,0.0,0.0,0.0,0.0,0.0,0.0,0.0,0.0,0.0,0.0,0.0,0.0,0.0,0.0,0.0,0.0,0.0,0.0,0.0,0.0,0.0,0.0,0.0,0.0,0.0,0.0,0.0,0.0,0.0,0.0,0.0,0.0,0.0,0.0,0.0,0.0,0.0,0.0,0.0,0.0,0.0,0.0,0.0,0.0,0.0,0.0,0.0,0.0,0.0,0.0,0.0,0.0,0.0,0.0,0.0,0.0,0.0,0.0,0.0,0.0,0.0,0.0,0.0,0.0,0.0,0.0,0.0,0.0,0.0,0.0,0.0,0.0,0.0,0.0,0.0,0.0,0.0,0.0,0.0,0.0,0.0,0.0,0.0,0.0,0.0,0.0,0.0,0.0,0.0,0.0,0.0,0.0,0.0,0.0,0.0,0.0,0.0,0.0,0.0,0.0,0.0,0.0,0.0,0.0,0.0,0.0,0.0,0.0,0.0,0.0,0.0,0.0,0.0,0.0,0.0,0.0,0.0,0.0,0.0,0.0,0.0,0.0,0.0,0.0,0.0,0.0,0.0,0.0,0.0,0.0,0.0,0.0,0.0,0.0,0.0,0.0,0.0,0.0,0.0,0.0,0.0,0.0,0.0,0.0,0.0,0.0,0.0,0.0,0.0,0.0,0.0,0.0,0.0,0.0,0.0,0.0,0.0,0.0,0.0,0.0,0.0,0.0,0.0,0.0,0.0,0.0,0.0,0.0,-3.6508,0.0,0.0,0.0,0.0,0.0,0.0,0.0,0.0,0.0,0.0,0.0,0.0,0.0,0.0,0.0,0.0,0.0,0.0,0.0,0.0,0.0,0.0,0.0,0.0,0.0,0.0,0.0,0.0,0.0,0.0,0.0,0.0,0.0,0.0,0.0,0.0,0.0,0.0,0.0,0.0,0.0,0.0,0.0,0.0,0.0,0.0,0.0,0.0,0.0,0.0,0.0,0.0,0.0,0.0,0.0,0.0,0.0,0.0,0.0,0.0,0.0,0.0,0.0,0.0,0.0,0.0,0.0,0.0,0.0,0.0,0.0,0.0,0.0,0.0,0.0,0.0,0.0,0.0,0.0,0.0,0.0,0.0,0.0,0.0,0.0,0.0,0.0,0.0,0.0,0.0,0.0,0.0,0.0,0.0,0.0,0.0,0.0,0.0,0.0,0.0,0.0,0.0,0.0,0.0,0.0,0.0,0.0,0.0,0.0,0.0,-3.6985,-3.6734,-3.6734,-3.6609,-3.6383,0.0,0.0,0.0,0.0,0.0,0.0,0.0,0.0,0.0,0.0,0.0,0.0,0.0,0.0,0.0,0.0,0.0,0.0,0.0,0.0,0.0,0.0,0.0,0.0,0.0,0.0,0.0,0.0,0.0,0.0,0.0,0.0,0.0,0.0,0.0,0.0,0.0,0.0,0.0,0.0,0.0,0.0,0.0,0.0,0.0,0.0,0.0,0.0,0.0,0.0,0.0,0.0,0.0,0.0,0.0,0.0,0.0,0.0,0.0,0.0,0.0,0.0,0.0,0.0,0.0,0.0,0.0,0.0,0.0,0.0,0.0,0.0,0.0,0.0,0.0,0.0,0.0,0.0,0.0,0.0,0.0,0.0,0.0,0.0,0.0,0.0,0.0,0.0,0.0,0.0,0.0,0.0,0.0,0.0,0.0,0.0,0.0,0.0,0.0,0.0,0.0,0.0,0.0,0.0,0.0,0.0,0.0,0.0,0.0,0.0,0.0,0.0,-3.6558,-3.6558,-3.6533,0.0,0.0,0.0,0.0,0.0,0.0,0.0,0.0,0.0,0.0,0.0,0.0,0.0,0.0,0.0,0.0,0.0,0.0,0.0,0.0,0.0,0.0,0.0,0.0,0.0,0.0,0.0,0.0,0.0,0.0,0.0,0.0,0.0,0.0,0.0,0.0,0.0,0.0,0.0,0.0,0.0,0.0,0.0,0.0,0.0,0.0,0.0,0.0,0.0,0.0,0.0,0.0,0.0,0.0,0.0,0.0,0.0,0.0,0.0,0.0,0.0,0.0,0.0,0.0,0.0,0.0,0.0,0.0,0.0,0.0,0.0,0.0,0.0,0.0,0.0,0.0,0.0,0.0,0.0,0.0,0.0,0.0,0.0,0.0,0.0,0.0,0.0,0.0,0.0,0.0,0.0,0.0,0.0,0.0,0.0,0.0,0.0,0.0,0.0,0.0,0.0,0.0,0.0,0.0,0.0,0.0,0.0,0.0,0.0,0.0,-3.6584,-3.7086,-3.7111,0.0,-3.7086,0.0,0.0,0.0,0.0,0.0,0.0,0.0,0.0,0.0,0.0,0.0,0.0,0.0,0.0,0.0,0.0,0.0,0.0,0.0,0.0,0.0,0.0,0.0,0.0,0.0,0.0,0.0,0.0,0.0,0.0,0.0,0.0,0.0,0.0,0.0,0.0,0.0,0.0,0.0,0.0,0.0,0.0,0.0,0.0,0.0,0.0,0.0,0.0,0.0,0.0,0.0,0.0,0.0,0.0,0.0,0.0,0.0,0.0,0.0,0.0,0.0,0.0,0.0,0.0,0.0,0.0,0.0,0.0,0.0,0.0,0.0,0.0,0.0,0.0,0.0,0.0,0.0,0.0,0.0,0.0,0.0,0.0,0.0,0.0,0.0,0.0,0.0,0.0,0.0,0.0,0.0,0.0,0.0,0.0,0.0,0.0,0.0,0.0,0.0,0.0,0.0,0.0,0.0,0.0,0.0,0.0,0.0,0.0,0.0,0.0,-3.6609,-3.7161,-3.7186,-3.7036,0.0,0.0,0.0,0.0,0.0,0.0,0.0,0.0,0.0,0.0,0.0,0.0,0.0,0.0,0.0,0.0,0.0,0.0,0.0,0.0,0.0,0.0,0.0,0.0,0.0,0.0,0.0,0.0,0.0,0.0,0.0,0.0,0.0,0.0,0.0,0.0,0.0,0.0,0.0,0.0,0.0,0.0,0.0,0.0,0.0,0.0,0.0,0.0,0.0,0.0,0.0,0.0,0.0,0.0,0.0,0.0,0.0,0.0,0.0,0.0,0.0,0.0,0.0,0.0,0.0,0.0,0.0,0.0,0.0,0.0,0.0,0.0,0.0,0.0,0.0,0.0,0.0,0.0,0.0,0.0,0.0,0.0,0.0,0.0,0.0,0.0,0.0,0.0,0.0,0.0,0.0,0.0,0.0,0.0,0.0,0.0,0.0,0.0,0.0,0.0,0.0,0.0,0.0,0.0,0.0,0.0,0.0,0.0,0.0,0.0,-3.6659,-3.6784,-3.7161,-3.7036,-3.6759,-3.6383,0.0,0.0,0.0,0.0,0.0,0.0,0.0,0.0,0.0,0.0,0.0,0.0,0.0,0.0,0.0,0.0,0.0,0.0,0.0,0.0,0.0,0.0,0.0,0.0,0.0,0.0,0.0,0.0,0.0,0.0,0.0,0.0,0.0,0.0,0.0,0.0,0.0,0.0,0.0,0.0,0.0,0.0,0.0,0.0,0.0,0.0,0.0,0.0,0.0,0.0,0.0,0.0,0.0,0.0,0.0,0.0,0.0,0.0,0.0,0.0,0.0,0.0,0.0,0.0,0.0,0.0,0.0,0.0,0.0,0.0,0.0,0.0,0.0,0.0,0.0,0.0,0.0,0.0,0.0,0.0,0.0,0.0,0.0,0.0,0.0,0.0,0.0,0.0,0.0,0.0,0.0,0.0,0.0,0.0,0.0,0.0,0.0,0.0,0.0,0.0,0.0,0.0,0.0,0.0,0.0,0.0,0.0,0.0,-3.7814,-3.7387,-3.7136,-3.7161,-3.6659,-3.6383,0.0,0.0,0.0,0.0,0.0,0.0,0.0,0.0,0.0,0.0,0.0,0.0,0.0,0.0,0.0,0.0,0.0,0.0,0.0,0.0,0.0,0.0,0.0,0.0,0.0,0.0,0.0,0.0,0.0,0.0,0.0,0.0,0.0,0.0,0.0,0.0,0.0,0.0,0.0,0.0,0.0,0.0,0.0,0.0,0.0,0.0,0.0,0.0,0.0,0.0,0.0,0.0,0.0,0.0,0.0,0.0,0.0,0.0,0.0,0.0,0.0,0.0,0.0,0.0,0.0,0.0,0.0,0.0,0.0,0.0,0.0,0.0,0.0,0.0,0.0,0.0,0.0,0.0,0.0,0.0,0.0,0.0,0.0,0.0,0.0,0.0,0.0,0.0,0.0,0.0,0.0,0.0,0.0,0.0,0.0,0.0,0.0,0.0,0.0,0.0,0.0,0.0,0.0,0.0,0.0,0.0,0.0,0.0,0.0,-3.6408,-3.6232,-3.6307,-3.6634,-3.6458,-3.6358,0.0,0.0,0.0,0.0,0.0,0.0,0.0,0.0,0.0,0.0,0.0,0.0,0.0,0.0,0.0,0.0,0.0,0.0,0.0,0.0,0.0,0.0,0.0,0.0,0.0,0.0,0.0,0.0,0.0,0.0,0.0,0.0,0.0,0.0,0.0,0.0,0.0,0.0,0.0,0.0,0.0,0.0,0.0,0.0,0.0,0.0,0.0,0.0,0.0,0.0,0.0,0.0,0.0,0.0,0.0,0.0,0.0,0.0,0.0,0.0,0.0,0.0,0.0,0.0,0.0,0.0,0.0,0.0,0.0,0.0,0.0,0.0,0.0,0.0,0.0,0.0,0.0,0.0,0.0,0.0,0.0,0.0,0.0,0.0,0.0,0.0,0.0,0.0,0.0,0.0,0.0,0.0,0.0,0.0,0.0,0.0,0.0,0.0,0.0,0.0,0.0,0.0,0.0,0.0,0.0,0.0,0.0,0.0,0.0,-3.6056,0.0,-3.6558,-3.6383,-3.6358,-3.6207,0.0,0.0,0.0,0.0,0.0,0.0,0.0,0.0,0.0,0.0,0.0,0.0,0.0,0.0,0.0,0.0,0.0,0.0,0.0,0.0,0.0,0.0,0.0,0.0,0.0,0.0,0.0,0.0,0.0,0.0,0.0,0.0,0.0,0.0,0.0,0.0,0.0,0.0,0.0,0.0,0.0,0.0,0.0,0.0,0.0,0.0,0.0,0.0,0.0,0.0,0.0,0.0,0.0,0.0,0.0,0.0,0.0,0.0,0.0,0.0,0.0,0.0,0.0,0.0,0.0,0.0,0.0,0.0,0.0,0.0,0.0,0.0,0.0,0.0,0.0,0.0,0.0,0.0,0.0,0.0,0.0,0.0,0.0,0.0,0.0,0.0,0.0,0.0,0.0,0.0,0.0,0.0,0.0,0.0,0.0,0.0,0.0,0.0,0.0,0.0,0.0,0.0,0.0,0.0,0.0,0.0,0.0,0.0,-3.6056,-3.7086,-3.8115,-3.7864,-3.6508,-3.6383,-3.5855,0.0,0.0,0.0,0.0,0.0,0.0,0.0,0.0,0.0,0.0,0.0,0.0,0.0,0.0,0.0,0.0,0.0,0.0,0.0,0.0,0.0,0.0,0.0,0.0,0.0,0.0,0.0,0.0,0.0,0.0,0.0,0.0,0.0,0.0,0.0,0.0,0.0,0.0,0.0,0.0,0.0,0.0,0.0,0.0,0.0,0.0,0.0,0.0,0.0,0.0,0.0,0.0,0.0,0.0,0.0,0.0,0.0,0.0,0.0,0.0,0.0,0.0,0.0,0.0,0.0,0.0,0.0,0.0,0.0,0.0,0.0,0.0,0.0,0.0,0.0,0.0,0.0,0.0,0.0,0.0,0.0,0.0,0.0,0.0,0.0,0.0,0.0,0.0,0.0,0.0,0.0,0.0,0.0,0.0,0.0,0.0,0.0,0.0,0.0,0.0,0.0,0.0,0.0,0.0,0.0,0.0,0.0,0.0,0.0,-3.4977,-3.5629,-3.6508,-3.7412,-3.6383,-3.6006,0.0,0.0,0.0,0.0,0.0,0.0,0.0,0.0,0.0,0.0,0.0,0.0,0.0,0.0,0.0,0.0,0.0,0.0,0.0,0.0,0.0,0.0,0.0,0.0,0.0,0.0,0.0,0.0,0.0,0.0,0.0,0.0,0.0,0.0,0.0,0.0,0.0,0.0,0.0,0.0,0.0,0.0,0.0,0.0,0.0,0.0,0.0,0.0,0.0,0.0,0.0,0.0,0.0,0.0,0.0,0.0,0.0,0.0,0.0,0.0,0.0,0.0,0.0,0.0,0.0,0.0,0.0,0.0,0.0,0.0,0.0,0.0,0.0,0.0,0.0,0.0,0.0,0.0,0.0,0.0,0.0,0.0,0.0,0.0,0.0,0.0,0.0,0.0,0.0,0.0,0.0,0.0,0.0,0.0,0.0,0.0,0.0,0.0,0.0,0.0,0.0,0.0,0.0,0.0,0.0,0.0,0.0,0.0,0.0,-3.5228,-3.5881,-3.6709,-3.7688,-3.6684,-3.6282,-3.6558,0.0,0.0,0.0,0.0,0.0,0.0,0.0,0.0,0.0,0.0,0.0,0.0,0.0,0.0,0.0,0.0,0.0,0.0,0.0,0.0,0.0,0.0,0.0,0.0,0.0,0.0,0.0,0.0,0.0,0.0,0.0,0.0,0.0,0.0,0.0,0.0,0.0,0.0,0.0,0.0,0.0,0.0,0.0,0.0,0.0,0.0,0.0,0.0,0.0,0.0,0.0,0.0,0.0,0.0,0.0,0.0,0.0,0.0,0.0,0.0,0.0,0.0,0.0,0.0,0.0,0.0,0.0,0.0,0.0,0.0,0.0,0.0,0.0,0.0,0.0,0.0,0.0,0.0,0.0,0.0,0.0,0.0,0.0,0.0,0.0,0.0,0.0,0.0,0.0,0.0,0.0,0.0,0.0,0.0,0.0,0.0,0.0,0.0,0.0,0.0,0.0,0.0,0.0,0.0,0.0,0.0,0.0,0.0,-3.7312,-3.8366,-3.8417,-3.7437,-3.7287,-3.6734,0.0,0.0,0.0,0.0,0.0,0.0,0.0,0.0,0.0,0.0,0.0,0.0,0.0,0.0,0.0,0.0,0.0,0.0,0.0,0.0,0.0,0.0,0.0,0.0,0.0,0.0,0.0,0.0,0.0,0.0,0.0,0.0,0.0,0.0,0.0,0.0,0.0,0.0,0.0,0.0,0.0,0.0,0.0,0.0,0.0,0.0,0.0,0.0,0.0,0.0,0.0,0.0,0.0,0.0,0.0,0.0,0.0,0.0,0.0,0.0,0.0,0.0,0.0,0.0,0.0,0.0,0.0,0.0,0.0,0.0,0.0,0.0,0.0,0.0,0.0,0.0,0.0,0.0,0.0,0.0,0.0,0.0,0.0,0.0,0.0,0.0,0.0,0.0,0.0,0.0,0.0,0.0,0.0,0.0,0.0,0.0,0.0,0.0,0.0,0.0,0.0,0.0,0.0,0.0,0.0,0.0,0.0,0.0,0.0,-3.8969,-3.932,-3.9521,-3.9597,-3.8442,-3.7663,0.0,0.0,0.0,0.0,0.0,0.0,0.0,0.0,0.0,0.0,0.0,0.0,0.0,0.0,0.0,0.0,0.0,0.0,0.0,0.0,0.0,0.0,0.0,0.0,0.0,0.0,0.0,0.0,0.0,0.0,0.0,0.0,0.0,0.0,0.0,0.0,0.0,0.0,0.0,0.0,0.0,0.0,0.0,0.0,0.0,0.0,0.0,0.0,0.0,0.0,0.0,0.0,0.0,0.0,0.0,0.0,0.0,0.0,0.0,0.0,0.0,0.0,0.0,0.0,0.0,0.0,0.0,0.0,0.0,0.0,0.0,0.0,0.0,0.0,0.0,0.0,0.0,0.0,0.0,0.0,0.0,0.0,0.0,0.0,0.0,0.0,0.0,0.0,0.0,0.0,0.0,0.0,0.0,0.0,0.0,0.0,0.0,0.0,0.0,0.0,0.0,0.0,0.0,0.0,0.0,0.0,0.0,0.0,-3.7914,-3.9647,-4.0149,-4.0651,-4.1204,-3.9823,-3.8617,0.0,0.0,0.0,0.0,0.0,0.0,0.0,0.0,0.0,0.0,0.0,0.0,0.0,0.0,0.0,0.0,0.0,0.0,0.0,0.0,0.0,0.0,0.0,0.0,0.0,0.0,0.0,0.0,0.0,0.0,0.0,0.0,0.0,0.0,0.0,0.0,0.0,0.0,0.0,0.0,0.0,0.0,0.0,0.0,0.0,0.0,0.0,0.0,0.0,0.0,0.0,0.0,0.0,0.0,0.0,0.0,0.0,0.0,0.0,0.0,0.0,0.0,0.0,0.0,0.0,0.0,0.0,0.0,0.0,0.0,0.0,0.0,0.0,0.0,0.0,0.0,0.0,0.0,0.0,0.0,0.0,0.0,0.0,0.0,0.0,0.0,0.0,0.0,0.0,0.0,0.0,0.0,0.0,0.0,0.0,0.0,0.0,0.0,0.0,0.0,0.0,0.0,0.0,0.0,0.0,0.0,0.0,0.0,-3.8517,-3.9672,-4.0701,-4.148,-4.1932,-4.0978,-3.9471,0.0,0.0,0.0,0.0,0.0,0.0,0.0,0.0,0.0,0.0,0.0,0.0,0.0,0.0,0.0,0.0,0.0,0.0,0.0,0.0,0.0,0.0,0.0,0.0,0.0,0.0,0.0,0.0,0.0,0.0,0.0,0.0,0.0,0.0,0.0,0.0,0.0,0.0,0.0,0.0,0.0,0.0,0.0,0.0,0.0,0.0,0.0,0.0,0.0,0.0,0.0,0.0,0.0,0.0,0.0,0.0,0.0,0.0,0.0,0.0,0.0,0.0,0.0,0.0,0.0,0.0,0.0,0.0,0.0,0.0,0.0,0.0,0.0,0.0,0.0,0.0,0.0,0.0,0.0,0.0,0.0,0.0,0.0,0.0,0.0,0.0,0.0,0.0,0.0,0.0,0.0,0.0,0.0,0.0,0.0,0.0,0.0,0.0,0.0,0.0,0.0,0.0,0.0,0.0,0.0,0.0,0.0,0.0,-3.8115,-3.9647,-4.035,-4.0752,-4.0852,-4.0224,-3.9446,0.0,0.0,0.0,0.0,0.0,0.0,0.0,0.0,0.0,0.0,0.0,0.0,0.0,0.0,0.0,0.0,0.0,0.0,0.0,0.0,0.0,0.0,0.0,0.0,0.0,0.0,0.0,0.0,0.0,0.0,0.0,0.0,0.0,0.0,0.0,0.0,0.0,0.0,0.0,0.0,0.0,0.0,0.0,0.0,0.0,0.0,0.0,0.0,-4.3915,0.0,0.0,0.0,0.0,0.0,0.0,0.0,0.0,0.0,0.0,0.0,0.0,0.0,0.0,0.0,0.0,0.0,0.0,0.0,0.0,0.0,0.0,0.0,0.0,0.0,0.0,0.0,0.0,0.0,0.0,0.0,0.0,0.0,0.0,0.0,0.0,0.0,0.0,0.0,0.0,0.0,0.0,0.0,0.0,0.0,0.0,0.0,0.0,0.0,0.0,0.0,0.0,0.0,0.0,0.0,0.0,0.0,0.0,0.0,-3.799,-3.9647,-4.0224,-4.0651,-4.0852,-4.0124,-3.9295,0.0,0.0,0.0,0.0,0.0,0.0,0.0,0.0,0.0,0.0,0.0,0.0,0.0,0.0,0.0,0.0,0.0,0.0,0.0,0.0,0.0,0.0,0.0,0.0,0.0,0.0,0.0,0.0,0.0,0.0,0.0,0.0,0.0,0.0,0.0,0.0,0.0,0.0,0.0,0.0,0.0,0.0,0.0,0.0,0.0,0.0,0.0,0.0,0.0,0.0,0.0,0.0,0.0,0.0,0.0,0.0,0.0,0.0,0.0,0.0,0.0,0.0,0.0,0.0,0.0,0.0,0.0,0.0,0.0,0.0,0.0,0.0,0.0,0.0,0.0,0.0,0.0,0.0,0.0,0.0,0.0,0.0,0.0,0.0,0.0,0.0,0.0,0.0,0.0,0.0,0.0,0.0,0.0,0.0,0.0,0.0,0.0,0.0,0.0,0.0,0.0,0.0,0.0,0.0,0.0,0.0,0.0,-3.6759,-3.804,-3.9521,-4.0099,-4.0626,-4.1053,-4.0174,-3.917,-3.8065,0.0,0.0,0.0,0.0,0.0,0.0,0.0,0.0,0.0,0.0,0.0,0.0,0.0,0.0,0.0,0.0,0.0,0.0,0.0,0.0,0.0,0.0,0.0,0.0,0.0,0.0,0.0,0.0,0.0,0.0,0.0,0.0,0.0,0.0,0.0,0.0,0.0,0.0,-4.1304,-4.2484,0.0,0.0,0.0,0.0,0.0,0.0,0.0,0.0,-4.3037,0.0,0.0,0.0,0.0,0.0,0.0,0.0,0.0,0.0,0.0,0.0,0.0,0.0,0.0,0.0,0.0,0.0,0.0,0.0,0.0,0.0,0.0,0.0,0.0,0.0,0.0,0.0,0.0,0.0,0.0,0.0,0.0,0.0,0.0,0.0,0.0,0.0,0.0,0.0,0.0,0.0,0.0,0.0,0.0,0.0,0.0,0.0,0.0,0.0,0.0,0.0,0.0,0.0,0.0,0.0,0.0,-3.6207,-3.7312,-3.8241,-3.8994,-3.9546,-3.9873,-3.9973,-3.9772,-3.917,-3.804,0.0,0.0,0.0,0.0,0.0,0.0,0.0,0.0,0.0,0.0,0.0,0.0,0.0,0.0,0.0,0.0,0.0,0.0,0.0,0.0,0.0,0.0,0.0,0.0,0.0,0.0,0.0,0.0,0.0,0.0,0.0,0.0,0.0,0.0,0.0,0.0,0.0,0.0,0.0,-4.3363,-4.4217,0.0,0.0,0.0,0.0,0.0,0.0,0.0,0.0,-4.3187,0.0,0.0,0.0,0.0,0.0,0.0,0.0,0.0,0.0,0.0,0.0,0.0,0.0,0.0,0.0,0.0,0.0,0.0,0.0,0.0,0.0,0.0,0.0,0.0,0.0,0.0,0.0,0.0,0.0,0.0,0.0,0.0,0.0,0.0,0.0,0.0,0.0,0.0,0.0,0.0,0.0,0.0,0.0,0.0,0.0,0.0,0.0,0.0,0.0,0.0,0.0,0.0,0.0,0.0,0.0,-3.6024,-3.8168,-3.9277,-3.8944,-4.0733,-4.1319,-4.0743,-4.1031,-4.0455,0.0,0.0,0.0,0.0,0.0,0.0,0.0,0.0,0.0,0.0,0.0,0.0,0.0,0.0,0.0,0.0,0.0,0.0,0.0,0.0,0.0,0.0,0.0,0.0,0.0,0.0,0.0,0.0,0.0,0.0,0.0,0.0,0.0,0.0,0.0,0.0,0.0,0.0,0.0,0.0,-4.3338,-4.4192,-4.4217,0.0,0.0,0.0,0.0,0.0,0.0,-4.3388,-4.3388,0.0,0.0,0.0,0.0,0.0,0.0,0.0,0.0,0.0,0.0,0.0,0.0,0.0,0.0,0.0,0.0,0.0,0.0,0.0,0.0,0.0,0.0,0.0,0.0,0.0,0.0,0.0,0.0,0.0,0.0,0.0,0.0,0.0,0.0,0.0,0.0,0.0,0.0,0.0,0.0,0.0,0.0,0.0,0.0,0.0,0.0,0.0,0.0,0.0,0.0,0.0,0.0,0.0,0.0,0.0,-3.6116,-3.915,-4.0426,-3.9921,-4.2205,-4.3026,-4.2084,-4.2467,-4.1961,0.0,0.0,0.0,0.0,0.0,0.0,0.0,0.0,0.0,0.0,0.0,0.0,0.0,0.0,0.0,0.0,0.0,0.0,0.0,0.0,0.0,0.0,0.0,0.0,0.0,0.0,0.0,0.0,0.0,0.0,0.0,0.0,0.0,0.0,0.0,0.0,0.0,0.0,0.0,0.0,0.0,-4.4217,-4.4418,-4.4192,0.0,0.0,0.0,0.0,-4.3313,-4.4041,0.0,0.0,0.0,0.0,0.0,0.0,0.0,0.0,0.0,0.0,0.0,0.0,0.0,0.0,0.0,0.0,0.0,0.0,0.0,0.0,0.0,0.0,0.0,0.0,0.0,0.0,0.0,0.0,0.0,0.0,0.0,0.0,0.0,0.0,0.0,0.0,0.0,0.0,0.0,0.0,0.0,0.0,0.0,0.0,0.0,0.0,0.0,0.0,0.0,0.0,0.0,0.0,0.0,0.0,0.0,0.0,-3.7975,-3.9788,-4.1416,-4.2931,-4.3286,-4.3409,-4.3313,-4.3353,-4.2775,0.0,0.0,0.0,0.0,0.0,0.0,0.0,0.0,0.0,0.0,0.0,0.0,0.0,0.0,0.0,0.0,0.0,0.0,0.0,0.0,0.0,0.0,0.0,0.0,0.0,0.0,0.0,0.0,0.0,0.0,0.0,0.0,0.0,0.0,0.0,0.0,0.0,0.0,0.0,0.0,0.0,-4.4945,-4.4016,-4.4267,-4.4367,0.0,0.0,-4.4443,-4.4443,-4.6125,0.0,0.0,0.0,0.0,0.0,0.0,0.0,0.0,0.0,0.0,0.0,0.0,0.0,0.0,0.0,0.0,0.0,0.0,0.0,0.0,0.0,0.0,0.0,0.0,0.0,0.0,0.0,0.0,0.0,0.0,0.0,0.0,0.0,0.0,0.0,0.0,0.0,0.0,0.0,0.0,0.0,0.0,0.0,0.0,0.0,0.0,0.0,0.0,0.0,0.0,0.0,0.0,0.0,0.0,0.0,-3.673,-3.7395,-4.0886,-4.2651,-4.2546,-4.4562,-4.5298,-4.4627,-4.4518,-4.3803,0.0,0.0,0.0,0.0,0.0,0.0,0.0,0.0,0.0,0.0,0.0,0.0,0.0,0.0,0.0,0.0,0.0,0.0,0.0,0.0,0.0,0.0,0.0,0.0,0.0,0.0,0.0,0.0,0.0,0.0,0.0,0.0,0.0,0.0,0.0,0.0,0.0,0.0,0.0,0.0,0.0,0.0,-4.3915,-4.4543,0.0,0.0,0.0,-4.5221,-4.5522,0.0,0.0,0.0,0.0,0.0,0.0,0.0,0.0,0.0,0.0,0.0,0.0,0.0,0.0,0.0,0.0,0.0,0.0,0.0,0.0,0.0,0.0,0.0,0.0,0.0,0.0,0.0,0.0,0.0,0.0,0.0,0.0,0.0,0.0,0.0,0.0,0.0,0.0,0.0,0.0,0.0,0.0,0.0,0.0,0.0,0.0,0.0,0.0,0.0,0.0,0.0,0.0,0.0,0.0,0.0,0.0,0.0,-3.7295,-4.1922,-4.3818,-4.3012,-4.5756,-4.6844,-4.5958,-4.5717,0.0,0.0,0.0,0.0,0.0,0.0,0.0,0.0,0.0,0.0,0.0,0.0,0.0,0.0,0.0,0.0,0.0,0.0,0.0,0.0,0.0,0.0,0.0,0.0,0.0,0.0,0.0,-4.3329,0.0,0.0,0.0,0.0,0.0,0.0,0.0,0.0,0.0,0.0,0.0,0.0,0.0,0.0,-4.4418,-4.389,-4.4995,-4.5899,0.0,0.0,-4.62,-4.6476,-4.7104,-4.7369,0.0,0.0,0.0,0.0,0.0,0.0,0.0,0.0,0.0,0.0,0.0,0.0,0.0,0.0,0.0,0.0,0.0,0.0,0.0,0.0,0.0,0.0,0.0,0.0,0.0,0.0,0.0,0.0,0.0,0.0,0.0,0.0,0.0,0.0,0.0,0.0,0.0,0.0,0.0,0.0,0.0,0.0,0.0,0.0,0.0,0.0,0.0,0.0,0.0,0.0,0.0,0.0,0.0,0.0,0.0,-3.906,-4.2485,-4.4863,-4.5947,-4.6864,-4.7309,-4.7193,-4.6535,-4.555,0.0,0.0,0.0,0.0,0.0,0.0,0.0,0.0,0.0,0.0,0.0,0.0,0.0,0.0,0.0,0.0,0.0,0.0,0.0,0.0,0.0,0.0,0.0,0.0,0.0,0.0,0.0,0.0,0.0,0.0,0.0,0.0,0.0,0.0,0.0,0.0,0.0,0.0,0.0,0.0,0.0,-4.4418,-4.3865,-4.5648,-4.7004,0.0,0.0,-4.7581,-4.7154,-4.9238,-4.9515,-4.5464,0.0,0.0,0.0,0.0,0.0,0.0,0.0,0.0,0.0,0.0,0.0,0.0,0.0,0.0,0.0,0.0,0.0,0.0,0.0,0.0,0.0,0.0,0.0,0.0,0.0,0.0,0.0,0.0,0.0,0.0,0.0,0.0,0.0,0.0,0.0,0.0,0.0,0.0,0.0,0.0,0.0,0.0,0.0,0.0,0.0,0.0,0.0,0.0,0.0,0.0,0.0,0.0,0.0,-3.8089,-3.8588,-4.2802,-4.5185,-4.5693,-4.6741,-4.7309,-4.7309,-4.6262,-4.5244,0.0,0.0,0.0,0.0,0.0,0.0,0.0,0.0,0.0,0.0,0.0,0.0,0.0,0.0,0.0,0.0,0.0,0.0,0.0,0.0,0.0,0.0,0.0,0.0,0.0,0.0,0.0,0.0,-4.3329,-4.3329,-4.3329,0.0,0.0,0.0,0.0,0.0,0.0,0.0,0.0,0.0,0.0,-4.6906,-4.5719,-4.8021,0.0,0.0,-4.8391,-4.936,-4.9637,-4.9445,-4.9453,-4.9524,-4.8026,0.0,0.0,0.0,0.0,0.0,0.0,0.0,0.0,0.0,0.0,0.0,0.0,0.0,0.0,0.0,0.0,0.0,0.0,0.0,0.0,0.0,0.0,0.0,0.0,0.0,0.0,0.0,0.0,0.0,0.0,0.0,0.0,0.0,0.0,0.0,0.0,0.0,0.0,0.0,0.0,0.0,0.0,0.0,0.0,0.0,0.0,0.0,0.0,0.0,0.0,0.0,0.0,-3.8805,-3.9002,-4.3172,-4.5394,-4.5603,-4.6711,-4.7309,-4.7279,-4.5992,-4.4975,0.0,0.0,0.0,0.0,0.0,0.0,0.0,0.0,0.0,0.0,0.0,0.0,0.0,0.0,0.0,0.0,0.0,0.0,0.0,0.0,0.0,0.0,0.0,0.0,0.0,0.0,0.0,0.0,-4.3449,-4.3329,-4.3329,0.0,0.0,0.0,0.0,0.0,0.0,0.0,0.0,0.0,0.0,-4.8187,-4.7269,-4.9057,-4.9885,-4.808,-4.8014,-4.8721,-5.0191,-4.9361,-4.9167,-5.0663,0.0,0.0,0.0,0.0,0.0,0.0,0.0,0.0,0.0,0.0,0.0,0.0,0.0,0.0,0.0,0.0,0.0,0.0,0.0,0.0,0.0,0.0,0.0,0.0,0.0,0.0,0.0,0.0,0.0,0.0,-3.9711,0.0,0.0,0.0,0.0,0.0,0.0,0.0,0.0,0.0,0.0,0.0,0.0,0.0,0.0,0.0,0.0,0.0,0.0,0.0,0.0,0.0,0.0,-4.0083,-4.0718,-4.3737,-4.5633,-4.6292,-4.695,-4.7309,-4.7279,-4.5992,-4.4975,-4.4317,0.0,0.0,0.0,0.0,0.0,0.0,0.0,0.0,0.0,0.0,0.0,0.0,0.0,0.0,0.0,0.0,0.0,0.0,0.0,0.0,0.0,0.0,0.0,0.0,0.0,0.0,-4.4347,-4.3718,-4.3329,0.0,0.0,0.0,0.0,0.0,0.0,0.0,0.0,0.0,0.0,-4.6487,-4.7929,-4.7956,-4.7918,-4.8444,-4.9254,-4.6395,-4.5114,-4.8219,-4.9066,-4.8973,0.0,0.0,0.0,0.0,0.0,0.0,0.0,0.0,0.0,0.0,0.0,0.0,0.0,0.0,0.0,0.0,0.0,0.0,0.0,0.0,0.0,0.0,0.0,0.0,0.0,0.0,0.0,-4.1,-4.1,0.0,0.0,0.0,0.0,0.0,0.0,0.0,0.0,0.0,0.0,0.0,-4.2782,-4.251,0.0,0.0,0.0,0.0,0.0,0.0,0.0,0.0,0.0,0.0,0.0,0.0,-4.0112,-4.0885,-4.3767,-4.5633,-4.6322,-4.695,-4.7309,-4.7309,-4.6441,-4.5244,-4.3718,0.0,0.0,0.0,0.0,0.0,0.0,0.0,0.0,0.0,0.0,0.0,0.0,0.0,0.0,0.0,0.0,0.0,0.0,0.0,0.0,0.0,0.0,0.0,0.0,0.0,-4.5035,0.0,0.0,0.0,0.0,0.0,0.0,0.0,0.0,0.0,0.0,0.0,-4.6786,-4.7014,-4.8756,-4.9994,-4.9859,-5.1499,-5.2231,0.0,0.0,0.0,0.0,0.0,0.0,0.0,0.0,0.0,0.0,0.0,0.0,0.0,0.0,-5.9069,-5.5777,-5.4999,-5.473,-5.4281,0.0,0.0,0.0,0.0,0.0,0.0,0.0,0.0,0.0,0.0,0.0,0.0,0.0,0.0,-4.2456,0.0,-4.2398,0.0,0.0,0.0,0.0,0.0,0.0,0.0,0.0,-4.2952,-4.372,-4.4676,-4.4284,-4.3916,0.0,-4.3591,-4.2821,0.0,0.0,0.0,0.0,0.0,0.0,0.0,0.0,-4.09,-4.2093,-4.4169,-4.5723,-4.6621,-4.71,-4.7309,-4.7279,-4.6651,-4.5484,-4.3718,-4.3269,-4.2731,0.0,0.0,0.0,0.0,0.0,0.0,0.0,0.0,0.0,0.0,0.0,0.0,0.0,0.0,0.0,0.0,0.0,0.0,0.0,0.0,0.0,0.0,0.0,-4.5125,0.0,0.0,0.0,0.0,0.0,0.0,0.0,0.0,0.0,-4.7489,-4.7638,-4.8057,-4.9164,-5.0421,-5.1208,-5.1303,0.0,0.0,0.0,0.0,0.0,0.0,0.0,-5.2949,-5.4887,-5.5418,-5.5718,-5.6137,-5.8201,-5.9787,-5.9757,0.0,0.0,-5.7842,-5.7064,-5.6765,-5.6346,-5.7094,-5.7573,-5.6974,-5.7513,-5.7872,0.0,0.0,0.0,0.0,0.0,0.0,0.0,0.0,-4.3608,-4.4026,0.0,-4.3847,0.0,0.0,0.0,0.0,0.0,-4.214,0.0,0.0,-4.4295,-4.4706,-4.5304,-4.5364,-4.5364,-4.5334,-4.5334,-4.4975,-4.4176,-4.2012,0.0,0.0,0.0,0.0,0.0,0.0,-4.2372,-4.4227,-4.4975,-4.5963,-4.7249,-4.7309,-4.7309,-4.7279,-4.6681,-4.5723,-4.4466,-4.4317,-4.4018,-4.3389,-4.3329,0.0,0.0,0.0,0.0,0.0,0.0,0.0,0.0,0.0,0.0,0.0,0.0,0.0,0.0,0.0,0.0,0.0,0.0,0.0,0.0,-4.5723,0.0,0.0,0.0,0.0,0.0,0.0,0.0,0.0,0.0,0.0,-4.8147,-4.8297,-4.8985,-5.087,0.0,0.0,0.0,0.0,-5.069,-5.1369,-4.9853,-4.9677,-5.204,-5.395,-5.5216,-5.5334,0.0,0.0,-5.8501,-5.9877,-6.0775,-5.9518,-6.0416,-6.1583,-6.272,-6.1194,-6.0027,-5.9937,-5.862,-5.7633,-5.8112,-5.8501,-5.853,-4.5334,0.0,0.0,0.0,0.0,-4.4227,-4.4407,-4.5005,-4.4825,-4.4945,-4.5244,-4.4407,0.0,0.0,0.0,0.0,0.0,0.0,-4.3783,-4.4377,-4.5304,-4.5843,-4.6052,-4.6501,-4.6471,-4.6022,-4.6022,-4.5424,-4.4347,-4.3686,-4.2841,-4.1844,0.0,0.0,0.0,0.0,-4.3269,-4.4317,-4.5454,-4.6441,-4.7309,-4.7309,-4.7309,-4.7309,-4.6651,-4.6142,-4.5753,-4.4825,-4.4227,-4.4047,-4.3599,0.0,0.0,0.0,0.0,0.0,0.0,0.0,0.0,0.0,0.0,0.0,0.0,0.0,0.0,0.0,0.0,0.0,0.0,0.0,-4.6262,-4.6142,-4.6022,0.0,0.0,0.0,0.0,0.0,0.0,0.0,0.0,0.0,-4.8745,-4.8566,-4.8656,0.0,0.0,-5.093,-5.2037,-5.2286,-5.2902,-5.4551,-5.4345,0.0,0.0,-5.6154,-5.6852,-5.7796,-5.9967,-6.1523,-6.1642,-6.2121,-6.2391,-6.1972,-6.2241,-6.266,-6.2899,-6.1852,-6.0894,-6.0805,-6.0685,-6.0715,-6.0924,-6.1313,-6.1613,-4.71,-4.6381,-4.5214,-4.4915,-4.5244,-4.4885,-4.5095,-4.5693,-4.5424,-4.5603,-4.6022,-4.5095,-4.4706,-4.4676,-4.4018,0.0,0.0,0.0,-4.4855,-4.5155,-4.5963,-4.6471,-4.6741,-4.71,-4.71,-4.6711,-4.6441,-4.5783,-4.4706,-4.4706,-4.4167,-4.315,0.0,0.0,-4.2192,-4.294,-4.3778,-4.4706,-4.5783,-4.6651,-4.7279,-4.7309,-4.7309,-4.7309,-4.692,-4.6591,-4.6322,-4.5544,-4.4855,-4.4347,-4.4197,-4.3868,0.0,0.0,0.0,0.0,0.0,0.0,0.0,0.0,0.0,0.0,0.0,-4.5185,0.0,0.0,0.0,0.0,-4.4915,-4.5873,-4.6292,-4.6322,0.0,0.0,0.0,0.0,0.0,0.0,0.0,-4.7219,-4.695,-4.7369,-4.9015,-4.8925,-4.9194,-5.0631,-5.093,-5.1498,-5.2815,0.0,-5.4311,-5.5269,-5.6256,-5.6974,-5.7094,-5.7782,-5.865,-5.9727,-6.1104,-6.2151,-6.26,-6.2869,-6.3079,-6.3079,-6.3079,-6.3079,-6.3079,-6.2421,-6.1882,-6.1912,-6.2211,-6.248,-6.248,-6.281,-6.3079,-4.8895,-4.8117,-4.6381,-4.5574,-4.5454,-4.5454,-4.5813,-4.6352,-4.5723,-4.6142,-4.7189,-4.5933,-4.5334,-4.5244,-4.4646,0.0,-4.5304,-4.5364,-4.5723,-4.6322,-4.6381,-4.6711,-4.7279,-4.7309,-4.7309,-4.7309,-4.6681,-4.6052,-4.5394,-4.5364,-4.5035,-4.4377,-4.321,-4.291,-4.3449,-4.3539,-4.4167,-4.5364,-4.6052,-4.6681,-4.7279,-4.7309,-4.7309,-4.7309,-4.7309,-4.701,-4.6441,-4.6352,-4.5723,-4.4496,-4.4975,-4.4736,-4.3539,0.0,0.0,0.0,0.0,0.0,0.0,0.0,0.0,0.0,0.0,0.0,0.0,0.0,0.0,0.0,-4.5574,0.0,-4.6411,-4.6411,0.0,0.0,0.0,-4.6411,-4.6411,-4.692,-4.7309,-4.7309,0.0,0.0,-4.9105,-4.9314,-5.0301,-5.2845,-5.2606,-5.2665,-5.4042,-5.467,-5.491,-5.4581,-5.6406,-5.7723,-5.7363,-5.874,-6.0146,-6.0864,-6.1613,-6.2002,-6.2151,-6.257,-6.2959,-6.3079,-6.3079,-6.3079,-6.3079,-6.3019,-6.3079,-6.3019,-6.3049,-6.3049,-6.3049,-6.3049,-6.3079,-4.8895,-4.8297,-4.8297,-4.7758,-4.683,-4.683,-4.692,-4.707,-4.689,-4.701,-4.7249,-4.6441,-4.5783,-4.5274,-4.5125,-4.5155,-4.5304,-4.5843,-4.6172,-4.6352,-4.683,-4.716,-4.7309,-4.7309,-4.7309,-4.7279,-4.716,-4.6711,-4.6112,-4.6082,-4.5723,-4.5065,-4.4736,-4.4676,-4.4855,-4.5334,-4.5753,-4.6082,-4.6741,-4.716,-4.7309,-4.7309,-4.7309,-4.7309,-4.7309,-4.7219,-4.707,-4.6591,-4.5933,-4.5125,-4.5214,-4.4915,-4.4137,-4.4227,0.0,0.0,0.0,0.0,0.0,0.0,0.0,0.0,0.0,-4.5454,-4.5843,0.0,-4.4885,0.0,-4.5843,-4.6531,-4.704,-4.707,0.0,0.0,-4.707,-4.707,-4.707,-4.7219,-4.7309,-4.7309,-4.7728,-4.8356,-4.9164,-4.9703,-5.078,-5.2845,-5.2606,-5.2695,-5.4012,-5.4341,-5.476,-5.5538,-5.6226,-5.6944,-5.7782,-5.9099,-6.0296,-6.1014,-6.1253,-6.1523,-6.2002,-6.2211,-6.248,-6.2959,-6.3079,-6.3079,-6.3079,-6.3079,-6.3079,-6.3079,-6.3079,-6.3079,-6.3079,-6.3079,-6.3079,-4.9494,-4.9194,-4.9553,-4.8955,-4.7758,-4.7728,-4.7578,-4.7309,-4.7309,-4.7309,-4.7279,-4.6621,-4.6292,-4.6172,-4.5873,-4.5903,-4.6202,-4.6591,-4.677,-4.677,-4.713,-4.7309,-4.7309,-4.7309,-4.7309,-4.7309,-4.7309,-4.698,-4.6381,-4.6621,-4.6411,-4.5753,-4.6052,-4.6202,-4.6202,-4.6262,-4.6322,-4.6322,-4.698,-4.7309,-4.7309,-4.7309,-4.7309,-4.7309,-4.7309,-4.716,-4.689,-4.6501,-4.5992,-4.5334,-4.5603,-4.5454,-4.4796,-4.5035,-4.5065,0.0,0.0,0.0,0.0,0.0,0.0,0.0,0.0,0.0,0.0,0.0,-4.5424,0.0,-4.6352,-4.692,-4.7279,-4.7309,-4.7309,-4.7309,-4.7309,-4.7309,-4.7309,-4.7309,-4.7309,-4.7309,-4.7638,-4.8207,-4.9134,-4.9583,-5.0541,-5.2486,-5.2695,-5.3114,-5.4371,-5.488,-5.5269,-5.5658,-5.6226,-5.6795,-5.7573,-5.853,-5.9338,-5.9727,-6.0266,-6.0775,-6.1134,-6.1463,-6.1882,-6.248,-6.263,-6.275,-6.2989,-6.3079,-6.3079,-6.3079,-6.3079,-6.3079,-6.3079,-6.3079,-6.3079,-5.0301,-5.0242,-5.0331,-4.9613,-4.8416,-4.8506,-4.8057,-4.7309,-4.7309,-4.7309,-4.7279,-4.6711,-4.677,-4.7249,-4.6711,-4.677,-4.7309,-4.7309,-4.7309,-4.7309,-4.7309,-4.7309,-4.7309,-4.7309,-4.7309,-4.7309,-4.7309,-4.701,-4.6471,-4.704,-4.701,-4.6501,-4.701,-4.7369,-4.7399,-4.686,-4.6591,-4.6591,-4.7309,-4.7638,-4.7578,-4.7638,-4.7608,-4.7429,-4.7339,-4.701,-4.6352,-4.6322,-4.5992,-4.5364,-4.6022,-4.6142,-4.5484,-4.5992,-4.6052,0.0,-4.5334,0.0,0.0,0.0,0.0,0.0,0.0,0.0,0.0,-4.5903,-4.5813,-4.6411,-4.698,-4.7309,-4.7309,-4.7309,-4.7309,-4.7309,-4.7309,-4.7309,-4.7309,-4.7309,-4.7309,-4.7309,-4.7369,-4.7908,-4.9075,-4.9314,-5.0122,-5.1917,-5.2785,-5.3563,-5.479,-5.5538,-5.5748,-5.5269,-5.6196,-5.6855,-5.7064,-5.7633,-5.8201,-5.8321,-5.9189,-5.9967,-6.0146,-6.0595,-6.1224,-6.1912,-6.2151,-6.2331,-6.2959,-6.3079,-6.3079,-6.3079,-6.3079,-6.3079,-6.3079,-6.3079,-6.3079,-5.072,-5.0301,-5.081,-5.0272,-4.9134,-4.9643,-4.8895,-4.7309,-4.7309,-4.7309,-4.7279,-4.7189,-4.7189,-4.7279,-4.7189,-4.7189,-4.7309,-4.7309,-4.7309,-4.7309,-4.7309,-4.7309,-4.7309,-4.7309,-4.7309,-4.7309,-4.7309,-4.7249,-4.713,-4.7249,-4.7249,-4.713,-4.7249,-4.7578,-4.8057,0.0,0.0,0.0,-4.9075,-4.9434,-4.8925,-4.9434,-4.9194,-4.8117,-4.7578,0.0,-4.6381,-4.6322,-4.6022,-4.5364,-4.6471,0.0,0.0,0.0,0.0,0.0,0.0,0.0,0.0,0.0,0.0,0.0,-4.713,-4.713,-4.713,-4.701,-4.698,-4.713,-4.7249,-4.7309,-4.7309,-4.7309,-4.7309,-4.7309,-4.7309,-4.7309,-4.7309,-4.7309,-4.7309,-4.7309,-4.7758,-4.8386,-4.9164,-4.9703,-5.0571,-5.1917,-5.2755,-5.3473,-5.4251,-5.497,-5.5329,-5.5269,-5.5867,-5.6346,-5.6346,-5.7334,-5.8052,-5.8231,-5.874,-5.9458,-5.9967,-6.0146,-6.0745,-6.1792,-6.2091,-6.2271,-6.2929,-6.3079,-6.3079,-6.3079,-6.3079,-6.3079,-6.3079,-6.3079,-6.3079,-5.102,0.0,-5.1079,-5.0631,0.0,-5.0092,-4.9494,-4.8237,-4.7938,-4.7608,-4.7309,-4.7309,-4.7309,-4.7309,-4.7309,-4.7309,-4.7309,-4.7309,-4.7309,-4.7309,-4.7309,-4.7309,-4.7309,-4.7638,-4.7608,-4.7309,-4.7638,-4.7608,-4.7309,-4.7309,-4.7459,-4.7788,-4.7788,-4.8117,-4.8745,-4.9105,-4.9105,-4.8775,-4.9434,-4.9583,-4.9314,-4.9583,-4.9284,-4.8327,0.0,0.0,0.0,0.0,0.0,0.0,0.0,0.0,0.0,0.0,0.0,-4.68,-4.6471,-4.6441,-4.677,-4.68,-4.695,-4.7279,-4.7309,-4.7309,-4.7309,-4.7309,-4.7309,-4.7309,-4.7309,-4.7309,-4.7309,-4.7309,-4.7309,-4.7309,-4.7309,-4.7309,-4.7309,-4.7309,-4.7459,-4.7758,-4.8087,-4.8626,-4.9613,-5.0002,-5.0631,-5.1588,-5.2576,-5.3294,-5.3713,-5.4581,-5.5179,-5.5209,-5.5448,-5.5688,-5.5807,-5.6765,-5.7633,-5.7723,-5.8441,-5.9159,-5.9548,-5.9608,-5.9937,-6.0894,-6.1373,-6.1822,-6.245,-6.2839,-6.3079,-6.3079,-6.3079,-6.3079,-6.3079,-6.3079,-6.3079,-5.1229,-5.1229,-5.1229,-5.09,-5.0421,-5.0421,-5.0032,-4.9374,0.0,0.0,0.0,-4.7309,-4.7309,-4.7309,-4.7309,-4.7309,-4.7309,-4.7309,-4.7309,-4.7309,-4.7309,-4.7309,-4.7339,-4.7967,-4.7997,-4.7519,-4.8147,-4.8177,-4.7668,-4.7638,-4.7908,-4.8416,-4.8476,-4.8775,-4.9434,-5.0092,-5.0212,-4.9823,-4.9912,-4.9853,-4.9643,-4.9823,-4.9523,-4.8656,-4.8536,-4.7848,-4.6531,-4.6501,-4.6441,-4.6322,-4.6441,-4.6741,-4.7249,-4.7309,-4.7309,-4.7309,-4.7429,-4.7429,-4.7309,-4.7429,-4.7429,-4.7309,-4.7429,-4.7429,-4.7309,-4.7309,-4.7309,-4.7309,-4.7309,-4.7309,-4.7309,-4.7309,-4.7309,-4.7309,-4.7309,-4.7339,-4.7459,-4.7489,-4.7758,-4.8327,-4.8476,-4.8895,-5.0032,-5.0242,-5.0481,-5.1199,-5.2247,-5.3084,-5.3324,-5.4341,-5.5209,-5.5209,-5.5269,-5.5239,-5.5359,-5.6137,-5.6915,-5.7184,-5.8141,-5.8919,-5.9069,-5.9099,-5.9368,-6.0057,-6.0565,-6.1134,-6.1792,-6.2421,-6.2869,-6.2899,-6.3019,-6.3079,-6.3079,-6.3079,-6.3079,-5.1229,-5.1229,-5.1229,-5.1169,-5.1079,-5.1079,-5.069,-5.0002,-4.8835,-4.7908,-4.7309,-4.7309,-4.7309,-4.7309,-4.7309,-4.7309,-4.7309,-4.7309,-4.7309,0.0,-4.7309,-4.7309,-4.7339,-4.7967,-4.8237,-4.8207,-4.8805,-4.9075,-4.8985,-4.8985,-4.9045,-4.9105,-4.9134,-4.9464,-5.0092,-5.075,-5.1319,-5.1798,-5.2336,-5.2097,-5.099,-5.2037,-5.1768,-5.0032,-4.9404,-4.8506,-4.7219,-4.716,-4.689,-4.6381,-4.686,-4.7219,-4.7309,-4.7339,-4.7309,-4.7339,-4.7818,-4.7908,-4.7369,-4.7818,-4.7908,-4.7399,-4.7818,-4.7908,-4.7369,-4.7309,-4.7309,-4.7309,-4.7309,-4.7309,-4.7309,-4.7339,-4.7399,-4.7339,-4.7339,-4.7519,-4.8087,-4.8147,-4.8386,-4.9045,-4.9105,-4.9404,-5.0122,-5.0272,-5.0511,-5.1169,-5.1947,-5.2576,-5.3294,-5.4341,-5.5089,-5.5209,-5.5209,-5.5209,-5.5269,-5.5777,-5.6496,-5.7034,-5.7723,-5.8411,-5.886,-5.8949,-5.9159,-5.9877,-6.0086,-6.0475,-6.1104,-6.1792,-6.2151,-6.2271,-6.26,-6.2989,-6.3019,-6.3019,-6.3079,-5.1528,-5.1229,-5.1229,-5.1229,-5.1229,-5.1229,-5.084,-5.0212,-4.9613,-4.8985,-4.8327,-4.7638,-4.7489,-4.7788,-4.7459,-4.7309,-4.7309,-4.7309,-4.7489,-4.7848,-4.7848,-4.8027,-4.8416,-4.9015,-4.9164,-4.8895,-4.9494,-4.9613,-4.9284,-4.9254,-4.9434,-4.9793,-5.0152,-5.0481,-5.078,-5.1079,-5.1349,-5.1648,-5.1977,-5.2157,-5.2276,-5.2187,-5.1678,-5.078,-5.0122,-4.9344,-4.8416,-4.8356,-4.8237,-4.7938,-4.8207,-4.8356,-4.8356,-4.8386,-4.8386,-4.8386,-4.8656,-4.8686,-4.8386,-4.8327,-4.8297,-4.8356,-4.8297,-4.8327,-4.8386,-4.8027,-4.7698,-4.7369,-4.7608,-4.7668,-4.7369,-4.7938,-4.8237,-4.7878,-4.8117,-4.8476,-4.8745,-4.8835,-4.9075,-4.9643,-4.9793,-5.0032,-5.069,-5.078,-5.084,-5.1229,-5.1798,-5.2546,-5.3503,-5.3892,-5.4251,-5.4581,-5.467,-5.485,-5.5119,-5.5748,-5.6256,-5.6555,-5.7154,-5.7633,-5.7962,-5.8022,-5.8171,-5.8441,-5.9009,-5.9608,-6.0027,-6.0894,-6.1433,-6.1613,-6.2091,-6.248,-6.257,-6.281,-6.3049,-5.2197,-5.1783,-5.1533,-5.1349,-5.1229,-5.1229,-5.093,-5.0481,-5.0301,-5.0032,-4.9553,-4.8327,-4.8027,-4.8416,-4.7967,-4.7758,-4.7728,-4.7758,-4.8027,-4.8476,-4.8506,-4.8775,-4.9314,-4.9912,-4.9972,-4.9613,-5.0152,-5.0182,-4.9763,-4.9703,-5.0032,-5.0661,-5.1199,-5.1498,-5.1648,-5.1648,-5.1738,-5.1858,-5.1738,-5.2097,-5.2905,-5.2217,-5.1828,-5.1618,-5.1169,-5.0511,-4.9763,-4.9703,-4.9583,-4.9284,-4.9254,-4.9254,-4.9254,-4.9254,-4.9254,-4.9284,-4.9404,-4.9494,-4.9464,-4.8865,-4.8716,-4.9194,-4.8955,-4.8895,-4.9164,-4.8955,-4.8446,-4.7938,-4.8237,-4.8297,-4.7997,-4.8626,-4.9045,-4.8596,-4.8955,-4.9284,-4.9464,-4.9494,-4.9733,-5.0331,-5.0451,-5.0661,-5.1079,-5.1229,-5.1199,-5.1289,-5.1678,-5.2396,-5.3264,-5.3054,-5.3054,-5.3593,-5.3982,-5.4401,-5.494,-5.5508,-5.5957,-5.6107,-5.6555,-5.6944,-5.7094,-5.7154,-5.7124,-5.7363,-5.8112,-5.88,-5.9009,-5.9967,-6.0745,-6.0924,-6.1553,-6.2181,-6.2421,-6.275,-6.3049,-5.3304,-5.3438,-5.254,-5.1768,-5.1259,-5.1259,-5.1199,-5.105,-5.0541,-5.0541,-5.09,-4.9673,-4.9134,-4.9164,-4.9075,-4.9015,-4.9015,-4.9075,-4.9105,-4.9164,-4.9164,-4.9224,-4.9374,-4.9972,-5.0212,-5.0242,-5.078,-5.102,-5.093,-5.099,-5.1379,-5.1947,-5.2097,-5.2396,-5.2905,-5.2965,-5.3264,-5.3892,-5.3324,-5.2755,-5.2396,-5.3354,-5.3623,-5.3025,-5.2935,-5.2306,-5.1079,-5.105,-5.0481,-4.9404,-4.9314,-4.9284,-4.9284,-4.9284,-4.9284,-4.9314,-4.9823,-5.0152,-5.0122,-4.9553,-4.9224,-4.9284,-4.9763,-4.9793,-4.9404,-4.9763,-4.9793,-4.9254,-4.9134,-4.9105,-4.9075,-4.9224,-4.9344,-4.9224,-4.9314,-4.9464,-5.0032,-5.0152,-5.0391,-5.105,-5.105,-5.1169,-5.1199,-5.1229,-5.1229,-5.1229,-5.1319,-5.1558,-5.1828,-5.1768,-5.1858,-5.2516,-5.3354,-5.4102,-5.4401,-5.485,-5.5448,-5.5987,-5.6196,-5.6406,-5.6735,-5.6915,-5.7064,-5.6795,-5.7603,-5.8141,-5.8471,-5.9249,-6.0116,-6.0326,-6.1104,-6.2211,-6.275,-6.3019,-6.3079,-5.5407,-5.4543,-5.399,-5.3001,-5.2047,-5.3006,-5.2852,-5.1892,-5.2702,-5.2822,-5.2342,-5.1409,-5.0571,-4.9823,-4.9464,-4.9254,-4.9254,-4.9254,-4.9464,-4.9823,-4.9853,-5.0032,-5.0421,-5.069,-5.081,-5.081,-5.1109,-5.1229,-5.1289,-5.1588,-5.1947,-5.2217,-5.2576,-5.2905,-5.3144,-5.2815,-5.2935,-5.3563,-5.3324,-5.3234,-5.3384,-5.3503,-5.3683,-5.3743,-5.3384,-5.2755,-5.1947,-5.2157,-5.1947,-5.1079,-5.102,-5.102,-5.099,-5.0631,-5.0421,-5.0421,-5.0661,-5.081,-5.081,-5.0212,-5.0002,-5.0391,-5.0301,-5.0272,-5.0421,-5.0661,-5.069,-5.0451,-5.0062,-4.9703,-4.9434,-4.9972,-5.0272,-5.0002,-5.0182,-5.0541,-5.078,-5.081,-5.096,-5.1199,-5.1229,-5.1229,-5.1229,-5.1229,-5.1229,-5.1229,-5.1229,-5.1319,-5.1678,-5.1468,-5.1528,-5.2097,-5.2695,-5.3324,-5.3982,-5.4401,-5.491,-5.5388,-5.5598,-5.5748,-5.5927,-5.5987,-5.5957,-5.5987,-5.6885,-5.7453,-5.7513,-5.856,-5.9518,-5.9787,-6.0565,-6.1732,-6.2361,-6.281,-6.3019,-5.7064,-5.6315,-5.6094,-5.5,-5.356,-5.4545,-5.4391,-5.359,-5.4576,-5.4576,-5.3926,-5.3344,-5.2459,-5.1182,-5.0245,-4.9975,-5.0215,-4.9975,-5.0032,-5.0481,-5.0511,-5.084,-5.1439,-5.1498,-5.1498,-5.1468,-5.1498,-5.1498,-5.1528,-5.1947,-5.2366,-5.2755,-5.3234,-5.3533,-5.3653,-5.3234,-5.3264,-5.3683,-5.3713,-5.3982,-5.4341,-5.3982,-5.3982,-5.4371,-5.3982,-5.3414,-5.2785,-5.3204,-5.3144,-5.2516,-5.2456,-5.2396,-5.2187,-5.1738,-5.1409,-5.1229,-5.1229,-5.1229,-5.1229,-5.078,-5.072,-5.1109,-5.075,-5.069,-5.1109,-5.1229,-5.1229,-5.1139,-5.078,-5.0272,-5.0032,-5.0661,-5.096,-5.0601,-5.096,-5.1229,-5.1199,-5.1229,-5.1199,-5.1229,-5.1229,-5.1229,-5.1229,-5.1229,-5.1229,-5.1229,-5.1229,-5.1349,-5.1768,-5.1528,-5.1468,-5.2067,-5.2067,-5.2486,-5.3653,-5.4162,-5.4461,-5.494,-5.5239,-5.5239,-5.5209,-5.5209,-5.5209,-5.5658,-5.6346,-5.6795,-5.6974,-5.7872,-5.9099,-5.9458,-6.0176,-6.1104,-6.1702,-6.2241,-6.254,-5.7883,-5.9118,-5.8626,-5.7502,-5.655,-5.5583,-5.5642,-5.6288,-5.5615,-5.527,-5.5589,-5.543,-5.4869,-5.3619,-5.2031,-5.1728,-5.2393,-5.1514,-5.1139,-5.1229,-5.1199,-5.1528,-5.2127,-5.2157,-5.2157,-5.2157,-5.2317,-5.2222,-5.2252,-5.2247,-5.2845,-5.4042,-5.4132,-5.4461,-5.488,-5.485,-5.5029,-5.494,-5.491,-5.5059,-5.5119,-5.5089,-5.5029,-5.5089,-5.5089,-5.47,-5.4162,-5.4132,-5.3862,-5.3144,-5.3144,-5.2875,-5.2336,-5.2157,-5.1858,-5.1319,-5.1229,-5.1229,-5.1229,-5.1139,-5.1169,-5.1199,-5.1139,-5.1169,-5.1199,-5.1229,-5.1229,-5.1229,-5.1139,-5.105,-5.102,-5.1079,-5.1199,-5.1139,-5.1169,-5.1229,-5.1229,-5.1229,-5.1229,-5.1229,-5.1229,-5.1229,-5.1229,-5.1229,-5.1229,-5.1229,-5.1229,-5.1289,-5.1349,-5.1289,-5.1648,-5.1917,-5.1887,-5.1768,-5.2995,-5.3653,-5.4341,-5.494,-5.5209,-5.5209,-5.5209,-5.5209,-5.5209,-5.5329,-5.5927,-5.6346,-5.6496,-5.7274,-5.859,-5.9308,-5.9817,-6.0565,-6.1044,-6.1134,-6.1583,-6.0337,-6.0074,-5.9133,-5.8226,-5.7579,-5.8204,-5.8139,-5.7492,-5.8291,-5.8268,-5.754,-5.6415,-5.6015,-5.6252,-5.4451,-5.3436,-5.3061,-5.2227,-5.2067,-5.2366,-5.2037,-5.2187,-5.2725,-5.2426,-5.2456,-5.2882,-5.3614,-5.3989,-5.3957,-5.3718,-5.3713,-5.4192,-5.464,-5.497,-5.5089,-5.476,-5.476,-5.5119,-5.479,-5.476,-5.5179,-5.5209,-5.5209,-5.5209,-5.5209,-5.488,-5.4221,-5.461,-5.4521,-5.3862,-5.3832,-5.3743,-5.3443,-5.2665,-5.1917,-5.1319,-5.1229,-5.1229,-5.1229,-5.1229,-5.1229,-5.1229,-5.1229,-5.1259,-5.1229,-5.1229,-5.1229,-5.1229,-5.1229,-5.1229,-5.1229,-5.1229,-5.1229,-5.1229,-5.1229,-5.1229,-5.1229,-5.1229,-5.1229,-5.1229,-5.1229,-5.1229,-5.1229,-5.1229,-5.1229,-5.1259,-5.1558,-5.1648,-5.1468,-5.1887,-5.2396,-5.2276,-5.2396,-5.2785,-5.3653,-5.3563,-5.3832,-5.473,-5.5209,-5.5209,-5.5209,-5.5209,-5.5209,-5.5269,-5.5718,-5.6077,-5.6316,-5.7124,-5.8351,-5.9069,-5.9608,-5.9997,-6.0386,-6.0655,-6.1253,-6.1676,-6.0586,-6.0161,-5.9696,-5.9389,-6.0187,-6.0121,-5.9357,-6.0187,-6.0201,-5.9393,-5.8213,-5.7932,-5.7978,-5.6758,-5.5501,-5.44,-5.3546,-5.3364,-5.3633,-5.2888,-5.3038,-5.3875,-5.3667,-5.3857,-5.4541,-5.4854,-5.4977,-5.4694,-5.4345,-5.4311,-5.4551,-5.4999,-5.5209,-5.5119,-5.476,-5.485,-5.5269,-5.5059,-5.5089,-5.5478,-5.5688,-5.5568,-5.5329,-5.5568,-5.5388,-5.4581,-5.5149,-5.5209,-5.464,-5.4521,-5.4431,-5.4132,-5.2935,-5.2007,-5.1588,-5.1319,-5.1319,-5.1498,-5.1528,-5.1648,-5.1858,-5.1858,-5.1798,-5.1588,-5.1528,-5.1439,-5.1289,-5.1229,-5.1229,-5.1229,-5.1229,-5.1229,-5.1229,-5.1229,-5.1229,-5.1229,-5.1229,-5.1229,-5.1229,-5.1229,-5.1229,-5.1259,-5.1439,-5.1528,-5.1528,-5.2097,-5.2276,-5.2127,-5.2516,-5.3174,-5.2905,-5.2995,-5.3503,-5.4132,-5.4132,-5.4102,-5.485,-5.5179,-5.5209,-5.5209,-5.5209,-5.5209,-5.5299,-5.5508,-5.5867,-5.6406,-5.7184,-5.7932,-5.868,-5.9189,-5.9608,-5.9967,-6.0326,-6.0864,-6.179,-6.0903,-6.1837,-6.2177,-6.2018,-6.1152,-6.1317,-6.1951,-6.1119,-6.0902,-6.1065,-6.1021,-6.0156,-5.9548,-5.879,-5.8001,-5.7058,-5.5968,-5.5255,-5.4978,-5.3945,-5.4344,-5.575,-5.5626,-5.6185,-5.7069,-5.5777,-5.4786,-5.4647,-5.45,-5.47,-5.5149,-5.5269,-5.5359,-5.5269,-5.5239,-5.5448,-5.5927,-5.5987,-5.6077,-5.6226,-5.6645,-5.6436,-5.5598,-5.6436,-5.6466,-5.5329,-5.5807,-5.5777,-5.5209,-5.5149,-5.488,-5.4162,-5.3054,-5.2276,-5.2157,-5.1648,-5.1648,-5.2127,-5.2217,-5.2456,-5.2815,-5.3054,-5.2755,-5.2306,-5.2217,-5.2007,-5.1588,-5.1439,-5.1349,-5.1319,-5.1379,-5.1349,-5.1229,-5.1289,-5.1349,-5.1229,-5.1259,-5.1259,-5.1349,-5.1439,-5.1259,-5.1409,-5.1858,-5.2187,-5.2306,-5.2755,-5.3114,-5.2965,-5.3234,-5.3563,-5.3803,-5.3832,-5.4072,-5.4431,-5.473,-5.482,-5.4999,-5.5119,-5.5209,-5.5209,-5.5209,-5.5209,-5.5239,-5.5239,-5.5598,-5.6436,-5.7154,-5.7663,-5.8351,-5.88,-5.9279,-5.9548,-5.9907,-6.0386,-6.2493,-6.2542,-6.2425,-6.299,-6.37,-6.2468,-6.238,-6.3057,-6.2186,-6.1896,-6.1886,-6.1146,-6.0622,-6.0439,-6.0487,-6.0509,-6.017,-5.9716,-5.8499,-5.6684,-5.6309,-5.6372,-5.659,-5.631,-5.6404,-5.6934,-5.5827,-5.581,-5.6525,-5.5983,-5.5867,-5.6316,-5.6047,-5.6107,-5.6376,-5.5688,-5.5508,-5.6107,-5.6166,-5.6166,-5.6226,-5.6795,-5.6885,-5.6675,-5.7363,-5.7363,-5.6555,-5.6286,-5.5837,-5.5239,-5.5209,-5.491,-5.4251,-5.3803,-5.3384,-5.2935,-5.2695,-5.2606,-5.2815,-5.2875,-5.2965,-5.3144,-5.3204,-5.3084,-5.2905,-5.2875,-5.2755,-5.2546,-5.2546,-5.2426,-5.2067,-5.2336,-5.2157,-5.1319,-5.1618,-5.1708,-5.1468,-5.1648,-5.2067,-5.2486,-5.2576,-5.2576,-5.2576,-5.2815,-5.2875,-5.2935,-5.3443,-5.3773,-5.3443,-5.3982,-5.4311,-5.4251,-5.4341,-5.4461,-5.476,-5.494,-5.4999,-5.5059,-5.5149,-5.5209,-5.5209,-5.5209,-5.5209,-5.5209,-5.5209,-5.5508,-5.6346,-5.7034,-5.7543,-5.8231,-5.886,-5.9129,-5.9189,-5.9668,-6.0356,-6.2821,-6.3396,-6.2685,-6.2888,-6.3666,-6.2753,-6.2651,-6.3057,-6.2922,-6.2821,-6.2662,-6.2379,-6.2116,-6.2216,-6.2616,-6.2496,-6.224,-6.2529,-6.1459,-5.9211,-5.8024,-5.7995,-5.8342,-5.8525,-5.8401,-5.8374,-5.8215,-5.8145,-5.8355,-5.7656,-5.7191,-5.7019,-5.7191,-5.716,-5.7213,-5.6828,-5.698,-5.7455,-5.7196,-5.7372,-5.8075,-5.7976,-5.7783,-5.7898,-5.8279,-5.7962,-5.7184,-5.6944,-5.6496,-5.5688,-5.5329,-5.497,-5.4581,-5.4341,-5.4012,-5.3653,-5.3354,-5.3264,-5.3503,-5.3563,-5.3683,-5.3832,-5.3922,-5.3803,-5.3653,-5.3563,-5.3443,-5.2905,-5.2995,-5.2905,-5.2426,-5.2785,-5.2725,-5.2097,-5.2306,-5.2366,-5.2067,-5.2306,-5.2665,-5.3025,-5.3114,-5.3174,-5.3174,-5.3473,-5.3533,-5.3653,-5.4132,-5.4491,-5.4192,-5.464,-5.47,-5.47,-5.482,-5.497,-5.5119,-5.5179,-5.5179,-5.5179,-5.5179,-5.5209,-5.5209,-5.5209,-5.5209,-5.5209,-5.5209,-5.5239,-5.5927,-5.6735,-5.7363,-5.8141,-5.886,-5.9069,-5.9279,-6.0057,-6.0715,-6.2888,-6.3429,-6.2787,-6.2651,-6.2821,-6.2618,-6.2685,-6.2821,-6.3294,-6.3565,-6.362,-6.4025,-6.4363,-6.4431,-6.4383,-6.4003,-6.3344,-6.4003,-6.3986,-6.2278,-6.0408,-5.9507,-6.0757,-6.109,-6.0725,-6.0482,-6.1284,-6.0921,-5.9265,-5.9166,-5.8631,-5.7825,-5.8522,-5.846,-5.7794,-5.843,-5.9024,-5.9175,-5.8668,-5.9328,-6.099,-5.99,-5.9032,-5.9008,-5.8987,-5.8501,-5.7663,-5.7723,-5.7393,-5.6286,-5.5508,-5.5149,-5.5059,-5.4581,-5.4311,-5.4251,-5.3653,-5.3773,-5.4132,-5.4251,-5.4461,-5.491,-5.494,-5.494,-5.4371,-5.4251,-5.3892,-5.2995,-5.3204,-5.3174,-5.2755,-5.3054,-5.3354,-5.3324,-5.3144,-5.3084,-5.3264,-5.3294,-5.3354,-5.3384,-5.3324,-5.3324,-5.3503,-5.3982,-5.4192,-5.4371,-5.476,-5.491,-5.4999,-5.5059,-5.5149,-5.5179,-5.5149,-5.5149,-5.5209,-5.5209,-5.5209,-5.5269,-5.5299,-5.5418,-5.5299,-5.5239,-5.5209,-5.5209,-5.5299,-5.5299,-5.5688,-5.6645,-5.7363,-5.8022,-5.856,-5.8949,-5.9578,-6.0356,-6.0894,-6.3632,-6.4208,-6.3531,-6.3835,-6.458,-6.37,-6.3835,-6.4681,-6.4377,-6.4309,-6.4377,-6.4512,-6.4681,-6.4681,-6.5189,-6.5226,-6.5026,-6.5192,-6.5647,-6.5411,-6.3406,-6.2281,-6.1873,-6.0738,-6.0138,-5.9977,-6.0646,-5.9941,-5.9949,-6.0735,-6.0662,-5.9952,-5.9827,-5.9481,-5.8806,-5.9123,-5.8837,-5.8802,-5.9379,-5.9337,-5.9253,-5.941,-5.9165,-5.9108,-5.9165,-5.8979,-5.853,-5.8261,-5.7513,-5.6256,-5.5538,-5.5209,-5.5239,-5.5059,-5.4999,-5.494,-5.482,-5.47,-5.488,-5.494,-5.5029,-5.5149,-5.5209,-5.5119,-5.497,-5.494,-5.473,-5.4431,-5.4581,-5.4341,-5.3922,-5.4221,-5.4551,-5.4551,-5.3862,-5.3623,-5.4281,-5.4251,-5.4102,-5.4551,-5.461,-5.4551,-5.4581,-5.47,-5.491,-5.497,-5.5089,-5.5329,-5.5418,-5.5299,-5.5359,-5.5239,-5.5179,-5.5179,-5.5209,-5.5209,-5.5239,-5.5299,-5.5478,-5.5748,-5.5568,-5.5359,-5.5269,-5.5209,-5.5538,-5.5628,-5.6226,-5.7034,-5.7573,-5.8141,-5.871,-5.9279,-5.9877,-6.0565,-6.0954,-6.4208,-6.458,-6.414,-6.4275,-6.4715,-6.4208,-6.4444,-6.5087,-6.5121,-6.5053,-6.5121,-6.5425,-6.5527,-6.5595,-6.5967,-6.617,-6.617,-6.617,-6.6406,-6.6525,-6.5474,-6.4255,-6.2971,-6.1439,-6.1466,-6.2109,-6.2456,-6.2428,-6.2038,-6.2268,-6.2003,-6.1645,-6.1659,-6.1746,-6.1795,-6.1301,-6.1033,-6.0661,-6.0517,-6.0132,-6.0547,-6.0089,-6.0283,-6.0421,-6.0313,-5.9847,-5.9488,-5.889,-5.7932,-5.6795,-5.6196,-5.5987,-5.5987,-5.5987,-5.5987,-5.5987,-5.5987,-5.5897,-5.5628,-5.5598,-5.5448,-5.5269,-5.5209,-5.5209,-5.5179,-5.5179,-5.5149,-5.473,-5.5029,-5.482,-5.4461,-5.479,-5.5269,-5.5388,-5.464,-5.4371,-5.5149,-5.485,-5.482,-5.5089,-5.5209,-5.5209,-5.5209,-5.5209,-5.5359,-5.5508,-5.5628,-5.5837,-5.5987,-5.5748,-5.5598,-5.5598,-5.5388,-5.5359,-5.5478,-5.5538,-5.5777,-5.5837,-5.6107,-5.6316,-5.6226,-5.5957,-5.5897,-5.5927,-5.5957,-5.6137,-5.6795,-5.7393,-5.7992,-5.856,-5.9129,-5.9757,-6.0386,-6.0894,-6.1253,-6.4715,-6.4715,-6.4715,-6.4343,-6.4005,-6.4444,-6.485,-6.5019,-6.5561,-6.5797,-6.5899,-6.6508,-6.6677,-6.6914,-6.6711,-6.6846,-6.6914,-6.6745,-6.6846,-6.6863,-6.6455,-6.557,-6.4431,-6.4028,-6.4509,-6.5515,-6.72,-6.6171,-6.4766,-6.3965,-6.3483,-6.3404,-6.3994,-6.4314,-6.4038,-6.3956,-6.4026,-6.2864,-6.1445,-6.137,-6.2239,-6.1491,-6.1297,-6.1842,-6.1248,-6.0565,-6.0057,-5.9458,-5.862,-5.7363,-5.7184,-5.6974,-5.7004,-5.7034,-5.7034,-5.6944,-5.6885,-5.6705,-5.6376,-5.6256,-5.6047,-5.5658,-5.5538,-5.5388,-5.5538,-5.5598,-5.5388,-5.482,-5.5059,-5.5239,-5.4999,-5.5179,-5.5688,-5.6077,-5.5688,-5.5448,-5.5359,-5.5329,-5.5299,-5.5299,-5.5329,-5.5418,-5.5388,-5.5418,-5.5628,-5.6166,-5.6256,-5.6376,-5.6496,-5.6406,-5.6286,-5.6256,-5.5957,-5.5538,-5.5748,-5.5957,-5.6286,-5.6526,-5.6915,-5.7154,-5.7304,-5.7124,-5.7004,-5.6915,-5.6615,-5.6705,-5.7214,-5.7812,-5.8381,-5.9009,-5.9578,-6.0326,-6.1014,-6.1433,-6.1822,-6.5459,-6.5459,-6.5459,-6.5358,-6.5256,-6.5392,-6.5797,-6.6305,-6.6474,-6.6508,-6.6609,-6.6779,-6.7117,-6.759,-6.7117,-6.7117,-6.7421,-6.7117,-6.7117,-6.7573,-6.6512,-6.709,-6.6965,-6.641,-6.6133,-6.6865,-6.7089,-6.6997,-6.6527,-6.6832,-6.7082,-6.6089,-6.5643,-6.5514,-6.4043,-6.452,-6.368,-6.2304,-6.1981,-6.1981,-6.1825,-6.1569,-6.1336,-6.172,-6.1417,-6.0805,-6.0236,-5.9937,-5.9488,-5.865,-5.7812,-5.7423,-5.7274,-5.7214,-5.7244,-5.7244,-5.7184,-5.7094,-5.6915,-5.6885,-5.6825,-5.6615,-5.6526,-5.6675,-5.6675,-5.6615,-5.6346,-5.5987,-5.6316,-5.6436,-5.6376,-5.6555,-5.6705,-5.6765,-5.6705,-5.6585,-5.6585,-5.6226,-5.5987,-5.6047,-5.6316,-5.6675,-5.6645,-5.6555,-5.6675,-5.6885,-5.6944,-5.6974,-5.7034,-5.7064,-5.6974,-5.6915,-5.6585,-5.6226,-5.6346,-5.6615,-5.7034,-5.7334,-5.7693,-5.7932,-5.8052,-5.8052,-5.7842,-5.7483,-5.7064,-5.7363,-5.7992,-5.8141,-5.868,-5.9368,-6.0146,-6.0864,-6.1553,-6.1972,-6.2271,-6.6,-6.573,-6.6068,-6.6,-6.5797,-6.6068,-6.644,-6.6779,-6.6812,-6.6812,-6.6914,-6.7151,-6.7354,-6.7421,-6.732,-6.7421,-6.7387,-6.7421,-6.776,-6.8215,-6.7825,-6.8316,-6.9153,-6.8652,-6.8226,-6.8526,-6.856,-6.8253,-6.8002,-6.7895,-6.7394,-6.6743,-6.6743,-6.6187,-6.4893,-6.4808,-6.3984,-6.287,-6.2464,-6.2163,-6.1695,-6.1882,-6.2032,-6.2032,-6.2002,-6.1732,-6.1134,-6.1044,-6.0685,-6.0057,-5.9338,-5.862,-5.8141,-5.8022,-5.8022,-5.8022,-5.8022,-5.7842,-5.7693,-5.7543,-5.7423,-5.7154,-5.7124,-5.7094,-5.7094,-5.7094,-5.6974,-5.6765,-5.6885,-5.7184,-5.7483,-5.7184,-5.7214,-5.7453,-5.7274,-5.7124,-5.7034,-5.6795,-5.6615,-5.6645,-5.6855,-5.6974,-5.7094,-5.7274,-5.7423,-5.7483,-5.7603,-5.7663,-5.7992,-5.7992,-5.7663,-5.7513,-5.7184,-5.7004,-5.7064,-5.7363,-5.7842,-5.8171,-5.8471,-5.862,-5.871,-5.865,-5.856,-5.8201,-5.7932,-5.8441,-5.8949,-5.9039,-5.9398,-6.0505,-6.1313,-6.1702,-6.2061,-6.248,-6.272,-6.644,-6.5899,-6.6542,-6.6508,-6.617,-6.6711,-6.7015,-6.6981,-6.6981,-6.6981,-6.6914,-6.7489,-6.7354,-6.7218,-6.7421,-6.732,-6.7117,-6.7387,-6.7963,-6.8789,-6.8857,-6.9431,-7.0094,-7.0208,-6.9873,-7.0153,-7.0153,-6.9544,-6.8446,-6.7768,-6.7487,-6.6638,-6.6401,-6.6288,-6.6226,-6.5302,-6.4027,-6.3544,-6.2747,-6.2438,-6.2271,-6.269,-6.2899,-6.2899,-6.2869,-6.254,-6.2032,-6.1882,-6.1702,-6.1194,-6.1104,-6.0505,-5.9757,-5.9279,-5.9249,-5.9219,-5.9039,-5.868,-5.8351,-5.8231,-5.8022,-5.7423,-5.7453,-5.7453,-5.7513,-5.7573,-5.7483,-5.7334,-5.7393,-5.7603,-5.8112,-5.7932,-5.7872,-5.8052,-5.7723,-5.7453,-5.7393,-5.7393,-5.7453,-5.7304,-5.7573,-5.7782,-5.7723,-5.7752,-5.7932,-5.8112,-5.8201,-5.8381,-5.871,-5.877,-5.8411,-5.8261,-5.7992,-5.7902,-5.7962,-5.7932,-5.8441,-5.868,-5.9069,-5.9249,-5.9368,-5.9608,-5.9548,-5.9189,-5.9129,-5.9578,-5.9847,-5.9907,-6.0565,-6.1792,-6.2121,-6.2091,-6.248,-6.2989,-6.3079,-6.6745,-6.6643,-6.6745,-6.7083,-6.7489,-6.7658,-6.7624,-6.7726,-6.759,-6.7354,-6.688,-6.6948,-6.7354,-6.7455,-6.7117,-6.6948,-6.7083,-6.7387,-6.7996,-6.9011,-6.9282,-6.9891,-7.0804,-7.076,-7.0397,-6.997,-7.0122,-6.987,-6.9178,-6.8825,-6.7785,-6.7112,-6.6838,-6.6583,-6.5558,-6.4987,-6.4126,-6.3486,-6.3009,-6.281,-6.2869,-6.2959,-6.3079,-6.3079,-6.3079,-6.278,-6.2301,-6.2091,-6.1792,-6.1194,-6.1134,-6.1014,-6.0745,-6.0296,-6.0027,-5.9847,-5.9548,-5.9249,-5.9099,-5.9009,-5.8919,-5.88,-5.877,-5.877,-5.877,-5.871,-5.8471,-5.8171,-5.8112,-5.8291,-5.886,-5.886,-5.883,-5.889,-5.889,-5.874,-5.871,-5.871,-5.859,-5.8351,-5.853,-5.862,-5.8411,-5.8351,-5.859,-5.871,-5.874,-5.8979,-5.9338,-5.9249,-5.8949,-5.889,-5.889,-5.886,-5.889,-5.88,-5.8949,-5.9039,-5.9368,-5.9727,-5.9997,-6.0565,-6.0565,-6.0027,-5.9997,-6.0386,-6.0595,-6.0745,-6.1283,-6.2121,-6.2271,-6.2331,-6.272,-6.3079,-6.3079,-6.6812,-6.6812,-6.6812,-6.7015,-6.7286,-6.7354,-6.7354,-6.732,-6.732,-6.7151,-6.7015,-6.7184,-6.732,-6.7489,-6.7963,-6.7996,-6.7929,-6.7996,-6.8639,-6.9553,-7.0094,-7.0534,-7.1064,-7.0574,-6.9949,-6.9313,-6.9217,-6.8927,-6.8206,-6.8074,-6.7368,-6.6438,-6.6154,-6.5436,-6.4401,-6.3984,-6.3819,-6.3194,-6.3079,-6.3079,-6.3079,-6.3079,-6.3079,-6.3079,-6.3079,-6.2899,-6.272,-6.26,-6.248,-6.2211,-6.2151,-6.2121,-6.1912,-6.1523,-6.0954,-6.0655,-6.0296,-6.0116,-6.0116,-6.0146,-6.0146,-6.0146,-6.0116,-6.0146,-6.0027,-5.9817,-5.9458,-5.9308,-5.9578,-5.9787,-6.0146,-6.0086,-5.9997,-5.9757,-5.9877,-5.9907,-5.9787,-5.9937,-5.9757,-5.9428,-5.9219,-5.9099,-5.8979,-5.9039,-5.9249,-5.9308,-5.9308,-5.9578,-5.9937,-5.9608,-5.9279,-5.9338,-5.9308,-5.9279,-5.9338,-5.9398,-5.9428,-5.9548,-5.9817,-6.0176,-6.0535,-6.1104,-6.1014,-6.0595,-6.0805,-6.1194,-6.1373,-6.1553,-6.2002,-6.2391,-6.257,-6.275,-6.2929,-6.3079,-6.3079,-6.6812,-6.6812,-6.6812,-6.6914,-6.7015,-6.7049,-6.7083,-6.7049,-6.7083,-6.7015,-6.6914,-6.732,-6.732,-6.7252,-6.7929,-6.8605,-6.8842,-6.8741,-6.9214,-6.9972,-7.0175,-7.0556,-7.0448,-6.9537,-6.8471,-6.7774,-6.7368,-6.6783,-6.6751,-6.6751,-6.5941,-6.5142,-6.4734,-6.432,-6.3364,-6.3279,-6.3079,-6.3079,-6.3079,-6.3079,-6.3079,-6.3079,-6.3079,-6.3079,-6.3079,-6.3079,-6.2989,-6.2989,-6.2989,-6.2959,-6.2959,-6.3019,-6.2989,-6.257,-6.2061,-6.1583,-6.1283,-6.1134,-6.1074,-6.1014,-6.0894,-6.0864,-6.1044,-6.1074,-6.0954,-6.0535,-6.0266,-6.0386,-6.0655,-6.0924,-6.0894,-6.1044,-6.0805,-6.0565,-6.0685,-6.0954,-6.0595,-6.0565,-6.0775,-6.0416,-5.9937,-5.9787,-5.9847,-5.9847,-6.0086,-6.0146,-6.0116,-6.0206,-6.0416,-5.9817,-5.9548,-5.9638,-5.9638,-5.9608,-5.9668,-5.9817,-5.9907,-6.0057,-6.0475,-6.0924,-6.1224,-6.1583,-6.1433,-6.1463,-6.1613,-6.1942,-6.2151,-6.2271,-6.254,-6.278,-6.2989,-6.3079,-6.3079,-6.3079,-6.3079,-6.6812,-6.6812,-6.6812,-6.7184,-6.7658,-6.7692,-6.7726,-6.7692,-6.7658,-6.7387,-6.6812,-6.6914,-6.6948,-6.7083,-6.7083,-6.7557,-6.803,-6.8229,-6.887,-6.9704,-6.9118,-6.9013,-6.9151,-6.8074,-6.6958,-6.6259,-6.562,-6.5328,-6.5328,-6.5328,-6.4703,-6.3676,-6.3592,-6.3279,-6.3194,-6.3079,-6.3079,-6.3079,-6.3079,-6.3079,-6.3079,-6.3079,-6.3079,-6.3079,-6.3079,-6.3079,-6.3079,-6.3079,-6.3079,-6.3079,-6.3079,-6.3079,-6.3049,-6.3049,-6.2959,-6.254,-6.1912,-6.1134,-6.1253,-6.1343,-6.1373,-6.1403,-6.1313,-6.1164,-6.1164,-6.1224,-6.1104,-6.0984,-6.1194,-6.1313,-6.1373,-6.1224,-6.1104,-6.1104,-6.1224,-6.1253,-6.1074,-6.1373,-6.1553,-6.1493,-6.1044,-6.0954,-6.0954,-6.0924,-6.0924,-6.0924,-6.0954,-6.1014,-6.0984,-6.0535,-5.9967,-6.0057,-6.0206,-6.0176,-6.0116,-6.0266,-6.0386,-6.0565,-6.1044,-6.1553,-6.1762,-6.2032,-6.257,-6.26,-6.263,-6.245,-6.2421,-6.257,-6.2899,-6.3019,-6.3079,-6.3079,-6.3079,-6.3079,-6.3079,-6.547,-6.6812,-6.6812,-6.6981,-6.7252,-6.7286,-6.7286,-6.7286,-6.7286,-6.7117,-6.6846,-6.6812,-6.7252,-6.7793,-6.7692,-6.8132,-6.8769,-6.8339,-6.8278,-6.8759,-6.8142,-6.7782,-6.7608,-6.6751,-6.5513,-6.5001,-6.4401,-6.4015,-6.4015,-6.3984,-6.3592,-6.3279,-6.3079,-6.3194,-6.3079,-6.3079,-6.3079,-6.3079,-6.3079,-6.3079,-6.3079,-6.3079,-6.3079,-6.3079,-6.3079,-6.3079,-6.3079,-6.3079,-6.3079,-6.3079,-6.3079,-6.3079,-6.3079,-6.3079,-6.3079,-6.3019,-6.26,-6.2271,-6.2271,-6.2211,-6.2151,-6.2181,-6.2151,-6.2121,-6.1882,-6.1972,-6.1972,-6.1702,-6.2032,-6.2151,-6.2181,-6.2211,-6.1972,-6.1882,-6.1882,-6.1792,-6.1852,-6.2151,-6.2361,-6.2241,-6.2151,-6.2002,-6.1792,-6.1523,-6.1493,-6.1583,-6.1553,-6.1523,-6.1702,-6.1732,-6.1104,-6.0535,-6.0715,-6.0864,-6.0805,-6.0805,-6.0864,-6.1044,-6.1493,-6.1912,-6.2091,-6.245,-6.2899,-6.3079,-6.2929,-6.278,-6.266,-6.278,-6.3019,-6.3049,-6.3079,-6.3079,-6.3079,-6.3079,-6.3109,-6.4137,-6.5855,-6.6148,-6.6525,-6.6812,-6.6812,-6.6846,-6.6846,-6.6846,-6.6846,-6.6812,-6.688,-6.7658,-6.8639,-6.8335,-6.8398,-6.9457,-6.8539,-6.8071,-6.7655,-6.7181,-6.6719,-6.6259,-6.5328,-6.4623,-6.4623,-6.3706,-6.3279,-6.3194,-6.3194,-6.3164,-6.3079,-6.3079,-6.3079,-6.3079,-6.3079,-6.3079,-6.3079,-6.3079,-6.3079,-6.3079,-6.3079,-6.3079,-6.3079,-6.3079,-6.3079,-6.3079,-6.3079,-6.3079,-6.3079,-6.3079,-6.3079,-6.3079,-6.3079,-6.3079,-6.3079,-6.2899,-6.2899,-6.2899,-6.2899,-6.3079,-6.3079,-6.3049,-6.272,-6.248,-6.2839,-6.2959,-6.2361,-6.266,-6.2929,-6.3049,-6.2989,-6.275,-6.26,-6.266,-6.257,-6.251,-6.266,-6.275,-6.269,-6.266,-6.281,-6.251,-6.2061,-6.1972,-6.2181,-6.2181,-6.2091,-6.2211,-6.2391,-6.1882,-6.1134,-6.1553,-6.1642,-6.1463,-6.1433,-6.1433,-6.1583,-6.2002,-6.2301,-6.251,-6.269,-6.2989,-6.3079,-6.3079,-6.3019,-6.2869,-6.2989,-6.3079,-6.3079,-6.3079,-6.3079,-6.3079,-6.3109,-6.3258,-6.3068,-6.3387,-6.4505,-6.5646,-6.6728,-6.6812,-6.6728,-6.661,-6.6728,-6.6846,-6.6914,-6.6981,-6.7861,-6.8586,-6.8378,-6.8138,-6.8385,-6.8163,-6.7623,-6.6806,-6.6048,-6.5328,-6.4813,-6.4209,-6.3394,-6.3394,-6.3194,-6.3194,-6.3079,-6.3079,-6.3079,-6.3079,-6.3079,-6.3079,-6.3079,-6.3079,-6.3079,-6.3079,-6.3079,-6.3079,-6.3079,-6.3079,-6.3079,-6.3079,-6.3079,-6.3079,-6.3079,-6.3079,-6.3079,-6.3079,-6.3079,-6.3079,-6.3079,-6.3079,-6.3079,-6.3079,-6.3079,-6.3079,-6.3079,-6.3079,-6.3079,-6.3079,-6.3079,-6.3049,-6.2869,-6.2959,-6.2989,-6.2929,-6.3019,-6.3049,-6.3079,-6.3049,-6.2959,-6.2959,-6.2959,-6.2899,-6.2839,-6.2899,-6.2989,-6.3049,-6.3079,-6.3079,-6.3079,-6.257,-6.2421,-6.263,-6.266,-6.257,-6.245,-6.254,-6.2181,-6.1882,-6.2421,-6.248,-6.2181,-6.2151,-6.2271,-6.2331,-6.26,-6.278,-6.2929,-6.3079,-6.3079,-6.3079,-6.3079,-6.3079,-6.3079,-6.3079,-6.3079,-6.3079,-6.3079,-6.3139,-6.3228,-6.3318,-6.3617,-6.102,-6.1796,-6.226,-6.37,-6.5646,-6.5646,-6.5646,-6.5767,-6.644,-6.7083,-6.7489,-6.803,-6.8774,-6.9208,-6.8593,-6.8301,-6.8402,-6.678,-6.6352,-6.5527,-6.4623,-6.4015,-6.3592,-6.3478,-6.3079,-6.3079,-6.3079,-6.3079,-6.3079,-6.3079,-6.3079,-6.3079,-6.3079,-6.3079,-6.3079,-6.3079,-6.3079,-6.3079,-6.3079,-6.3079,-6.3079,-6.3079,-6.3079,-6.3079,-6.3079,-6.3079,-6.3079,-6.3079,-6.3079,-6.3079,-6.3079,-6.3079,-6.3079,-6.3079,-6.3079,-6.3079,-6.3079,-6.3079,-6.3079,-6.3079,-6.3079,-6.3079,-6.3079,-6.3079,-6.3079,-6.3079,-6.3079,-6.3079,-6.3079,-6.3079,-6.3079,-6.3079,-6.3049,-6.3079,-6.3079,-6.3079,-6.3079,-6.3079,-6.3079,-6.3079,-6.3079,-6.3079,-6.3079,-6.3019,-6.2989,-6.3019,-6.3019,-6.2989,-6.2869,-6.278,-6.248,-6.2331,-6.278,-6.2959,-6.266,-6.2839,-6.3079,-6.3079,-6.3079,-6.3079,-6.3079,-6.3079,-6.3079,-6.3079,-6.3169,-6.3228,-6.3228,-6.3109,-6.3139,-6.3228,-6.3258,-6.3258,-6.3378,-6.3617,-6.4036,-5.9683,-6.0432,-6.0432,-6.1995,-6.423,-6.4322,-6.4322,-6.4597,-6.5646,-6.6637,-6.7342,-6.7947,-6.8416,-6.8559,-6.8035,-6.7459,-6.7245,-6.6091,-6.5111,-6.432,-6.3706,-6.3194,-6.3079,-6.3079,-6.3079,-6.3079,-6.3079,-6.3079,-6.3079,-6.3079,-6.3079,-6.3079,-6.3079,-6.3079,-6.3079,-6.3079,-6.3079,-6.3079,-6.3079,-6.3079,-6.3079,-6.3079,-6.3079,-6.3079,-6.3079,-6.3079,-6.3079,-6.3079,-6.3079,-6.3079,-6.3079,-6.3079,-6.3079,-6.3079,-6.3079,-6.3079,-6.3079,-6.3079,-6.3079,-6.3079,-6.3079,-6.3079,-6.3079,-6.3079,-6.3079,-6.3079,-6.3079,-6.3079,-6.3079,-6.3079,-6.3079,-6.3079,-6.3079,-6.3079,-6.3079,-6.3079,-6.3079,-6.3079,-6.3079,-6.3079,-6.3079,-6.3079,-6.3079,-6.3079,-6.3109,-6.3109,-6.3079,-6.3049,-6.3019,-6.2959,-6.2929,-6.2869,-6.2989,-6.3049,-6.3049,-6.3079,-6.3079,-6.3079,-6.3079,-6.3079,-6.3079,-6.3109,-6.3288,-6.3468,-6.3528,-6.3498,-6.3677,-6.3917,-6.3707,-6.3438,-6.3647,-6.3977,-6.4066,-6.4366,-6.4695,-5.9069,-5.9099,-5.9177,-6.064,-6.2779,-6.3004,-6.2972,-6.3196,-6.4295,-6.533,-6.5956,-6.6153,-6.6347,-6.6514,-6.6442,-6.6115,-6.5709,-6.5219,-6.4401,-6.3478,-6.3279,-6.3079,-6.3079,-6.3079,-6.3079,-6.3079,-6.3079,-6.3079,-6.3079,-6.3079,-6.3079,-6.3079,-6.3079,-6.3079,-6.3079,-6.3079,-6.3079,-6.3079,-6.3079,-6.3169,-6.3079,-6.3139,-6.3228,-6.3079,-6.3079,-6.3079,-6.3079,-6.3079,-6.3079,-6.3079,-6.3079,-6.3079,-6.3079,-6.3079,-6.3079,-6.3079,-6.3079,-6.3079,-6.3079,-6.3079,-6.3079,-6.3079,-6.3079,-6.3079,-6.3079,-6.3079,-6.3079,-6.3079,-6.3079,-6.3079,-6.3079,-6.3079,-6.3079,-6.3079,-6.3079,-6.3079,-6.3079,-6.3079,-6.3079,-6.3079,-6.3079,-6.3079,-6.3079,-6.3079,-6.3139,-6.3109,-6.3079,-6.3079,-6.3109,-6.3079,-6.3079,-6.3079,-6.3079,-6.3079,-6.3079,-6.3079,-6.3079,-6.3079,-6.3169,-6.3288,-6.3288,-6.3318,-6.3528,-6.3827,-6.3857,-6.3767,-6.4336,-6.4934,-6.4635,-6.4425,-6.4665,-6.4934,-6.4994,-6.5293,-6.5802,-5.8441,-5.8501,-5.8919,-5.9576,-6.0463,-6.1325,-6.1696,-6.1891,-6.2667,-6.3706,-6.4674,-6.5158,-6.5772,-6.5783,-6.5208,-6.492,-6.494,-6.4015,-6.3279,-6.3164,-6.3079,-6.3079,-6.3079,-6.3079,-6.3079,-6.3079,-6.3079,-6.3079,-6.3079,-6.3079,-6.3079,-6.3079,-6.3079,-6.3079,-6.3079,-6.3079,-6.3079,-6.3169,-6.3378,-6.3528,-6.3169,-6.3408,-6.3468,-6.3109,-6.3079,-6.3079,-6.3079,-6.3079,-6.3079,-6.3079,-6.3079,-6.3079,-6.3079,-6.3079,-6.3079,-6.3079,-6.3079,-6.3079,-6.3079,-6.3079,-6.3079,-6.3079,-6.3079,-6.3079,-6.3079,-6.3079,-6.3079,-6.3079,-6.3079,-6.3079,-6.3079,-6.3079,-6.3079,-6.3079,-6.3079,-6.3079,-6.3079,-6.3079,-6.3079,-6.3079,-6.3079,-6.3199,-6.3228,-6.3498,-6.3558,-6.3558,-6.3558,-6.3288,-6.3199,-6.3109,-6.3079,-6.3079,-6.3079,-6.3079,-6.3079,-6.3199,-6.3378,-6.3528,-6.3647,-6.3737,-6.3707,-6.3707,-6.3707,-6.3917,-6.4006,-6.4096,-6.4874,-6.5503,-6.5562,-6.5562,-6.5892,-6.6071,-6.6161,-6.667,-6.7418,-5.8141,-5.8201,-5.883,-5.9099,-5.9207,-5.997,-6.0536,-6.0979,-6.1619,-6.241,-6.3331,-6.4064,-6.4452,-6.4496,-6.4182,-6.3881,-6.432,-6.3592,-6.3079,-6.3079,-6.3079,-6.3079,-6.3079,-6.3079,-6.3079,-6.3079,-6.3079,-6.3079,-6.3079,-6.3079,-6.3079,-6.3079,-6.3079,-6.3079,-6.3079,-6.3079,-6.3079,-6.3169,-6.3348,-6.3408,-6.3258,-6.3318,-6.3438,-6.3199,-6.3079,-6.3079,-6.3079,-6.3079,-6.3079,-6.3079,-6.3079,-6.3079,-6.3079,-6.3079,-6.3079,-6.3079,-6.3079,-6.3079,-6.3079,-6.3079,-6.3079,-6.3079,-6.3079,-6.3079,-6.3079,-6.3079,-6.3079,-6.3079,-6.3109,-6.3139,-6.3139,-6.3139,-6.3258,-6.3258,-6.3258,-6.3258,-6.3408,-6.3408,-6.3199,-6.3199,-6.3408,-6.3438,-6.3617,-6.3857,-6.4126,-6.4066,-6.4036,-6.3737,-6.3408,-6.3258,-6.3228,-6.3288,-6.3288,-6.3348,-6.3378,-6.3408,-6.3647,-6.3947,-6.4096,-6.4216,-6.4366,-6.4366,-6.4186,-6.4156,-6.4665,-6.5144,-6.5652,-6.6071,-6.655,-6.6939,-6.7238,-6.7358,-6.7358,-6.7897,-6.8615,-5.8082,-5.8201,-5.883,-5.9099,-5.9099,-5.9207,-5.9864,-6.0918,-6.0918,-6.1351,-6.2,-6.2619,-6.2764,-6.2513,-6.2804,-6.3189,-6.3279,-6.3194,-6.3079,-6.3079,-6.3079,-6.3079,-6.3079,-6.3079,-6.3079,-6.3079,-6.3079,-6.3079,-6.3079,-6.3079,-6.3079,-6.3079,-6.3079,-6.3079,-6.3079,-6.3079,-6.3079,-6.3139,-6.3318,-6.3318,-6.3199,-6.3228,-6.3288,-6.3139,-6.3079,-6.3079,-6.3079,-6.3079,-6.3079,-6.3079,-6.3079,-6.3079,-6.3079,-6.3079,-6.3079,-6.3079,-6.3079,-6.3079,-6.3079,-6.3079,-6.3079,-6.3079,-6.3079,-6.3079,-6.3079,-6.3079,-6.3169,-6.3228,-6.3318,-6.3288,-6.3288,-6.3468,-6.3617,-6.3588,-6.3588,-6.3707,-6.3887,-6.3797,-6.3498,-6.3558,-6.3857,-6.4096,-6.4485,-6.4725,-6.4665,-6.4784,-6.4755,-6.4575,-6.4186,-6.3498,-6.3498,-6.3647,-6.3647,-6.3677,-6.3737,-6.3887,-6.4246,-6.4665,-6.4575,-6.4665,-6.4844,-6.5054,-6.4904,-6.5024,-6.5682,-6.6281,-6.6939,-6.7478,-6.7986,-6.8286,-6.8345,-6.8465,-6.8435,-6.8824,-6.9393,-5.7393,-5.7513,-5.862,-5.9099,-5.9099,-5.9099,-5.9285,-5.9576,-5.9683,-6.0046,-6.0681,-6.0862,-6.1459,-6.2091,-6.2301,-6.266,-6.2929,-6.3079,-6.3079,-6.3079,-6.3079,-6.3079,-6.3079,-6.3079,-6.3079,-6.3079,-6.3079,-6.3079,-6.3079,-6.3079,-6.3079,-6.3079,-6.3079,-6.3079,-6.3079,-6.3079,-6.3109,-6.3228,-6.3468,-6.3378,-6.3318,-6.3438,-6.3348,-6.3199,-6.3139,-6.3139,-6.3079,-6.3139,-6.3139,-6.3079,-6.3079,-6.3079,-6.3079,-6.3079,-6.3079,-6.3079,-6.3079,-6.3079,-6.3079,-6.3079,-6.3109,-6.3139,-6.3109,-6.3079,-6.3079,-6.3169,-6.3318,-6.3468,-6.3707,-6.3827,-6.4006,-6.4186,-6.4336,-6.4395,-6.4366,-6.4366,-6.4545,-6.4425,-6.4186,-6.4366,-6.4665,-6.4844,-6.5233,-6.5263,-6.5233,-6.5413,-6.5473,-6.5353,-6.4964,-6.4276,-6.3917,-6.4066,-6.4216,-6.4276,-6.4485,-6.4665,-6.5024,-6.5323,-6.5203,-6.5263,-6.5682,-6.5802,-6.5622,-6.5951,-6.667,-6.7508,-6.8375,-6.8764,-6.8884,-6.9034,-6.9093,-6.9333,-6.9542,-6.9871,-7.0081,-5.6885,-5.7244,-5.8261,-5.886,-5.9099,-5.9099,-5.9099,-5.9099,-5.9099,-5.9458,-6.0027,-6.0196,-6.0835,-6.1942,-6.2151,-6.245,-6.3049,-6.3079,-6.3079,-6.3079,-6.3079,-6.3079,-6.3079,-6.3079,-6.3079,-6.3079,-6.3079,-6.3079,-6.3079,-6.3079,-6.3079,-6.3079,-6.3079,-6.3079,-6.3079,-6.3109,-6.3258,-6.3498,-6.3677,-6.3558,-6.3558,-6.3647,-6.3528,-6.3258,-6.3258,-6.3318,-6.3169,-6.3228,-6.3318,-6.3139,-6.3079,-6.3079,-6.3079,-6.3079,-6.3079,-6.3079,-6.3079,-6.3258,-6.3378,-6.3199,-6.3258,-6.3318,-6.3258,-6.3258,-6.3408,-6.3558,-6.3707,-6.3857,-6.4216,-6.4545,-6.4784,-6.5054,-6.5203,-6.5383,-6.5263,-6.5144,-6.5144,-6.5114,-6.5203,-6.5353,-6.5473,-6.5622,-6.5712,-6.5742,-6.5862,-6.6131,-6.6281,-6.6221,-6.5772,-6.5054,-6.4695,-6.4635,-6.4814,-6.4964,-6.5173,-6.5353,-6.5592,-6.5772,-6.5712,-6.5892,-6.643,-6.6849,-6.6909,-6.7238,-6.7717,-6.8525,-6.9303,-6.9393,-6.9482,-6.9692,-6.9901,-7.0081,-7.029,-7.053,-7.0739,-5.6496,-5.7064,-5.7812,-5.8471,-5.9009,-5.9069,-5.9099,-5.9099,-5.9099,-5.9488,-5.9997,-6.0086,-6.0835,-6.1912,-6.2121,-6.248,-6.2899,-6.3079,-6.3079,-6.3079,-6.3079,-6.3079,-6.3079,-6.3079,-6.3079,-6.3079,-6.3079,-6.3079,-6.3079,-6.3079,-6.3079,-6.3079,-6.3079,-6.3079,-6.3079,-6.3258,-6.3408,-6.3558,-6.3887,-6.3947,-6.3617,-6.3647,-6.3797,-6.3318,-6.3558,-6.3857,-6.3498,-6.3498,-6.3737,-6.3348,-6.3079,-6.3079,-6.3079,-6.3079,-6.3079,-6.3169,-6.3199,-6.3498,-6.3707,-6.3647,-6.3767,-6.3767,-6.3588,-6.3737,-6.3977,-6.3857,-6.3917,-6.4515,-6.4964,-6.5293,-6.5592,-6.5712,-6.5862,-6.6071,-6.6101,-6.6161,-6.6281,-6.6251,-6.6221,-6.6281,-6.6191,-6.634,-6.67,-6.6759,-6.6759,-6.6969,-6.7029,-6.6999,-6.655,-6.5862,-6.5652,-6.5413,-6.5353,-6.5533,-6.5742,-6.5892,-6.6041,-6.6161,-6.6221,-6.661,-6.7178,-6.7717,-6.8286,-6.8525,-6.8764,-6.9393,-6.9991,-7.0051,-7.0231,-7.059,-7.0769,-7.0859,-7.1038,-7.1308,-7.1457,-5.6256,-5.6496,-5.7633,-5.8231,-5.8411,-5.889,-5.9099,-5.9099,-5.9099,-5.9458,-5.9997,-6.0146,-6.0805,-6.1882,-6.2002,-6.2391,-6.2959,-6.3079,-6.3079,-6.3079,-6.3079,-6.3079,-6.3079,-6.3079,-6.3079,-6.3079,-6.3079,-6.3079,-6.3079,-6.3079,-6.3079,-6.3079,-6.3079,-6.3079,-6.3109,-6.3348,-6.3588,-6.3617,-6.4216,-6.4336,-6.3977,-6.4186,-6.4366,-6.3917,-6.3947,-6.4336,-6.4096,-6.3887,-6.3947,-6.3767,-6.3288,-6.3109,-6.3079,-6.3109,-6.3109,-6.3169,-6.3588,-6.3917,-6.4126,-6.4306,-6.4515,-6.4635,-6.4605,-6.4665,-6.4575,-6.4216,-6.4395,-6.5144,-6.5712,-6.6041,-6.634,-6.643,-6.658,-6.6789,-6.6999,-6.7208,-6.7448,-6.7358,-6.7268,-6.7148,-6.6999,-6.7208,-6.7597,-6.7747,-6.7747,-6.7747,-6.7717,-6.7627,-6.7268,-6.6729,-6.6789,-6.652,-6.5951,-6.6041,-6.6281,-6.655,-6.6759,-6.6879,-6.6969,-6.7418,-6.7926,-6.8555,-6.9153,-6.9482,-6.9842,-7.032,-7.062,-7.0679,-7.0919,-7.1368,-7.1517,-7.1547,-7.1876,-7.2176,-7.2265,-5.5897,-5.6316,-5.7573,-5.8141,-5.8231,-5.883,-5.9099,-5.9099,-5.9099,-5.9308,-5.9608,-5.9757,-6.0416,-6.1523,-6.1642,-6.2301,-6.2929,-6.3079,-6.3079,-6.3079,-6.3079,-6.3079,-6.3079,-6.3079,-6.3079,-6.3079,-6.3079,-6.3079,-6.3079,-6.3079,-6.3079,-6.3079,-6.3079,-6.3109,-6.3139,-6.3438,-6.3647,-6.3588,-6.4545,-6.4725,-6.4455,-6.4725,-6.4784,-6.4395,-6.4665,-6.4964,-6.4695,-6.4455,-6.4455,-6.4425,-6.4156,-6.3767,-6.3767,-6.3887,-6.3977,-6.4066,-6.4306,-6.4575,-6.4814,-6.4994,-6.5233,-6.5353,-6.5114,-6.4964,-6.5413,-6.5144,-6.5144,-6.5832,-6.6281,-6.661,-6.7089,-6.7328,-6.7657,-6.7897,-6.8046,-6.8226,-6.8315,-6.8286,-6.8226,-6.8196,-6.8106,-6.8136,-6.8405,-6.8435,-6.8435,-6.8435,-6.8435,-6.8375,-6.7986,-6.7597,-6.7687,-6.7567,-6.6969,-6.6849,-6.7178,-6.7418,-6.7567,-6.7657,-6.7717,-6.8315,-6.8914,-6.9482,-7.0021,-7.029,-7.062,-7.1009,-7.1248,-7.1398,-7.1757,-7.2235,-7.2235,-7.2206,-7.2624,-7.3043,-7.3163,-5.5538,-5.6196,-5.7334,-5.7872,-5.7992,-5.868,-5.8949,-5.8979,-5.9069,-5.9099,-5.9159,-5.9159,-5.9937,-6.0745,-6.1283,-6.2121,-6.275,-6.3019,-6.3079,-6.3079,-6.3079,-6.3079,-6.3079,-6.3079,-6.3079,-6.3079,-6.3079,-6.3079,-6.3079,-6.3079,-6.3079,-6.3079,-6.3139,-6.3169,-6.3139,-6.3348,-6.3677,-6.3977,-6.4575,-6.5024,-6.5114,-6.5203,-6.5144,-6.5353,-6.5652,-6.5712,-6.5383,-6.5144,-6.5144,-6.5024,-6.4934,-6.4545,-6.4395,-6.4515,-6.4695,-6.4814,-6.4994,-6.5353,-6.5652,-6.5592,-6.5802,-6.5832,-6.5443,-6.5533,-6.6011,-6.6131,-6.6131,-6.637,-6.6819,-6.7119,-6.7597,-6.8016,-6.8375,-6.8734,-6.8884,-6.9183,-6.9213,-6.9153,-6.9123,-6.9093,-6.9034,-6.9004,-6.9093,-6.9123,-6.9123,-6.9123,-6.9093,-6.9034,-6.8884,-6.8555,-6.8405,-6.8286,-6.7897,-6.7926,-6.8076,-6.8166,-6.8286,-6.8375,-6.8495,-6.9213,-6.9842,-7.035,-7.0769,-7.1038,-7.1398,-7.1787,-7.2056,-7.2265,-7.2654,-7.2984,-7.2714,-7.2684,-7.3462,-7.3851,-7.4091,-5.5269,-5.5448,-5.6226,-5.6555,-5.6765,-5.7812,-5.8321,-5.8411,-5.8919,-5.9099,-5.9129,-5.9219,-5.9847,-6.1134,-6.1702,-6.2391,-6.2929,-6.3079,-6.3079,-6.3079,-6.3079,-6.3079,-6.3079,-6.3079,-6.3079,-6.3079,-6.3079,-6.3079,-6.3079,-6.3079,-6.3079,-6.3079,-6.3647,-6.3617,-6.3318,-6.3707,-6.4366,-6.4515,-6.4784,-6.5293,-6.5892,-6.5922,-6.5832,-6.5981,-6.6161,-6.6161,-6.6011,-6.5832,-6.5802,-6.5682,-6.5413,-6.5114,-6.5024,-6.5084,-6.5263,-6.5443,-6.5622,-6.5951,-6.6161,-6.64,-6.664,-6.67,-6.646,-6.652,-6.6789,-6.6819,-6.6849,-6.6939,-6.7238,-6.7208,-6.7597,-6.7956,-6.8345,-6.8794,-6.9064,-6.9782,-7.0201,-6.9961,-6.9782,-6.9602,-6.9423,-6.9572,-6.9782,-6.9782,-6.9782,-6.9782,-6.9782,-6.9692,-6.9393,-6.9213,-6.9123,-6.8974,-6.8824,-6.8734,-6.8794,-6.8794,-6.8884,-6.9004,-6.9243,-6.9871,-7.05,-7.1128,-7.1517,-7.1757,-7.2176,-7.2624,-7.2864,-7.3043,-7.3313,-7.3522,-7.3073,-7.3133,-7.3971,-7.445,-7.451]}]]